[[{"header":{"parameterUnit":"m.s-1","parameterCategory":1,"la1":30.6,"la2":28.766,"lo1":-90.7593,"lo2":-88.6598,"dx":0.0162,"dy":0.0183,"nx":116,"ny":114,"refTime":"2023-02-10T18:00:00:Z","depth":0,"parameterNumber":2,"parameterNumberName":"U-component_of_WINDS"},"data":[0.0,0.0,0.0,0.0,0.0,0.0,0.0,0.0,0.0,0.0,0.0,0.0,0.0,0.0,0.0,0.0,0.0,0.0,0.0,0.0,0.0,0.0,0.0,0.0,0.0,0.0,0.0,0.0,0.0,0.0,0.0,0.0,0.0,0.0,0.0,0.0,0.0,0.0,0.0,0.0,0.0,0.0,0.0,0.0,0.0,0.0,0.0,0.0,0.0,0.0,0.0,0.0,0.0,0.0,0.0,0.0,0.0,0.0,0.0,0.0,0.0,0.0,0.0,0.0,0.0,0.0,0.0,0.0,0.0,0.0,0.0,0.0,0.0,0.0,0.0,0.0,0.0,0.0,0.0,0.0,0.0,0.0,0.0,0.0,0.0,0.0,0.0,0.0,0.0,0.0,0.0,0.0,0.0,0.0,0.0,0.0,0.0,0.0,0.0,0.0,0.0,0.0,0.0,0.0,0.0,0.0,0.0,0.0,0.0,0.0,0.0,0.0,0.0,0.0,0.0,0.0,0.0,0.0,0.0,0.0,0.0,0.0,0.0,0.0,0.0,0.0,0.0,0.0,0.0,0.0,0.0,0.0,0.0,0.0,0.0,0.0,0.0,0.0,0.0,0.0,0.0,0.0,0.0,0.0,0.0,0.0,0.0,0.0,0.0,0.0,0.0,0.0,0.0,0.0,0.0,0.0,0.0,0.0,0.0,0.0,0.0,0.0,0.0,0.0,0.0,0.0,0.0,0.0,0.0,0.0,0.0,0.0,0.0,0.0,0.0,0.0,0.0,0.0,0.0,0.0,0.0,0.0,0.0,0.0,0.0,0.0,0.0,0.0,0.0,0.0,0.0,0.0,0.0,0.0,0.0,0.0,0.0,0.0,0.0,0.0,0.0,0.0,0.0,0.0,0.0,0.0,0.0,0.0,0.0,0.0,0.0,0.0,0.0,0.0,0.0,0.0,0.0,0.0,0.0,0.0,0.0,0.0,0.0,0.0,0.0,0.0,0.0,0.0,0.0,0.0,0.0,0.0,0.0,0.0,0.0,0.0,0.0,0.0,0.0,0.0,0.0,0.0,0.0,0.0,0.0,0.0,0.0,0.0,0.0,0.0,0.0,0.0,0.0,0.0,0.0,0.0,0.0,0.0,0.0,0.0,0.0,0.0,0.0,0.0,0.0,0.0,0.0,0.0,0.0,0.0,0.0,0.0,0.0,0.0,0.0,0.0,0.0,0.0,0.0,0.0,0.0,0.0,0.0,0.0,0.0,0.0,0.0,0.0,0.0,0.0,0.0,0.0,0.0,0.0,0.0,0.0,0.0,0.0,0.0,0.0,0.0,0.0,0.0,0.0,0.0,0.0,0.0,0.0,0.0,0.0,0.0,0.0,0.0,0.0,0.0,0.0,0.0,0.0,0.0,0.0,0.0,0.0,0.0,0.0,0.0,0.0,0.0,0.0,0.0,0.0,0.0,0.0,0.0,0.0,0.0,0.0,0.0,0.0,0.0,0.0,0.0,0.0,0.0,0.0,0.0,0.0,0.0,0.0,0.0,0.0,0.0,0.0,0.0,0.0,0.0,0.0,0.0,0.0,0.0,0.0,0.0,0.0,0.0,0.0,0.0,0.0,0.0,0.0,0.0,0.0,0.0,0.0,0.0,0.0,0.0,0.0,0.0,0.0,0.0,0.0,0.0,0.0,0.0,0.0,0.0,0.0,0.0,0.0,0.0,0.0,0.0,0.0,0.0,0.0,0.0,0.0,0.0,0.0,0.0,0.0,0.0,0.0,0.0,0.0,0.0,0.0,0.0,0.0,0.0,0.0,0.0,0.0,0.0,0.0,0.0,0.0,0.0,0.0,0.0,0.0,0.0,0.0,0.0,0.0,0.0,0.0,0.0,0.0,0.0,0.0,0.0,0.0,0.0,0.0,0.0,0.0,0.0,0.0,0.0,0.0,0.0,0.0,0.0,0.0,0.0,0.0,0.0,0.0,0.0,0.0,0.0,0.0,0.0,0.0,0.0,0.0,0.0,0.0,0.0,0.0,0.0,0.0,0.0,0.0,0.0,0.0,0.0,0.0,0.0,0.0,0.0,0.0,0.0,0.0,0.0,0.0,0.0,0.0,0.0,0.0,0.0,0.0,0.0,0.0,0.0,0.0,0.0,0.0,0.0,0.0,0.0,0.0,0.0,0.0,0.0,0.0,0.0,0.0,0.0,0.0,0.0,0.0,0.0,0.0,0.0,0.0,0.0,0.0,0.0,0.0,0.0,0.0,0.0,0.0,0.0,0.0,0.0,0.0,0.0,0.0,0.0,0.0,0.0,0.0,0.0,0.0,0.0,0.0,0.0,0.0,0.0,0.0,0.0,0.0,0.0,0.0,0.0,0.0,0.0,0.0,0.0,0.0,0.0,0.0,0.0,0.0,0.0,0.0,0.0,0.0,0.0,0.0,0.0,0.0,0.0,0.0,0.0,0.0,0.0,0.0,0.0,0.0,0.0,0.0,0.0,0.0,0.0,0.0,0.0,0.0,0.0,0.0,0.0,0.0,0.0,0.0,0.0,0.0,0.0,0.0,0.0,0.0,0.0,0.0,0.0,0.0,0.0,0.0,0.0,0.0,0.0,0.0,0.0,0.0,0.0,0.0,0.0,0.0,0.0,0.0,0.0,0.0,0.0,0.0,0.0,0.0,0.0,0.0,0.0,0.0,0.0,0.0,0.0,0.0,0.0,0.0,0.0,0.0,0.0,0.0,0.0,0.0,0.0,0.0,0.0,0.0,0.0,0.0,0.0,0.0,0.0,0.0,0.0,0.0,0.0,0.0,0.0,0.0,0.0,0.0,0.0,0.0,0.0,0.0,0.0,0.0,0.0,0.0,0.0,0.0,0.0,0.0,0.0,0.0,0.0,0.0,0.0,0.0,0.0,0.0,0.0,0.0,0.0,0.0,0.0,0.0,0.0,0.0,0.0,0.0,0.0,0.0,0.0,0.0,0.0,0.0,0.0,0.0,0.0,0.0,0.0,0.0,0.0,0.0,0.0,0.0,0.0,0.0,0.0,0.0,0.0,0.0,0.0,0.0,0.0,0.0,0.0,0.0,0.0,0.0,0.0,0.0,0.0,0.0,0.0,0.0,0.0,0.0,0.0,0.0,0.0,0.0,0.0,0.0,0.0,0.0,0.0,0.0,0.0,0.0,0.0,0.0,0.0,0.0,0.0,0.0,0.0,0.0,0.0,0.0,0.0,0.0,0.0,0.0,0.0,0.0,0.0,0.0,0.0,0.0,0.0,0.0,0.0,0.0,0.0,0.0,0.0,0.0,0.0,0.0,0.0,0.0,0.0,0.0,0.0,0.0,0.0,0.0,0.0,0.0,0.0,0.0,0.0,0.0,0.0,0.0,0.0,0.0,0.0,0.0,0.0,0.0,0.0,0.0,0.0,0.0,0.0,0.0,0.0,0.0,0.0,0.0,0.0,0.0,0.0,0.0,0.0,0.0,0.0,0.0,0.0,0.0,0.0,0.0,0.0,0.0,0.0,0.0,0.0,0.0,0.0,0.0,0.0,0.0,0.0,0.0,0.0,0.0,0.0,0.0,0.0,0.0,0.0,0.0,0.0,0.0,0.0,0.0,0.0,0.0,0.0,0.0,0.0,0.0,0.0,0.0,0.0,0.0,0.0,0.0,0.0,0.0,0.0,0.0,0.0,0.0,0.0,0.0,0.0,0.0,0.0,0.0,0.0,0.0,0.0,0.0,0.0,0.0,0.0,0.0,0.0,0.0,0.0,0.0,0.0,0.0,0.0,0.0,0.0,0.0,0.0,0.0,0.0,0.0,0.0,0.0,0.0,0.0,0.0,0.0,0.0,0.0,0.0,0.0,0.0,0.0,0.0,0.0,0.0,0.0,0.0,0.0,0.0,0.0,0.0,0.0,0.0,0.0,0.0,0.0,0.0,0.0,0.0,0.0,0.0,0.0,0.0,0.0,0.0,0.0,0.0,0.0,0.0,0.0,0.0,0.0,0.0,0.0,0.0,0.0,0.0,0.0,0.0,0.0,0.0,0.0,0.0,0.0,0.0,0.0,0.0,0.0,0.0,0.0,0.0,0.0,0.0,0.0,0.0,0.0,0.0,0.0,0.0,0.0,0.0,0.0,0.0,0.0,0.0,0.0,0.0,0.0,0.0,0.0,0.0,0.0,0.0,0.0,0.0,0.0,0.0,0.0,0.0,0.0,0.0,0.0,0.0,0.0,0.0,0.0,0.0,0.0,0.0,0.0,0.0,0.0,0.0,0.0,0.0,0.0,0.0,0.0,0.0,0.0,0.0,0.0,0.0,0.0,0.0,0.0,0.0,0.0,0.0,0.0,0.0,0.0,0.0,0.0,0.0,0.0,0.0,0.0,0.0,0.0,0.0,0.0,0.0,0.0,0.0,0.0,0.0,0.0,0.0,0.0,0.0,0.0,0.0,0.0,0.0,0.0,0.0,0.0,0.0,0.0,0.0,0.0,0.0,0.0,0.0,0.0,0.0,0.0,0.0,0.0,0.0,0.0,0.0,0.0,0.0,0.0,0.0,0.0,0.0,0.0,0.0,0.0,0.0,0.0,0.0,0.0,0.0,0.0,0.0,0.0,0.0,0.0,0.0,0.0,0.0,0.0,0.0,0.0,0.0,0.0,0.0,0.0,0.0,0.0,0.0,0.0,0.0,0.0,0.0,0.0,0.0,0.0,0.0,0.0,0.0,0.0,0.0,0.0,0.0,0.0,0.0,0.0,0.0,0.0,0.0,0.0,0.0,0.0,0.0,0.0,0.0,0.0,0.0,0.0,0.0,0.0,0.0,0.0,0.0,0.0,0.0,0.0,0.0,0.0,0.0,0.0,0.0,0.0,0.0,0.0,0.0,0.0,0.0,0.0,0.0,0.0,0.0,0.0,0.0,0.0,0.0,0.0,0.0,0.0,0.0,0.0,0.0,0.0,0.0,0.0,0.0,0.0,0.0,0.0,0.0,0.0,0.0,0.0,0.0,0.0,0.0,0.0,0.0,0.0,0.0,0.0,0.0,0.0,0.0,0.0,0.0,0.0,0.0,0.0,0.0,0.0,0.0,0.0,0.0,0.0,0.0,0.0,0.0,0.0,0.0,0.0,0.0,0.0,0.0,0.0,0.0,0.0,0.0,0.0,0.0,0.0,0.0,0.0,0.0,0.0,0.0,0.0,0.0,0.0,0.0,0.0,0.0,0.0,0.0,0.0,0.0,0.0,0.0,0.0,0.0,0.0,0.0,0.0,0.0,0.0,0.0,0.0,0.0,0.0,0.0,0.0,0.0,0.0,0.0,0.0,0.0,0.0,0.0,0.0,0.0,0.0,0.0,0.0,0.0,0.0,0.0,0.0,0.0,0.0,0.0,0.0,0.0,0.0,0.0,0.0,0.0,0.0,0.0,0.0,0.0,0.0,0.0,0.0,0.0,0.0,0.0,0.0,0.0,0.0,0.0,0.0,0.0,0.0,0.0,0.0,0.0,0.0,0.0,0.0,0.0,0.0,0.0,0.0,0.0,0.0,0.0,0.0,0.0,0.0,0.0,0.0,0.0,0.0,0.0,0.0,0.0,0.0,0.0,0.0,0.0,0.0,0.0,0.0,0.0,0.0,0.0,0.0,0.0,0.0,0.0,0.0,0.0,0.0,0.0,0.0,0.0,0.0,0.0,0.0,0.0,0.0,0.0,0.0,0.0,0.0,0.0,0.0,0.0,0.0,0.0,0.0,0.0,0.0,0.0,0.0,0.0,0.0,0.0,0.0,0.0,0.0,0.0,0.0,0.0,0.0,0.0,0.0,0.0,0.0,0.0,0.0,0.0,0.0,0.0,0.0,0.0,0.0,0.0,0.0,0.0,0.0,0.0,0.0,0.0,0.0,0.0,0.0,0.0,0.0,0.0,0.0,0.0,0.0,0.0,0.0,0.0,0.0,0.0,0.0,0.0,0.0,0.0,0.0,0.0,0.0,0.0,0.0,0.0,0.0,0.0,0.0,0.0,0.0,0.0,0.0,0.0,0.0,0.0,0.0,0.0,0.0,0.0,0.0,0.0,0.0,0.0,0.0,0.0,0.0,0.0,0.0,4.2476,0.0,0.0,0.0,0.0,0.0,0.0,0.0,0.0,0.0,0.0,0.0,0.0,0.0,0.0,0.0,0.0,0.0,0.0,0.0,0.0,0.0,0.0,0.0,0.0,0.0,0.0,0.0,0.0,0.0,0.0,0.0,0.0,0.0,0.0,0.0,0.0,0.0,0.0,0.0,0.0,0.0,0.0,0.0,0.0,0.0,0.0,0.0,0.0,0.0,0.0,0.0,0.0,0.0,0.0,0.0,0.0,0.0,0.0,0.0,0.0,0.0,0.0,0.0,0.0,0.0,0.0,0.0,0.0,0.0,0.0,0.0,0.0,0.0,0.0,0.0,0.0,0.0,0.0,0.0,0.0,0.0,0.0,0.0,0.0,0.0,0.0,0.0,0.0,0.0,0.0,0.0,0.0,0.0,0.0,0.0,0.0,0.0,0.0,0.0,0.0,0.0,0.0,0.0,0.0,0.0,0.0,0.0,0.0,0.0,0.0,0.0,0.0,0.0,0.0,0.0,0.0,4.5011,0.0,0.0,0.0,0.0,0.0,0.0,0.0,0.0,0.0,0.0,0.0,0.0,0.0,0.0,0.0,0.0,0.0,0.0,0.0,0.0,0.0,0.0,0.0,0.0,0.0,0.0,0.0,0.0,0.0,0.0,0.0,0.0,0.0,0.0,0.0,0.0,0.0,0.0,0.0,0.0,0.0,0.0,0.0,0.0,0.0,0.0,0.0,0.0,0.0,0.0,0.0,0.0,0.0,0.0,0.0,0.0,0.0,0.0,0.0,0.0,0.0,0.0,0.0,0.0,0.0,0.0,0.0,0.0,0.0,0.0,0.0,0.0,0.0,0.0,0.0,0.0,0.0,0.0,0.0,0.0,0.0,0.0,0.0,0.0,0.0,0.0,0.0,0.0,0.0,0.0,0.0,0.0,0.0,0.0,0.0,0.0,0.0,0.0,0.0,0.0,0.0,0.0,0.0,0.0,0.0,0.0,0.0,0.0,0.0,0.0,5.5044,5.6653,5.6976,5.6081,5.3604,5.1006,4.8731,0.0,0.0,0.0,0.0,0.0,0.0,0.0,0.0,0.0,0.0,0.0,0.0,0.0,0.0,0.0,0.0,0.0,0.0,0.0,0.0,0.0,0.0,0.0,0.0,0.0,0.0,0.0,0.0,0.0,0.0,0.0,0.0,0.0,0.0,0.0,0.0,0.0,0.0,0.0,0.0,0.0,0.0,0.0,0.0,0.0,0.0,0.0,0.0,0.0,0.0,0.0,0.0,0.0,0.0,0.0,0.0,0.0,0.0,0.0,0.0,0.0,0.0,0.0,0.0,0.0,0.0,0.0,0.0,0.0,0.0,0.0,0.0,0.0,0.0,0.0,0.0,0.0,0.0,0.0,0.0,0.0,0.0,0.0,0.0,0.0,0.0,0.0,5.0456,5.0588,0.0,0.0,0.0,0.0,0.0,0.0,0.0,0.0,0.0,0.0,0.0,0.0,0.0,0.0,5.8782,6.1778,6.261,6.1718,6.445,6.5654,6.5299,6.4371,6.3667,6.2996,6.4658,0.0,5.3052,5.2909,0.0,0.0,0.0,0.0,0.0,0.0,0.0,0.0,0.0,0.0,0.0,0.0,0.0,0.0,0.0,0.0,0.0,0.0,0.0,0.0,0.0,0.0,0.0,0.0,0.0,0.0,0.0,0.0,0.0,0.0,0.0,0.0,0.0,0.0,0.0,0.0,0.0,0.0,0.0,0.0,0.0,0.0,0.0,0.0,0.0,0.0,0.0,0.0,0.0,0.0,0.0,0.0,0.0,0.0,0.0,0.0,0.0,0.0,0.0,0.0,0.0,0.0,0.0,0.0,0.0,0.0,0.0,0.0,0.0,0.0,0.0,0.0,0.0,0.0,0.0,0.0,0.0,0.0,0.0,0.0,0.0,0.0,0.0,0.0,0.0,4.9992,5.1668,5.0519,5.1975,5.2141,0.0,0.0,0.0,0.0,0.0,0.0,0.0,0.0,0.0,6.0317,6.22,6.3571,6.4424,6.7665,6.8729,6.7661,7.161,7.2701,7.1214,7.1936,7.1529,7.0501,7.2874,7.0403,6.4589,6.1902,5.7707,5.282,0.0,0.0,0.0,0.0,0.0,0.0,0.0,0.0,0.0,0.0,0.0,0.0,0.0,0.0,0.0,0.0,0.0,0.0,0.0,0.0,0.0,5.7919,0.0,0.0,0.0,0.0,0.0,0.0,0.0,0.0,0.0,0.0,0.0,0.0,0.0,0.0,0.0,0.0,0.0,0.0,0.0,0.0,0.0,0.0,0.0,0.0,0.0,0.0,0.0,0.0,0.0,0.0,0.0,0.0,0.0,0.0,0.0,0.0,0.0,0.0,0.0,0.0,0.0,0.0,0.0,0.0,0.0,0.0,0.0,0.0,0.0,0.0,0.0,0.0,0.0,0.0,0.0,0.0,0.0,0.0,0.0,0.0,0.0,5.1918,5.3903,5.1423,5.4637,5.5691,0.0,0.0,0.0,0.0,0.0,0.0,6.0663,6.237,6.4429,6.694,6.8648,6.9904,7.0563,7.3591,7.4686,7.3887,7.794,7.8862,7.6938,7.8325,7.8028,7.6613,7.8536,7.7474,7.4557,7.0075,6.4976,5.9457,5.7671,5.4914,0.0,5.2945,5.3211,5.3447,0.0,0.0,0.0,0.0,0.0,0.0,0.0,0.0,0.0,0.0,0.0,0.0,0.0,0.0,5.9287,6.3258,6.3474,6.3141,0.0,0.0,0.0,0.0,0.0,0.0,0.0,0.0,0.0,0.0,0.0,0.0,0.0,0.0,0.0,0.0,0.0,0.0,0.0,0.0,0.0,0.0,0.0,0.0,0.0,0.0,0.0,0.0,0.0,0.0,0.0,0.0,0.0,0.0,0.0,0.0,0.0,0.0,0.0,0.0,0.0,0.0,0.0,0.0,0.0,0.0,0.0,0.0,0.0,0.0,0.0,0.0,0.0,0.0,0.0,0.0,0.0,0.0,0.0,0.0,0.0,5.544,6.0362,0.0,0.0,0.0,0.0,5.996,6.1969,6.4228,6.6438,6.8145,7.0506,7.382,7.5527,7.7185,7.8687,8.0549,8.1704,8.2143,8.3512,8.3846,8.3726,8.2434,8.1383,8.0517,8.0998,8.0372,7.8373,7.5162,7.0969,6.6396,6.4547,6.1843,5.8919,5.8962,5.8085,5.7049,0.0,0.0,0.0,0.0,0.0,0.0,0.0,0.0,0.0,0.0,0.0,0.0,0.0,5.9418,6.3652,6.7242,6.8769,6.8826,6.727,0.0,0.0,0.0,0.0,0.0,0.0,0.0,0.0,0.0,0.0,0.0,0.0,0.0,0.0,0.0,0.0,0.0,0.0,0.0,0.0,0.0,0.0,0.0,0.0,0.0,0.0,0.0,0.0,0.0,0.0,0.0,0.0,0.0,0.0,0.0,0.0,0.0,0.0,0.0,0.0,0.0,0.0,0.0,0.0,0.0,0.0,0.0,0.0,0.0,0.0,0.0,0.0,0.0,0.0,0.0,0.0,0.0,0.0,0.0,0.0,5.9759,6.4379,0.0,0.0,6.3827,6.4881,6.5634,6.7744,7.0104,7.2665,7.4372,7.6331,7.8591,7.9545,8.07,8.2005,8.296,8.3713,8.4265,8.5069,8.5571,8.5922,8.5026,8.4723,8.5197,8.4871,8.4278,8.3339,8.2223,7.8289,7.2877,7.1983,6.9679,6.6823,6.7508,6.6128,6.4249,0.0,0.0,0.0,0.0,0.0,0.0,0.0,0.0,0.0,0.0,0.0,5.3607,5.8375,6.3935,6.8539,7.187,7.3528,7.2951,7.0135,0.0,0.0,0.0,0.0,0.0,0.0,0.0,0.0,0.0,0.0,0.0,0.0,0.0,0.0,0.0,0.0,0.0,0.0,0.0,0.0,0.0,0.0,0.0,6.5834,0.0,0.0,0.0,0.0,0.0,0.0,0.0,0.0,0.0,0.0,0.0,0.0,0.0,0.0,0.0,0.0,0.0,0.0,0.0,0.0,0.0,0.0,0.0,0.0,0.0,0.0,0.0,0.0,0.0,0.0,0.0,0.0,0.0,0.0,0.0,6.351,6.3676,6.8597,7.0857,6.8095,6.9501,7.0958,7.1912,7.382,7.5929,7.8189,7.9495,8.08,8.2106,8.2859,8.3562,8.4315,8.5069,8.5571,8.5973,8.6324,8.6726,8.7027,8.6676,8.6927,8.758,8.7178,8.6877,8.6525,8.6525,8.4055,7.9973,7.8698,7.6449,7.3957,7.4474,7.291,7.0535,0.0,0.0,0.0,0.0,0.0,0.0,0.0,0.0,0.0,0.0,0.0,5.7189,6.3525,6.922,7.3804,7.7181,7.7449,7.5592,7.1179,6.8254,0.0,0.0,0.0,0.0,0.0,0.0,0.0,0.0,0.0,0.0,0.0,0.0,0.0,0.0,0.0,0.0,0.0,0.0,0.0,0.0,0.0,0.0,7.2161,0.0,0.0,0.0,0.0,0.0,0.0,0.0,0.0,0.0,0.0,0.0,0.0,0.0,0.0,0.0,0.0,0.0,0.0,0.0,0.0,0.0,0.0,0.0,0.0,0.0,0.0,0.0,0.0,0.0,0.0,0.0,0.0,0.0,5.8202,6.3324,6.7191,6.7292,7.3067,7.5929,7.3268,7.5929,7.8088,7.8591,8.0198,8.1604,8.2708,8.3311,8.3864,8.4416,8.547,8.6073,8.6073,8.7077,8.758,8.758,8.763,8.763,8.763,8.768,8.768,8.768,8.768,8.768,8.768,8.768,8.768,8.7379,8.4667,8.2202,8.0114,7.9584,7.806,7.5448,0.0,0.0,0.0,0.0,0.0,0.0,0.0,0.0,0.0,0.0,5.2971,5.8564,6.6003,7.1277,7.591,7.9789,7.8901,7.6985,7.4372,0.0,0.0,0.0,0.0,0.0,0.0,0.0,0.0,0.0,0.0,0.0,0.0,0.0,0.0,0.0,0.0,0.0,0.0,0.0,0.0,0.0,0.0,7.8572,7.526,0.0,0.0,0.0,0.0,0.0,0.0,0.0,0.0,0.0,0.0,0.0,0.0,0.0,0.0,0.0,0.0,0.0,0.0,0.0,0.0,0.0,0.0,0.0,0.0,0.0,0.0,0.0,0.0,0.0,0.0,0.0,0.0,6.2571,6.3174,6.7442,7.161,7.4423,7.7787,7.9695,7.9344,8.0499,8.1353,8.1503,8.2708,8.3914,8.5019,8.5571,8.6123,8.6676,8.7027,8.7178,8.7178,8.7429,8.758,8.763,8.8032,8.8232,8.8232,8.8634,8.9036,8.9438,8.9438,8.9187,8.8885,8.9287,8.9187,8.8684,8.7077,8.5974,8.5473,8.5373,8.3619,8.0621,0.0,0.0,0.0,0.0,0.0,0.0,0.0,0.0,0.0,0.0,5.4351,6.0399,6.8114,7.3249,7.7448,8.0991,7.8727,7.6114,7.3676,0.0,0.0,0.0,0.0,0.0,0.0,0.0,0.0,0.0,0.0,0.0,0.0,0.0,0.0,0.0,0.0,0.0,0.0,0.0,0.0,0.0,8.6158,8.3429,8.0236,7.8262,7.5549,7.2769,7.2171,7.0707,6.8506,6.5721,0.0,0.0,0.0,0.0,0.0,0.0,0.0,0.0,0.0,0.0,0.0,0.0,0.0,0.0,0.0,0.0,0.0,0.0,0.0,0.0,0.0,0.0,0.0,0.0,6.4931,6.8447,7.0255,7.2514,7.5327,7.8992,8.0951,8.2357,8.311,8.3713,8.4165,8.4366,8.5169,8.5973,8.6676,8.6927,8.7278,8.758,8.8032,8.8182,8.7931,8.8684,8.8986,8.9036,8.9588,8.999,9.0191,9.0542,9.0794,0.0,9.0894,9.0643,9.0342,9.0442,9.0291,0.0,0.0,0.0,0.0,0.0,8.6467,8.4646,0.0,0.0,0.0,0.0,0.0,0.0,0.0,0.0,0.0,0.0,0.0,6.1725,6.9511,7.4372,7.8146,8.0759,7.7507,7.4024,0.0,0.0,0.0,0.0,0.0,0.0,0.0,0.0,0.0,0.0,0.0,0.0,0.0,0.0,0.0,0.0,0.0,0.0,0.0,0.0,0.0,9.0048,9.0048,8.8539,8.5868,8.2326,8.1165,8.1049,7.803,7.5998,7.4226,7.0876,0.0,0.0,0.0,0.0,0.0,0.0,0.0,0.0,0.0,0.0,0.0,0.0,0.0,0.0,0.0,0.0,0.0,0.0,0.0,0.0,0.0,0.0,0.0,0.0,7.0154,7.4975,7.7837,7.7988,7.8892,8.1754,8.311,8.4165,8.5219,8.5822,8.6374,8.6826,8.7329,8.768,0.0,0.0,0.0,0.0,0.0,8.9237,8.8735,9.0291,9.0994,9.0944,9.1547,9.2099,9.2501,9.2601,9.2652,9.2652,9.225,9.2049,9.1949,9.1497,9.1246,9.0944,8.9387,8.9036,8.9337,8.8283,8.7881,0.0,0.0,0.0,0.0,0.0,0.0,0.0,0.0,0.0,0.0,5.0308,5.5154,6.0644,6.7603,7.2456,7.6346,7.9423,7.6172,7.3269,0.0,0.0,0.0,0.0,0.0,0.0,0.0,0.0,0.0,0.0,0.0,0.0,0.0,0.0,0.0,0.0,0.0,0.0,0.0,0.0,9.1383,9.1383,9.1383,8.9874,8.7377,8.5578,8.4068,8.2559,8.0875,8.0759,8.0817,7.6971,7.6566,7.6645,7.2085,0.0,0.0,0.0,0.0,0.0,0.0,0.0,0.0,0.0,0.0,0.0,0.0,0.0,0.0,0.0,0.0,0.0,0.0,0.0,0.0,6.9702,7.372,7.7536,8.1202,8.2759,8.3612,8.3813,8.4818,8.5772,8.6425,8.6927,8.7329,8.7429,8.7529,8.8032,8.8935,8.8935,0.0,9.0241,9.0492,9.0593,9.0442,9.1195,9.1396,9.0944,0.0,0.0,9.1949,9.2802,9.3254,9.3254,9.3606,9.3505,9.3154,9.3455,9.3053,9.2149,9.0944,9.0542,9.0542,8.9839,8.9639,8.9588,0.0,0.0,0.0,0.0,0.0,0.0,0.0,0.0,0.0,0.0,5.438,5.8907,6.4897,6.8625,7.1644,7.385,7.1702,0.0,0.0,0.0,0.0,0.0,0.0,0.0,0.0,0.0,0.0,0.0,0.0,0.0,0.0,0.0,0.0,0.0,0.0,0.0,0.0,9.3183,9.3357,9.3706,9.3706,9.2951,9.1499,8.9293,8.7842,8.6797,8.5171,8.4591,8.4184,8.1281,8.0452,8.0143,7.7275,7.4369,7.1396,0.0,0.0,0.0,0.0,0.0,0.0,0.0,0.0,0.0,0.0,0.0,0.0,0.0,0.0,6.0763,0.0,0.0,7.0305,7.4171,7.7586,8.075,8.3512,8.4868,8.547,8.5169,8.6174,8.7027,8.7529,8.8132,8.8534,8.8835,8.9086,8.9538,9.009,9.0392,9.0794,9.1346,9.1597,9.1898,9.2149,9.22,9.2601,9.3455,9.3706,9.4158,9.4711,9.4962,9.5062,9.5062,9.4761,9.451,9.4208,9.3907,9.3304,9.2501,9.1949,9.1446,9.0844,9.0291,9.009,9.004,0.0,0.0,0.0,0.0,0.0,0.0,0.0,0.0,0.0,0.0,0.0,5.7075,6.1652,6.4444,6.636,0.0,0.0,0.0,0.0,0.0,0.0,0.0,0.0,0.0,0.0,0.0,0.0,0.0,0.0,0.0,0.0,0.0,0.0,0.0,0.0,9.4519,9.4983,9.5099,9.5505,9.597,9.597,9.6028,9.5854,9.2893,9.1499,9.0919,8.9003,8.7377,8.5984,8.4591,8.329,8.2051,8.1732,7.9968,7.7054,7.2564,7.0497,0.0,0.0,0.0,0.0,0.0,0.0,0.0,0.0,0.0,5.9357,6.3174,6.4479,6.5986,6.9451,7.2615,7.5578,7.8239,8.1202,8.3713,8.5219,8.6174,8.6676,8.6676,8.7429,8.8182,8.8735,8.9287,8.9839,9.0392,9.0844,9.1195,9.1446,9.1848,9.2149,9.23,9.2802,9.3254,9.3706,9.3505,9.4259,9.5916,9.5564,9.6066,9.7372,9.692,9.682,9.682,9.5815,9.5313,9.5162,9.4158,9.3405,9.2903,9.2752,9.2049,9.1045,9.0442,9.0291,9.0191,0.0,0.0,0.0,0.0,0.0,0.0,0.0,0.0,0.0,0.0,0.0,0.0,0.0,0.0,0.0,0.0,0.0,0.0,0.0,0.0,0.0,0.0,0.0,0.0,0.0,0.0,0.0,0.0,0.0,0.0,0.0,0.0,0.0,0.0,9.597,9.6202,9.6318,9.6899,9.7247,9.7305,9.7305,9.7596,9.7886,9.5854,9.3996,9.2254,9.0338,8.8422,8.6913,8.7261,8.6855,8.6385,8.6216,8.5229,8.3197,7.8746,0.0,6.8337,6.2698,5.8307,0.0,5.8905,5.9357,6.0613,0.0,0.0,6.6739,7.0104,7.1661,7.2966,7.4875,7.7134,7.9495,8.1754,8.3663,8.527,8.6425,8.7931,8.8935,8.8935,8.9036,8.9287,8.989,9.0442,9.0994,9.1547,9.1647,9.2149,9.3053,9.3154,9.3455,9.3957,9.451,9.4811,9.4911,9.5815,9.6167,9.5916,9.6317,9.6669,9.682,9.6719,9.697,9.7422,9.682,9.6267,9.5765,9.5162,9.456,9.3957,9.3505,9.2652,9.1647,9.1045,9.0844,9.0693,0.0,0.0,0.0,0.0,0.0,0.0,0.0,0.0,0.0,0.0,0.0,0.0,0.0,0.0,0.0,0.0,0.0,0.0,0.0,0.0,0.0,0.0,0.0,0.0,0.0,0.0,0.0,0.0,0.0,0.0,0.0,0.0,9.6086,9.6725,9.6957,9.7305,9.7654,9.7886,9.8234,9.8583,9.8583,9.8989,9.9337,9.7015,9.5389,9.388,8.9642,8.6681,0.0,8.5055,8.464,8.4339,8.6444,8.5222,8.2591,7.9249,7.526,0.0,6.7265,0.0,0.0,0.0,6.4093,6.5333,6.9049,6.9903,7.0857,7.4523,7.6431,7.8038,7.9997,8.1654,8.3261,0.0,8.6174,8.7329,8.8132,8.8885,8.9387,8.9689,8.9789,9.0241,9.1446,9.1748,9.225,9.3154,9.3204,9.3405,9.3857,9.4208,9.466,9.5162,9.5162,9.5665,9.7021,9.5815,9.5966,9.7322,9.692,9.7071,9.7673,9.7673,9.7673,9.7573,9.697,9.6418,9.5815,9.4962,9.4259,9.3656,9.2802,9.2401,9.2149,9.1296,9.0743,9.0342,0.0,0.0,0.0,0.0,0.0,0.0,0.0,0.0,0.0,0.0,0.0,0.0,0.0,0.0,0.0,0.0,0.0,0.0,0.0,0.0,0.0,0.0,0.0,0.0,0.0,0.0,0.0,0.0,0.0,0.0,0.0,9.7015,9.7363,9.8002,9.8002,9.8292,9.8699,9.8699,9.8931,9.9395,9.9395,9.957,9.957,9.6957,9.4809,9.2603,8.79,8.4533,8.221,8.1165,8.0335,8.0357,8.307,8.2313,8.024,7.7834,7.4137,7.0648,6.9107,0.0,0.0,6.7651,6.9334,7.0881,7.2652,7.372,7.5327,7.8641,8.0398,8.1905,8.3813,8.4968,0.0,8.7027,8.8032,8.8885,8.9438,8.9538,8.9588,8.9839,8.9789,9.0291,9.1949,9.2401,9.3053,9.4158,9.451,9.4711,9.4911,9.5464,9.6016,9.6569,9.6167,9.692,9.8778,9.6669,9.6569,9.8577,9.7774,9.7724,9.8376,9.8527,9.8226,9.7573,9.7171,9.6569,9.5815,9.4711,9.3957,9.3505,9.2451,9.2149,9.225,9.1446,9.0844,9.0241,0.0,0.0,0.0,0.0,0.0,0.0,0.0,0.0,0.0,0.0,0.0,0.0,0.0,0.0,0.0,0.0,0.0,0.0,0.0,0.0,0.0,0.0,0.0,0.0,0.0,0.0,0.0,0.0,0.0,9.777,9.835,9.835,9.8699,9.9337,9.9337,9.9337,9.9395,9.9395,9.9395,9.9395,9.9395,9.9047,9.8176,9.5622,9.1558,8.6971,8.4939,8.2559,7.983,7.6114,7.4779,7.4837,7.5592,7.6637,0.0,7.4488,6.9302,0.0,0.0,0.0,6.7468,7.2679,7.5564,7.7582,7.9402,8.0348,8.1252,8.296,8.3763,8.4567,8.5722,8.6374,8.7128,8.8232,8.8885,8.9438,9.004,9.009,8.989,8.9387,8.8885,8.9187,0.0,9.1949,9.3053,9.4158,9.5213,9.6066,9.6619,9.7171,9.7724,9.8276,9.8276,9.8778,9.9933,9.9331,9.9079,9.918,9.913,9.8879,9.8376,9.8929,9.8577,9.7573,9.7573,9.692,9.5815,9.4711,9.4208,9.4058,9.3003,9.225,9.1798,9.1798,9.1396,9.0743,0.0,0.0,0.0,0.0,0.0,0.0,0.0,0.0,0.0,0.0,0.0,0.0,0.0,0.0,0.0,0.0,0.0,0.0,0.0,0.0,0.0,0.0,0.0,0.0,0.0,0.0,0.0,0.0,9.8176,9.8176,9.8408,9.8408,9.8757,9.9395,9.9395,9.9395,9.9395,9.9395,9.9686,9.9976,9.8641,9.8525,9.8525,9.3723,8.9468,8.5461,0.0,7.513,7.2573,0.0,0.0,0.0,7.3673,0.0,0.0,6.8369,0.0,0.0,0.0,0.0,7.7789,8.1525,8.252,8.3014,8.4329,8.383,8.3462,8.4416,8.3562,8.2859,8.3663,8.3914,8.4516,8.6023,8.8584,9.0593,9.1145,9.1547,9.1145,8.9488,8.9136,0.0,0.0,0.0,0.0,9.5162,9.6066,9.682,9.7774,9.8326,9.8929,9.9431,9.913,9.9431,10.0586,9.9682,9.9381,9.9732,9.9732,9.9632,9.9431,9.9682,9.9331,9.8627,9.7874,9.7322,9.692,9.4962,9.4208,9.4058,9.2652,9.2149,9.225,9.1446,9.1095,9.0844,0.0,0.0,0.0,0.0,0.0,0.0,0.0,0.0,0.0,0.0,0.0,0.0,0.0,0.0,0.0,0.0,0.0,0.0,0.0,0.0,0.0,0.0,0.0,0.0,0.0,0.0,0.0,9.3299,9.3996,9.4925,9.6028,9.6725,9.7421,9.806,9.806,9.8176,9.835,9.835,9.8118,9.7479,9.5273,9.3938,9.2661,8.7487,8.307,0.0,7.309,6.8894,6.6186,0.0,0.0,0.0,0.0,0.0,0.0,0.0,0.0,0.0,0.0,8.1225,8.4835,8.8023,8.7987,8.7506,8.7669,8.6466,8.527,8.542,8.3361,8.1654,8.2005,8.1604,8.1754,8.3412,8.6224,8.8885,9.0643,9.0542,9.004,8.9639,8.8885,8.8333,0.0,0.0,0.0,9.451,9.5966,9.7221,9.8276,9.928,10.0034,10.0586,10.0084,10.0335,10.149,10.0385,9.9933,10.0335,10.0084,10.0084,10.0285,10.0084,9.9682,9.913,9.8075,9.7472,9.7171,9.5062,9.4208,9.4058,9.2652,9.23,9.2501,9.1547,9.1095,9.0844,0.0,0.0,0.0,0.0,0.0,0.0,0.0,0.0,0.0,0.0,0.0,0.0,0.0,0.0,0.0,0.0,0.0,0.0,0.0,0.0,0.0,0.0,0.0,0.0,0.0,0.0,0.0,8.3894,8.5752,8.819,9.1209,9.3009,9.4228,9.4809,9.4809,9.5157,9.5738,9.5738,9.4344,9.1964,8.9409,8.5868,8.163,7.774,7.3153,6.8625,6.7289,0.0,0.0,0.0,0.0,0.0,0.0,0.0,0.0,0.0,0.0,7.5598,8.3789,8.7195,8.9111,9.2011,9.231,9.1625,9.0096,8.8276,8.68,8.6095,8.306,8.065,0.0,0.0,7.8892,8.065,8.2608,8.527,8.9086,8.7831,8.7429,0.0,0.0,0.0,0.0,0.0,0.0,9.2551,0.0,9.7221,9.8427,10.0034,10.1189,10.1691,10.1189,10.149,10.2544,10.149,10.0988,10.0988,10.0435,10.0435,10.0887,10.0335,9.9783,9.918,9.8075,9.7272,9.6619,9.4911,9.4208,9.4108,9.3003,9.2551,9.2501,9.2049,9.1446,9.0944,0.0,0.0,0.0,0.0,0.0,0.0,0.0,0.0,0.0,0.0,0.0,0.0,0.0,0.0,0.0,0.0,0.0,0.0,0.0,0.0,0.0,0.0,0.0,0.0,0.0,0.0,0.0,0.0,0.0,8.2442,8.3255,8.372,8.4068,8.4184,8.4184,8.4533,8.5113,8.5113,8.4997,8.4707,8.2617,8.1049,7.954,7.5538,7.1866,6.8509,6.6633,0.0,0.0,0.0,0.0,0.0,0.0,0.0,7.3044,0.0,0.0,8.3936,8.8875,9.2849,9.6187,9.8519,9.7699,9.6193,9.5889,9.2178,8.7952,8.547,8.0167,7.5327,0.0,0.0,0.0,7.8842,8.5069,0.0,9.3807,9.3706,0.0,0.0,0.0,9.0944,9.0542,9.1246,0.0,0.0,9.5464,9.7322,10.0084,10.1038,10.1741,10.2293,10.2193,10.2243,10.2544,10.2243,10.2093,10.2093,10.1942,10.1741,10.149,10.0938,10.0385,9.9682,9.8226,9.7472,9.7221,9.5062,9.4208,9.4108,9.3003,9.2551,9.2551,9.2401,9.1798,9.0994,0.0,0.0,0.0,0.0,0.0,0.0,0.0,0.0,0.0,0.0,0.0,0.0,0.0,0.0,0.0,0.0,0.0,0.0,0.0,0.0,0.0,0.0,0.0,0.0,0.0,0.0,0.0,0.0,0.0,0.0,0.0,7.7798,7.832,7.8611,7.8611,7.8959,7.954,7.954,7.9075,0.0,0.0,7.4256,7.2631,6.9243,6.684,0.0,0.0,0.0,0.0,0.0,0.0,6.9928,7.2464,7.5023,7.8033,8.2326,0.0,8.9403,9.3678,9.7454,10.0382,10.1485,10.0218,9.8122,9.5987,9.2227,8.7453,8.1643,7.6271,0.0,6.8272,0.0,0.0,0.0,0.0,0.0,9.3907,9.4259,9.451,0.0,9.4711,0.0,9.3505,9.4058,9.5062,0.0,0.0,9.8125,10.0737,10.159,10.2193,10.2544,10.2544,10.2544,10.2544,10.2544,10.2544,10.2544,10.2544,10.2344,10.2042,10.1239,10.0686,10.0285,0.0,9.7573,9.7422,9.5414,9.4459,9.4158,9.3254,9.2802,9.2551,9.23,9.1848,9.1346,0.0,0.0,0.0,0.0,0.0,0.0,0.0,0.0,0.0,0.0,0.0,0.0,0.0,0.0,0.0,0.0,0.0,0.0,0.0,0.0,0.0,0.0,0.0,0.0,0.0,0.0,0.0,0.0,0.0,0.0,0.0,0.0,0.0,0.0,0.0,0.0,0.0,0.0,7.4082,7.1876,6.967,6.7057,6.4212,0.0,0.0,0.0,0.0,0.0,0.0,0.0,7.2999,7.4504,7.771,8.0176,8.3154,8.8627,9.122,9.3438,9.8534,10.1184,10.2589,10.2763,10.1395,9.876,9.3767,9.0432,8.5953,7.6954,0.0,6.8708,6.5401,6.7466,7.0656,7.3569,0.0,8.7278,9.2601,9.2953,9.3957,9.7472,9.697,9.6518,9.7021,9.7121,9.7824,9.928,9.9029,9.9431,10.0887,10.1892,10.2444,10.2544,10.2444,10.2444,10.2544,10.2444,10.2444,10.2544,10.2544,10.2544,10.2394,10.1389,10.0887,10.0636,0.0,0.0,9.7422,9.5765,9.4761,9.4158,9.3606,9.3053,9.2501,9.2049,9.1848,9.1798,0.0,0.0,0.0,0.0,0.0,0.0,0.0,0.0,0.0,0.0,0.0,0.0,0.0,0.0,0.0,0.0,0.0,0.0,0.0,0.0,0.0,0.0,0.0,0.0,0.0,0.0,0.0,0.0,0.0,0.0,0.0,0.0,0.0,0.0,0.0,0.0,0.0,0.0,0.0,6.4038,6.3574,6.2819,6.1832,0.0,0.0,0.0,0.0,0.0,0.0,0.0,7.7695,8.102,8.4608,8.8165,9.1511,9.5219,9.6965,9.8461,10.2221,10.3515,10.4098,10.5201,10.3662,10.077,9.6672,9.1125,0.0,0.0,7.018,6.5079,6.212,6.4449,6.8899,7.5276,0.0,0.0,0.0,0.0,9.7824,0.0,0.0,0.0,0.0,0.0,0.0,0.0,0.0,0.0,10.154,10.1691,10.2042,10.2544,10.2093,10.2042,10.2544,10.2093,10.2093,10.2544,10.2544,10.2293,10.1791,10.1189,10.0586,10.0084,0.0,0.0,9.7422,9.5765,9.4761,9.4158,9.3606,9.3053,9.2551,9.2501,9.2149,9.1798,0.0,0.0,0.0,0.0,0.0,0.0,0.0,0.0,0.0,0.0,0.0,0.0,0.0,0.0,0.0,0.0,0.0,0.0,0.0,0.0,0.0,0.0,0.0,0.0,0.0,0.0,0.0,0.0,0.0,0.0,0.0,0.0,0.0,0.0,0.0,0.0,0.0,0.0,0.0,0.0,0.0,0.0,0.0,0.0,0.0,0.0,0.0,0.0,0.0,0.0,7.7485,8.399,8.9527,9.2791,9.5249,9.8008,9.9512,10.0776,10.3049,10.4593,10.5724,10.6014,10.4388,10.0963,9.4112,0.0,0.0,0.0,6.6039,6.1993,5.9124,6.2012,0.0,0.0,0.0,0.0,0.0,0.0,0.0,0.0,0.0,0.0,0.0,0.0,0.0,0.0,0.0,0.0,0.0,10.1691,10.1942,10.2544,10.2293,10.2243,10.2544,10.2243,10.2243,10.2544,10.2544,10.2193,10.1691,10.1088,10.0536,9.9933,0.0,0.0,9.7523,9.6066,9.5012,9.4208,9.3907,9.3304,9.2551,9.2551,9.2401,9.22,0.0,0.0,0.0,0.0,0.0,0.0,0.0,0.0,0.0,0.0,0.0,0.0,0.0,0.0,0.0,0.0,0.0,0.0,0.0,0.0,0.0,0.0,0.0,0.0,0.0,0.0,0.0,0.0,0.0,0.0,0.0,0.0,0.0,0.0,0.0,0.0,0.0,0.0,0.0,0.0,0.0,0.0,0.0,0.0,0.0,0.0,0.0,0.0,0.0,0.0,7.5069,8.2617,8.9584,9.3764,9.6434,9.8118,9.9802,10.1485,10.3285,10.5491,10.7117,10.6595,10.4621,10.0266,9.0803,8.5287,0.0,6.7203,6.2632,5.9941,5.7456,6.0114,6.3653,0.0,0.0,0.0,0.0,0.0,0.0,0.0,0.0,0.0,0.0,0.0,0.0,0.0,0.0,0.0,0.0,10.154,10.1791,10.2344,10.2193,10.2293,10.2544,10.2444,10.2444,10.2544,10.2544,10.2193,10.1691,10.1088,10.0536,9.9933,0.0,0.0,0.0,9.6518,9.5414,9.4409,9.4409,9.3807,9.2903,9.2802,9.2752,9.2752,0.0,0.0,0.0,0.0,0.0,0.0,0.0,0.0,0.0,0.0,0.0,0.0,0.0,0.0,0.0,0.0,0.0,0.0,0.0,0.0,0.0,0.0,0.0,0.0,0.0,0.0,0.0,0.0,0.0,0.0,0.0,0.0,0.0,0.0,0.0,0.0,0.0,0.0,0.0,0.0,0.0,0.0,0.0,0.0,0.0,0.0,0.0,0.0,0.0,0.0,0.0,7.3966,8.041,8.8132,9.4925,9.5738,0.0,0.0,10.4853,10.6827,10.7872,10.7814,10.4621,9.9105,9.0048,0.0,7.623,6.6925,6.2494,5.9902,5.872,5.8726,6.0732,0.0,0.0,7.5778,0.0,0.0,0.0,9.9481,0.0,0.0,0.0,0.0,0.0,0.0,0.0,0.0,0.0,10.0988,10.1189,10.1791,10.1289,10.154,10.2544,10.2042,10.2042,10.2544,10.2544,10.2193,10.1691,10.1088,10.0536,9.9933,0.0,0.0,0.0,9.692,9.6016,9.5012,9.5012,9.466,9.4007,9.3505,9.3304,9.3254,0.0,0.0,0.0,0.0,0.0,0.0,0.0,0.0,0.0,0.0,0.0,0.0,0.0,0.0,0.0,0.0,0.0,0.0,0.0,0.0,0.0,0.0,0.0,0.0,0.0,0.0,0.0,0.0,0.0,0.0,0.0,0.0,0.0,0.0,0.0,0.0,0.0,0.0,0.0,0.0,0.0,0.0,0.0,0.0,0.0,0.0,0.0,0.0,0.0,0.0,0.0,0.0,7.1121,7.6962,0.0,0.0,9.5854,9.9221,10.4621,10.7582,10.8975,10.8162,10.3692,9.7421,8.9235,0.0,7.3385,6.5954,6.1822,5.9137,5.7949,5.7515,5.8445,0.0,0.0,0.0,7.7687,0.0,0.0,0.0,0.0,0.0,0.0,0.0,0.0,0.0,0.0,0.0,0.0,0.0,10.1691,10.1189,10.159,10.1791,10.154,10.1992,10.2093,10.2042,10.2344,10.2042,10.1189,10.0988,10.0385,9.9431,0.0,0.0,0.0,9.697,9.6066,9.5062,9.5062,9.4711,9.4208,9.3957,9.3656,9.3405,0.0,0.0,0.0,0.0,0.0,0.0,0.0,0.0,0.0,0.0,0.0,0.0,0.0,0.0,0.0,0.0,0.0,0.0,0.0,0.0,0.0,0.0,0.0,0.0,0.0,0.0,0.0,0.0,0.0,0.0,0.0,0.0,0.0,0.0,0.0,0.0,0.0,0.0,0.0,0.0,0.0,0.0,0.0,0.0,0.0,0.0,0.0,0.0,0.0,0.0,0.0,0.0,0.0,0.0,0.0,0.0,9.1616,9.6391,10.2647,10.7001,10.9439,10.8511,10.3285,9.6376,0.0,0.0,7.1619,6.48,6.1046,5.862,5.678,5.6292,5.653,0.0,0.0,6.3224,7.1158,7.5176,8.0198,0.0,0.0,0.0,0.0,0.0,0.0,0.0,0.0,0.0,0.0,0.0,10.2444,10.1138,10.1892,10.1992,10.1389,10.2093,10.2344,10.1942,10.2344,10.2093,10.1389,10.1038,10.0486,9.9632,0.0,0.0,0.0,9.697,9.6167,9.5313,9.5313,9.4962,9.4459,9.4309,9.3857,9.3405,0.0,0.0,0.0,0.0,0.0,0.0,0.0,0.0,0.0,0.0,0.0,0.0,0.0,0.0,0.0,0.0,0.0,0.0,0.0,0.0,0.0,0.0,0.0,0.0,0.0,0.0,0.0,0.0,0.0,0.0,0.0,0.0,0.0,0.0,0.0,0.0,0.0,0.0,0.0,0.0,0.0,0.0,0.0,0.0,0.0,0.0,0.0,0.0,0.0,0.0,0.0,0.0,0.0,0.0,0.0,0.0,8.5047,9.2616,9.8699,10.4621,10.8975,10.8975,10.3692,9.6376,0.0,0.0,7.1335,6.3621,6.0413,5.8242,5.5525,5.4994,5.5235,5.6132,5.76,6.1617,6.9953,7.3067,0.0,0.0,0.0,0.0,0.0,0.0,0.0,0.0,0.0,0.0,0.0,0.0,10.3398,10.1741,10.1691,10.1992,10.2544,10.2544,10.2544,10.2544,10.2544,10.2544,10.2444,10.1389,10.0887,0.0,0.0,0.0,0.0,9.697,9.6418,9.5916,9.5916,9.5564,9.5012,9.4409,9.3857,9.3304,0.0,0.0,0.0,0.0,0.0,0.0,0.0,0.0,0.0,0.0,0.0,0.0,0.0,0.0,0.0,0.0,0.0,0.0,0.0,0.0,0.0,0.0,0.0,0.0,0.0,0.0,0.0,0.0,0.0,0.0,0.0,0.0,0.0,0.0,0.0,0.0,0.0,0.0,0.0,0.0,0.0,0.0,0.0,0.0,0.0,0.0,0.0,0.0,0.0,0.0,0.0,0.0,0.0,0.0,0.0,0.0,0.0,0.0,8.9992,9.4809,9.8176,9.6899,9.2784,8.7662,8.2591,0.0,6.9302,6.4202,6.1689,5.9617,5.6909,5.639,5.6633,5.7795,5.8654,6.0964,6.5886,0.0,0.0,0.0,0.0,0.0,0.0,0.0,0.0,0.0,0.0,0.0,0.0,0.0,10.2645,10.0586,10.1641,10.1791,10.0837,10.1942,10.2344,10.1992,10.2344,10.2093,10.1389,10.1038,0.0,0.0,0.0,0.0,0.0,9.7422,9.6769,9.5866,9.5514,9.5263,9.5012,9.4409,9.4108,9.3907,0.0,0.0,0.0,0.0,0.0,0.0,0.0,0.0,0.0,0.0,0.0,0.0,0.0,0.0,0.0,0.0,0.0,0.0,0.0,0.0,0.0,0.0,0.0,0.0,0.0,0.0,0.0,0.0,0.0,0.0,0.0,0.0,0.0,0.0,0.0,0.0,0.0,0.0,0.0,0.0,0.0,0.0,0.0,0.0,0.0,0.0,0.0,0.0,0.0,0.0,0.0,0.0,0.0,0.0,0.0,0.0,0.0,0.0,0.0,8.807,9.1742,9.1275,8.8119,0.0,0.0,0.0,0.0,0.0,0.0,5.8996,5.665,5.5736,5.5747,5.6687,5.7449,5.9458,6.3827,0.0,0.0,0.0,0.0,0.0,0.0,0.0,0.0,0.0,0.0,0.0,0.0,0.0,10.2544,10.0686,10.1892,10.2042,10.0988,10.2042,10.2243,10.1691,10.2042,10.1741,10.0887,10.0636,0.0,0.0,0.0,0.0,0.0,9.682,9.6267,9.5564,9.4962,9.4761,9.466,9.4108,9.3907,9.3807,0.0,0.0,0.0,0.0,0.0,0.0,0.0,0.0,0.0,0.0,0.0,0.0,0.0,0.0,0.0,0.0,0.0,0.0,0.0,0.0,0.0,0.0,0.0,0.0,0.0,0.0,0.0,0.0,5.521,5.7256,5.9245,0.0,0.0,0.0,0.0,0.0,0.0,0.0,0.0,0.0,0.0,0.0,0.0,0.0,0.0,0.0,0.0,0.0,0.0,0.0,0.0,0.0,0.0,0.0,0.0,0.0,0.0,0.0,0.0,0.0,0.0,0.0,0.0,0.0,0.0,0.0,0.0,0.0,0.0,5.6963,5.5498,5.4158,5.3406,5.3884,5.4938,5.77,6.3676,0.0,0.0,0.0,0.0,0.0,0.0,0.0,0.0,0.0,0.0,0.0,0.0,0.0,0.0,10.1791,10.2243,10.2544,10.2444,10.2544,10.2243,10.1691,10.1691,10.1389,10.0787,10.0184,0.0,0.0,0.0,0.0,0.0,9.5564,9.5112,9.5012,9.4459,9.4208,9.4158,9.3656,9.3455,9.3405,0.0,0.0,0.0,0.0,0.0,0.0,0.0,0.0,0.0,0.0,0.0,0.0,0.0,0.0,0.0,0.0,0.0,0.0,0.0,0.0,0.0,0.0,0.0,0.0,0.0,0.0,0.0,5.636,5.6221,5.7758,6.0652,5.8996,0.0,0.0,0.0,0.0,0.0,0.0,0.0,0.0,0.0,0.0,0.0,0.0,0.0,0.0,5.7701,0.0,0.0,0.0,0.0,0.0,0.0,0.0,0.0,0.0,6.1351,0.0,0.0,0.0,0.0,0.0,0.0,0.0,0.0,0.0,0.0,0.0,0.0,5.9651,5.81,5.6849,5.6288,5.6738,5.7499,5.9608,6.4429,0.0,0.0,0.0,0.0,0.0,0.0,0.0,0.0,0.0,0.0,0.0,0.0,0.0,0.0,10.2344,10.2444,10.2344,10.1892,10.2293,10.2243,10.1691,10.1691,10.1189,10.0184,9.9632,0.0,0.0,0.0,0.0,9.6669,9.6016,9.5464,9.5012,9.4459,9.4208,9.4208,9.4058,9.4058,9.3957,0.0,0.0,0.0,0.0,0.0,0.0,0.0,0.0,0.0,0.0,0.0,0.0,0.0,0.0,0.0,0.0,0.0,0.0,0.0,0.0,0.0,0.0,0.0,0.0,0.0,0.0,0.0,0.0,0.0,5.5982,0.0,0.0,0.0,0.0,0.0,0.0,0.0,0.0,0.0,0.0,0.0,0.0,0.0,0.0,0.0,0.0,5.8055,5.8864,0.0,5.96,5.9757,5.992,0.0,0.0,0.0,0.0,6.0051,0.0,0.0,0.0,0.0,0.0,0.0,0.0,0.0,0.0,0.0,0.0,0.0,0.0,5.9662,0.0,0.0,5.7899,6.007,0.0,0.0,0.0,0.0,0.0,0.0,0.0,0.0,0.0,0.0,0.0,0.0,0.0,0.0,0.0,0.0,0.0,10.2093,10.2042,10.1691,10.2042,10.159,10.0536,10.0536,9.9933,9.8929,9.8828,0.0,0.0,0.0,0.0,9.6317,9.5464,9.4962,9.456,9.3807,9.3656,9.3807,9.3556,9.3656,9.3756,0.0,0.0,0.0,0.0,0.0,0.0,0.0,0.0,0.0,0.0,0.0,0.0,0.0,0.0,0.0,0.0,0.0,0.0,0.0,0.0,0.0,0.0,0.0,0.0,0.0,0.0,0.0,0.0,0.0,0.0,0.0,0.0,0.0,0.0,0.0,0.0,0.0,0.0,0.0,0.0,0.0,0.0,0.0,0.0,0.0,0.0,0.0,0.0,0.0,5.9738,6.0316,6.0537,5.9493,0.0,0.0,0.0,0.0,0.0,0.0,0.0,0.0,0.0,0.0,0.0,0.0,0.0,0.0,0.0,0.0,0.0,0.0,0.0,0.0,0.0,0.0,0.0,0.0,0.0,0.0,0.0,0.0,0.0,0.0,0.0,0.0,0.0,0.0,0.0,0.0,0.0,0.0,0.0,10.154,10.154,10.144,10.159,10.0887,9.918,9.918,9.8627,9.7573,9.7874,9.7523,0.0,0.0,0.0,9.5665,9.456,9.4058,9.4007,9.3053,9.3003,9.3304,9.2953,9.3053,9.3304,0.0,0.0,0.0,0.0,0.0,0.0,0.0,0.0,0.0,0.0,0.0,0.0,0.0,0.0,0.0,0.0,0.0,0.0,0.0,0.0,0.0,0.0,0.0,0.0,0.0,0.0,0.0,0.0,0.0,0.0,6.0531,5.9121,5.8746,0.0,0.0,0.0,0.0,5.3474,5.2918,5.213,0.0,0.0,0.0,0.0,0.0,0.0,0.0,0.0,0.0,5.8604,5.8466,5.8636,5.8952,0.0,0.0,0.0,0.0,0.0,6.3167,0.0,0.0,0.0,0.0,0.0,0.0,0.0,0.0,0.0,0.0,0.0,0.0,0.0,0.0,0.0,0.0,0.0,0.0,0.0,0.0,0.0,0.0,0.0,0.0,0.0,0.0,0.0,0.0,0.0,0.0,0.0,0.0,0.0,0.0,10.0787,10.0285,10.1189,10.0887,9.918,9.918,9.8577,9.7523,9.6669,9.6418,0.0,0.0,9.4911,9.5112,9.4007,9.3556,9.3505,9.3304,9.3304,9.3455,9.3807,9.3706,9.3304,0.0,0.0,0.0,0.0,0.0,0.0,0.0,0.0,0.0,0.0,0.0,0.0,0.0,0.0,0.0,0.0,0.0,0.0,0.0,0.0,0.0,0.0,0.0,0.0,0.0,0.0,0.0,0.0,0.0,5.8906,6.1012,6.1194,6.1089,6.0622,0.0,0.0,5.472,5.2906,5.2156,5.1962,0.0,0.0,0.0,0.0,0.0,0.0,0.0,0.0,0.0,0.0,5.868,5.8794,5.9543,0.0,0.0,0.0,0.0,0.0,6.1566,0.0,0.0,0.0,0.0,0.0,0.0,0.0,0.0,0.0,0.0,0.0,0.0,0.0,0.0,0.0,0.0,0.0,0.0,0.0,0.0,0.0,0.0,0.0,0.0,0.0,0.0,0.0,0.0,0.0,0.0,0.0,0.0,0.0,0.0,10.0084,9.9582,9.9783,9.918,9.7824,9.7824,9.7272,9.6217,9.6016,9.5916,9.5815,0.0,9.466,9.456,9.3756,9.3405,9.3405,9.3053,9.2953,9.3003,9.3254,9.3154,9.2903,0.0,0.0,0.0,0.0,0.0,0.0,0.0,0.0,0.0,0.0,0.0,0.0,0.0,0.0,0.0,0.0,0.0,0.0,0.0,0.0,0.0,0.0,0.0,0.0,0.0,0.0,0.0,5.7121,5.9181,6.0733,6.1948,6.283,6.2935,0.0,0.0,0.0,0.0,5.314,5.2051,5.238,0.0,0.0,0.0,0.0,0.0,0.0,0.0,0.0,0.0,0.0,0.0,0.0,0.0,0.0,0.0,0.0,6.0595,5.9853,6.0803,6.0955,0.0,0.0,0.0,0.0,0.0,0.0,0.0,0.0,0.0,0.0,0.0,0.0,0.0,0.0,0.0,0.0,0.0,0.0,0.0,0.0,0.0,0.0,0.0,0.0,0.0,0.0,0.0,0.0,0.0,0.0,0.0,0.0,0.0,0.0,9.8828,9.8025,9.7322,9.6719,9.6569,9.6016,9.5062,9.5414,9.5313,9.5062,9.466,9.4309,9.3957,9.3304,9.3053,9.3154,9.2601,9.2501,9.2551,9.2401,9.2401,9.23,0.0,0.0,0.0,0.0,0.0,0.0,0.0,0.0,0.0,0.0,0.0,0.0,0.0,0.0,0.0,0.0,0.0,0.0,0.0,0.0,0.0,0.0,0.0,0.0,0.0,5.8987,6.0841,6.2571,6.3261,6.3976,6.4561,6.4095,6.3632,6.2935,0.0,0.0,5.792,5.4634,5.2903,5.238,5.0969,0.0,0.0,0.0,0.0,0.0,0.0,0.0,0.0,0.0,0.0,0.0,0.0,0.0,0.0,0.0,6.1375,6.1478,6.359,6.5211,0.0,0.0,0.0,0.0,0.0,0.0,0.0,0.0,0.0,0.0,0.0,0.0,0.0,0.0,0.0,0.0,0.0,0.0,0.0,0.0,0.0,0.0,0.0,0.0,0.0,0.0,0.0,0.0,0.0,0.0,0.0,0.0,0.0,9.7221,9.7673,9.6066,9.5815,9.6719,9.6217,9.5665,9.5062,9.456,9.461,9.5012,9.3405,9.3003,9.3405,9.23,9.22,9.2551,9.2049,9.2149,9.2501,9.2049,9.1848,9.1798,0.0,0.0,0.0,0.0,0.0,0.0,0.0,0.0,0.0,0.0,0.0,0.0,0.0,0.0,0.0,0.0,0.0,0.0,0.0,0.0,0.0,0.0,0.0,5.562,5.7245,5.9974,6.2296,6.427,6.6067,6.7007,6.7314,6.5463,0.0,0.0,0.0,0.0,0.0,5.6187,5.4326,5.2903,5.2026,5.0844,0.0,0.0,0.0,0.0,0.0,0.0,0.0,0.0,0.0,0.0,0.0,0.0,0.0,0.0,6.1732,6.155,6.2249,6.4028,0.0,0.0,0.0,0.0,0.0,0.0,0.0,0.0,0.0,0.0,0.0,0.0,0.0,0.0,0.0,0.0,0.0,0.0,0.0,0.0,0.0,0.0,0.0,0.0,0.0,0.0,0.0,0.0,0.0,0.0,0.0,0.0,0.0,9.682,9.7071,9.5414,9.4761,9.5162,9.5313,9.5062,9.456,9.4309,9.4309,9.4459,9.2802,9.2401,9.2802,9.1697,9.1798,9.2501,9.1999,9.2149,9.2501,9.1999,9.1798,9.1697,0.0,0.0,0.0,0.0,0.0,0.0,0.0,0.0,0.0,0.0,0.0,0.0,0.0,0.0,0.0,0.0,0.0,0.0,0.0,0.0,0.0,0.0,0.0,5.5169,5.668,6.0432,6.3574,6.5896,6.9089,7.0076,6.9089,0.0,0.0,0.0,0.0,0.0,0.0,0.0,5.6276,5.4961,5.4207,5.2612,0.0,0.0,0.0,0.0,0.0,0.0,0.0,0.0,0.0,0.0,0.0,0.0,0.0,0.0,6.2025,6.1837,6.2078,6.3407,0.0,0.0,0.0,0.0,0.0,0.0,0.0,0.0,0.0,0.0,0.0,0.0,0.0,0.0,0.0,0.0,0.0,0.0,0.0,0.0,0.0,0.0,0.0,0.0,0.0,0.0,0.0,0.0,0.0,0.0,0.0,0.0,0.0,0.0,9.5966,9.461,9.3957,9.3957,9.4359,9.4309,9.3957,9.4158,9.4058,9.3656,9.235,9.1898,9.1999,9.1045,9.1095,9.1798,9.1798,9.1898,9.2049,9.1647,9.1446,9.1195,0.0,0.0,0.0,0.0,0.0,0.0,0.0,0.0,0.0,0.0,0.0,0.0,0.0,0.0,0.0,0.0,0.0,0.0,0.0,0.0,0.0,0.0,0.0,5.4783,5.5472,6.0474,6.4677,6.7928,7.2282,7.2863,6.9728,6.866,0.0,0.0,0.0,0.0,0.0,0.0,5.8718,5.8597,5.7617,5.5284,5.2612,0.0,0.0,0.0,0.0,0.0,0.0,0.0,0.0,0.0,0.0,0.0,0.0,6.2027,6.237,6.2496,6.4154,0.0,0.0,0.0,0.0,0.0,0.0,0.0,0.0,0.0,0.0,0.0,0.0,0.0,0.0,0.0,0.0,0.0,0.0,0.0,0.0,0.0,0.0,0.0,0.0,0.0,0.0,0.0,0.0,0.0,0.0,0.0,0.0,0.0,0.0,0.0,9.4208,9.3656,9.3405,9.3405,9.3405,9.3405,9.3405,9.3957,9.3556,9.2551,9.1999,9.1446,9.0844,9.0342,9.009,9.0191,9.1346,9.1446,9.0944,9.0944,9.0593,9.004,0.0,0.0,0.0,0.0,0.0,0.0,0.0,0.0,0.0,0.0,0.0,0.0,0.0,0.0,0.0,0.0,0.0,0.0,0.0,0.0,0.0,0.0,0.0,0.0,0.0,0.0,6.5083,6.9205,7.1005,6.996,0.0,0.0,0.0,6.2064,0.0,0.0,0.0,0.0,5.9899,5.8718,5.8597,5.6624,5.3774,0.0,0.0,0.0,0.0,0.0,0.0,0.0,0.0,0.0,0.0,0.0,0.0,6.2499,6.2854,6.3266,6.3445,0.0,0.0,0.0,0.0,0.0,0.0,0.0,0.0,0.0,0.0,0.0,0.0,0.0,0.0,0.0,0.0,0.0,0.0,0.0,0.0,0.0,0.0,0.0,0.0,0.0,0.0,0.0,0.0,0.0,0.0,0.0,0.0,0.0,0.0,0.0,9.3053,9.2551,9.2049,9.1697,9.2049,9.2652,9.3405,9.2802,9.23,9.1949,9.1045,9.0693,9.0944,9.0743,9.0442,9.0141,9.0442,9.0743,9.0844,9.0492,9.0291,9.009,0.0,0.0,0.0,0.0,0.0,0.0,0.0,0.0,0.0,0.0,0.0,0.0,0.0,0.0,0.0,0.0,0.0,0.0,0.0,0.0,0.0,0.0,0.0,0.0,0.0,6.0555,6.3632,0.0,0.0,0.0,0.0,0.0,0.0,6.2819,0.0,6.5115,0.0,0.0,6.2545,6.0605,6.0964,5.9301,5.6651,0.0,0.0,0.0,0.0,0.0,0.0,0.0,0.0,0.0,0.0,0.0,0.0,6.2497,6.2675,6.2971,0.0,0.0,0.0,0.0,0.0,0.0,0.0,0.0,0.0,0.0,0.0,0.0,0.0,0.0,0.0,0.0,0.0,0.0,0.0,0.0,0.0,0.0,0.0,0.0,0.0,0.0,0.0,0.0,0.0,0.0,0.0,0.0,0.0,0.0,0.0,0.0,9.225,9.1949,9.1647,9.1296,9.1396,9.1798,9.2401,9.1999,9.1547,9.1045,9.0191,8.994,9.0291,9.0291,8.994,8.9538,8.994,9.004,8.994,9.009,8.994,8.9789,0.0,0.0,0.0,0.0,0.0,0.0,0.0,0.0,0.0,0.0,0.0,0.0,0.0,0.0,0.0,0.0,0.0,0.0,0.0,0.0,0.0,0.0,0.0,0.0,0.0,0.0,0.0,0.0,0.0,0.0,0.0,0.0,6.7419,6.5327,0.0,6.9221,0.0,6.6627,6.5276,6.3506,6.38,6.2439,6.0237,5.9904,0.0,0.0,0.0,0.0,0.0,0.0,0.0,0.0,0.0,0.0,5.9956,6.1993,6.1942,0.0,0.0,0.0,0.0,0.0,0.0,0.0,0.0,0.0,0.0,0.0,0.0,0.0,0.0,0.0,0.0,0.0,0.0,0.0,0.0,0.0,0.0,0.0,0.0,0.0,0.0,0.0,0.0,0.0,0.0,0.0,0.0,0.0,0.0,0.0,0.0,0.0,9.1647,9.1647,9.1597,0.0,9.0944,9.0693,9.0693,9.1296,9.1045,9.004,8.9438,8.9187,8.9187,8.9136,8.8885,8.8484,8.9538,8.9287,8.8584,8.9588,8.9689,8.9287,0.0,0.0,0.0,0.0,0.0,0.0,0.0,0.0,0.0,0.0,0.0,0.0,0.0,0.0,0.0,0.0,0.0,0.0,0.0,0.0,0.0,0.0,0.0,0.0,0.0,0.0,0.0,0.0,0.0,0.0,0.0,0.0,0.0,6.6294,0.0,6.7983,6.6744,6.4511,6.3209,6.2852,6.3142,6.2322,6.0779,6.0485,5.8661,0.0,0.0,0.0,0.0,0.0,0.0,0.0,5.5705,5.7547,5.9456,6.037,6.1213,0.0,0.0,0.0,0.0,0.0,0.0,0.0,0.0,0.0,0.0,0.0,0.0,0.0,0.0,0.0,0.0,0.0,0.0,0.0,0.0,0.0,0.0,0.0,0.0,0.0,0.0,0.0,0.0,0.0,0.0,0.0,0.0,0.0,0.0,0.0,0.0,9.1497,9.0442,9.0442,9.004,0.0,8.9036,8.8785,8.8333,8.9387,8.9689,8.9438,8.8885,8.8634,8.8634,8.8132,8.7881,8.778,8.8032,8.8283,8.8484,8.8735,8.9036,8.9287,0.0,0.0,0.0,0.0,0.0,0.0,0.0,0.0,0.0,0.0,0.0,0.0,0.0,0.0,0.0,0.0,0.0,0.0,0.0,0.0,0.0,0.0,0.0,0.0,0.0,0.0,0.0,0.0,0.0,0.0,0.0,0.0,0.0,6.6715,0.0,6.9187,6.753,6.57,6.4219,6.3265,6.3381,6.3148,6.2499,6.1909,6.0438,5.8446,5.7322,0.0,0.0,0.0,0.0,0.0,0.0,0.0,5.8851,5.9422,5.9757,0.0,0.0,0.0,0.0,0.0,0.0,0.0,0.0,0.0,0.0,0.0,0.0,0.0,0.0,0.0,0.0,0.0,0.0,0.0,0.0,0.0,0.0,0.0,0.0,0.0,0.0,0.0,0.0,0.0,0.0,0.0,0.0,0.0,0.0,0.0,9.1955,9.0291,8.9689,8.9187,8.8634,8.8032,8.8032,8.7881,8.763,8.8534,8.8735,8.8484,8.8484,8.8283,8.8032,8.768,8.7429,8.7278,8.7529,8.778,8.8082,8.8383,8.8785,8.9287,0.0,0.0,0.0,0.0,0.0,0.0,0.0,0.0,0.0,0.0,0.0,0.0,0.0,0.0,0.0,0.0,0.0,0.0,0.0,0.0,0.0,0.0,0.0,0.0,0.0,0.0,0.0,0.0,0.0,0.0,0.0,0.0,0.0,6.7067,0.0,0.0,6.8377,6.7189,6.5528,6.3857,6.3857,6.3857,6.3797,6.3258,6.2023,6.0385,5.9626,5.8516,5.7097,5.6767,0.0,0.0,0.0,0.0,5.8176,5.8653,5.832,5.9123,0.0,0.0,0.0,0.0,0.0,0.0,0.0,0.0,0.0,0.0,0.0,0.0,0.0,0.0,0.0,0.0,0.0,0.0,0.0,0.0,0.0,0.0,0.0,0.0,0.0,0.0,0.0,0.0,0.0,0.0,0.0,0.0,9.5745,9.4967,9.1358,8.9187,8.9036,8.8082,8.7529,8.7429,8.7379,8.7329,8.7329,8.7931,8.7931,8.763,8.8032,8.7881,8.7429,8.7379,8.7027,8.6676,8.7178,8.7379,8.7529,8.8132,8.8684,8.9136,0.0,0.0,0.0,0.0,0.0,0.0,0.0,0.0,0.0,0.0,0.0,0.0,0.0,0.0,0.0,0.0,0.0,0.0,0.0,0.0,0.0,0.0,0.0,0.0,0.0,0.0,0.0,0.0,0.0,0.0,0.0,0.0,0.0,0.0,0.0,0.0,0.0,6.5114,6.3558,6.3199,6.3199,6.3199,6.3199,6.3139,6.2545,6.1719,6.0501,5.9626,5.8754,5.7576,5.7281,0.0,0.0,0.0,0.0,5.8059,0.0,0.0,0.0,0.0,0.0,0.0,0.0,0.0,0.0,0.0,0.0,0.0,0.0,0.0,0.0,0.0,0.0,0.0,0.0,0.0,0.0,0.0,0.0,0.0,0.0,0.0,0.0,0.0,0.0,0.0,0.0,0.0,0.0,9.4448,9.3905,9.0255,8.967,8.8785,8.7831,8.768,8.7379,8.6877,8.6425,8.6224,8.6224,8.6776,8.7228,8.758,8.7178,8.6927,8.6877,8.6425,8.6174,8.6123,8.6174,8.6525,8.6927,8.7529,8.8082,8.8634,0.0,0.0,0.0,0.0,0.0,0.0,0.0,0.0,0.0,0.0,0.0,0.0,0.0,0.0,0.0,0.0,0.0,0.0,0.0,0.0,0.0,0.0,0.0,0.0,0.0,0.0,0.0,0.0,0.0,0.0,0.0,6.5754,6.7656,0.0,0.0,0.0,0.0,0.0,0.0,6.3079,6.3079,6.3737,6.4575,6.3498,6.3558,6.4038,6.2379,6.1554,6.1259,6.0267,6.0034,5.9859,5.9433,0.0,0.0,0.0,0.0,0.0,0.0,0.0,0.0,0.0,0.0,0.0,0.0,0.0,0.0,0.0,0.0,0.0,0.0,0.0,0.0,0.0,0.0,0.0,0.0,0.0,0.0,0.0,0.0,0.0,0.0,0.0,0.0,0.0,0.0,0.0,9.3414,9.4108,9.3483,9.1484,8.9324,0.0,8.7128,8.6826,8.6575,8.6324,8.6123,8.6023,8.6023,8.6274,8.6475,8.6676,8.6776,8.6625,8.6324,8.6073,8.6023,8.6023,8.6023,8.6324,8.6877,8.7429,8.7931,8.8534,0.0,0.0,0.0,0.0,0.0,0.0,0.0,0.0,0.0,0.0,0.0,0.0,0.0,0.0,0.0,0.0,0.0,0.0,0.0,0.0,0.0,0.0,0.0,0.0,0.0,0.0,0.0,0.0,0.0,0.0,6.5926,6.7783,6.9992,0.0,6.9714,0.0,0.0,0.0,0.0,0.0,6.3797,6.4455,6.5652,6.4695,6.5114,6.6071,6.4395,6.3737,6.3438,6.26,6.2361,6.2121,6.0984,6.0007,0.0,0.0,0.0,0.0,0.0,0.0,0.0,0.0,0.0,0.0,0.0,0.0,0.0,0.0,0.0,0.0,0.0,0.0,0.0,0.0,0.0,0.0,0.0,0.0,0.0,0.0,0.0,0.0,0.0,0.0,0.0,0.0,0.0,0.0,9.3284,9.2767,9.2145,9.1265,8.869,8.7128,8.6575,8.6174,8.6023,8.6023,8.6023,8.6023,8.6023,8.6023,8.6023,8.6023,8.6425,8.6374,8.6023,8.6023,8.6023,8.6023,8.6023,8.6324,8.6877,8.7429,8.7931,8.8534,0.0,0.0,0.0,0.0,0.0,0.0,0.0,0.0,0.0,0.0,0.0,0.0,0.0,0.0,0.0,0.0,0.0,0.0,0.0,0.0,0.0,0.0,0.0,0.0,0.0,0.0,0.0,0.0,0.0,0.0,6.8318,7.0669,7.4091,7.822,7.433,7.1577,6.9722,0.0,0.0,0.0,0.0,0.0,0.0,0.0,0.0,0.0,0.0,0.0,6.4755,6.3438,6.3019,6.2899,6.2181,6.2002,6.1768,0.0,0.0,0.0,0.0,0.0,0.0,0.0,0.0,0.0,0.0,0.0,0.0,0.0,0.0,0.0,0.0,0.0,0.0,0.0,0.0,0.0,0.0,0.0,0.0,0.0,0.0,0.0,0.0,0.0,0.0,0.0,0.0,0.0,8.967,8.9569,8.8814,8.7153,8.6826,8.6575,8.6073,8.6023,8.6023,8.6023,8.6023,8.6023,8.6023,8.6023,8.6023,8.6023,8.6023,8.6023,8.6023,8.6023,8.6023,8.6023,8.6023,8.6324,8.6877,8.7429,8.7931,8.8534,0.0,0.0,0.0,0.0,0.0,0.0,0.0,0.0,0.0,0.0,0.0,0.0,0.0,0.0,0.0,0.0,0.0,0.0,0.0,0.0,0.0,0.0,0.0,0.0,0.0,0.0,0.0,0.0,0.0,6.143,6.6368,6.9654,7.2355,7.433,7.3373,7.2295,7.0979,6.7268,0.0,0.0,0.0,0.0,0.0,0.0,0.0,0.0,0.0,0.0,0.0,6.5114,6.4395,6.3558,6.2899,6.2421,6.2061,6.1822,6.1202,6.1351,0.0,0.0,0.0,0.0,0.0,0.0,0.0,0.0,0.0,0.0,0.0,0.0,0.0,0.0,0.0,0.0,0.0,0.0,0.0,0.0,0.0,0.0,0.0,0.0,0.0,0.0,0.0,0.0,0.0,0.0,8.8785,8.8785,8.8132,8.6776,8.6776,8.6525,8.6023,8.6023,8.6023,8.6023,8.6023,8.6023,8.6023,8.6023,8.6023,8.6023,8.6023,8.6023,8.6023,8.6023,8.6023,8.6023,8.6023,8.6123,8.6425,8.7278,8.778,8.8032,0.0,0.0,0.0,0.0,0.0,0.0,0.0,0.0,0.0,0.0,0.0,0.0,0.0,0.0,0.0,0.0,0.0,0.0,0.0,0.0,0.0,0.0,0.0,0.0,0.0,0.0,0.0,0.0,0.0,0.0,0.0,0.0,7.0979,7.2235,7.1996,0.0,0.0,0.0,0.0,6.6969,0.0,0.0,6.8884,0.0,0.0,0.0,0.0,0.0,0.0,0.0,0.0,6.5233,6.4575,6.3797,6.2963,6.2555,6.2381,6.272,6.431,0.0,0.0,0.0,0.0,0.0,0.0,0.0,0.0,0.0,0.0,0.0,0.0,0.0,0.0,0.0,0.0,0.0,0.0,0.0,0.0,0.0,0.0,0.0,0.0,0.0,0.0,0.0,0.0,0.0,8.8232,8.8032,8.7479,8.6525,8.6525,8.6374,8.6023,8.6023,8.6023,8.6023,8.6023,8.6023,8.6023,8.6023,8.6023,8.6023,8.6023,8.6023,8.6023,8.6023,8.6023,8.6023,8.6023,8.6123,8.6374,8.7278,8.768,8.8032,0.0,0.0,0.0,0.0,0.0,0.0,0.0,0.0,0.0,0.0,0.0,0.0,0.0,0.0,0.0,0.0,0.0,0.0,0.0,0.0,0.0,0.0,0.0,0.0,0.0,0.0,0.0,0.0,0.0,0.0,0.0,0.0,7.026,0.0,7.0799,7.1697,7.4629,0.0,0.0,7.0799,0.0,6.8345,6.7867,0.0,0.0,0.0,7.2176,7.1816,0.0,0.0,0.0,0.0,0.0,6.6071,6.4755,6.3427,6.3973,6.4277,0.0,0.0,0.0,0.0,0.0,0.0,0.0,0.0,0.0,0.0,0.0,0.0,0.0,0.0,0.0,0.0,0.0,0.0,0.0,0.0,0.0,0.0,0.0,0.0,0.0,0.0,0.0,0.0,0.0,8.8182,8.763,8.7027,8.6525,8.6023,8.6023,8.6023,8.6023,8.6023,8.6023,8.6023,8.6023,8.6023,8.6023,8.6023,8.6023,8.6023,8.6023,8.6023,8.6023,8.6023,8.6023,8.6023,8.6023,8.6324,8.6826,8.7379,8.7931,8.8484,0.0,0.0,0.0,0.0,0.0,0.0,0.0,0.0,0.0,0.0,0.0,0.0,0.0,0.0,0.0,0.0,0.0,0.0,0.0,0.0,0.0,0.0,0.0,0.0,0.0,0.0,0.0,0.0,0.0,0.0,0.0,0.0,0.0,0.0,7.0021,7.062,7.05,6.8704,0.0,0.0,7.0859,7.2295,0.0,0.0,0.0,0.0,0.0,7.5826,0.0,0.0,7.3133,6.9004,0.0,0.0,0.0,6.4516,6.4755,6.4875,6.3917,0.0,0.0,0.0,0.0,0.0,0.0,0.0,0.0,0.0,0.0,0.0,0.0,0.0,0.0,0.0,0.0,0.0,0.0,0.0,0.0,0.0,0.0,0.0,0.0,0.0,0.0,0.0,8.8109,8.763,8.7027,8.6525,8.6174,8.6023,8.6023,8.6023,8.6023,8.6023,8.6023,8.6023,8.6023,8.6023,8.6023,8.6023,8.6023,8.6023,8.6023,8.6023,8.6023,8.6023,8.6023,8.6023,8.6023,8.6073,8.6274,8.6776,8.7128,8.7379,0.0,0.0,0.0,0.0,0.0,0.0,0.0,0.0,0.0,0.0,0.0,0.0,0.0,0.0,0.0,0.0,0.0,0.0,0.0,0.0,0.0,0.0,0.0,0.0,0.0,0.0,0.0,0.0,0.0,0.0,0.0,0.0,0.0,0.0,0.0,0.0,0.0,0.0,0.0,0.0,7.2056,0.0,0.0,7.8639,7.9836,0.0,0.0,0.0,7.9896,8.0913,7.7322,0.0,0.0,0.0,0.0,0.0,6.6071,6.5832,0.0,0.0,0.0,0.0,0.0,0.0,0.0,6.9369,0.0,0.0,0.0,0.0,0.0,0.0,0.0,0.0,0.0,0.0,0.0,0.0,0.0,0.0,0.0,0.0,0.0,0.0,0.0,0.0,8.7957,8.7253,8.6475,8.6174,8.6023,8.6023,8.6023,8.6023,8.6023,8.6023,8.6023,8.6023,8.6023,8.6023,8.6023,8.6023,8.6023,8.6023,8.6023,8.6023,8.6023,8.6023,8.6023,8.6023,8.6023,8.6023,8.6073,8.6575,8.6776,8.6927,0.0,0.0,0.0,0.0,0.0,0.0,0.0,0.0,0.0,0.0,0.0,0.0,0.0,0.0,0.0,0.0,0.0,0.0,0.0,0.0,0.0,0.0,0.0,0.0,0.0,0.0,0.0,0.0,0.0,0.0,0.0,0.0,0.0,0.0,0.0,0.0,0.0,0.0,0.0,6.8585,7.3073,7.5288,0.0,0.0,8.3846,0.0,8.5521,8.5701,8.4624,8.4684,8.1153,0.0,0.0,0.0,0.0,0.0,6.7567,0.0,0.0,0.0,0.0,0.0,0.0,0.0,6.8326,6.6871,6.6442,0.0,0.0,0.0,0.0,0.0,0.0,0.0,0.0,0.0,0.0,0.0,0.0,0.0,0.0,0.0,0.0,0.0,8.9527,8.7899,8.7625,8.7198,8.6023,8.6023,8.5973,8.5922,8.5922,8.5922,8.5922,8.5922,8.5922,8.6023,8.6023,8.6023,8.6023,8.6023,8.6023,8.6023,8.6023,8.6023,8.6023,8.6023,8.6023,8.6023,8.6023,8.6023,8.6073,8.6525,8.6676,8.6877,0.0,0.0,0.0,0.0,0.0,0.0,0.0,0.0,0.0,0.0,0.0,0.0,0.0,0.0,0.0,0.0,0.0,0.0,0.0,0.0,0.0,0.0,0.0,0.0,0.0,0.0,0.0,0.0,0.0,0.0,0.0,0.0,0.0,0.0,0.0,0.0,0.0,0.0,0.0,6.9842,7.3432,0.0,0.0,8.5821,8.8454,9.0429,9.1626,9.1207,8.9531,0.0,8.3606,8.1093,0.0,0.0,0.0,0.0,0.0,0.0,0.0,0.0,0.0,0.0,0.0,0.0,6.2201,6.1821,6.294,0.0,0.0,0.0,0.0,0.0,0.0,0.0,0.0,0.0,0.0,0.0,0.0,0.0,0.0,0.0,0.0,0.0,8.9402,8.8393,8.7681,8.6793,8.6023,8.6023,8.5822,8.532,8.532,8.532,8.532,8.532,8.5571,8.6023,8.6023,8.6023,8.6023,8.6023,8.6023,8.6023,8.6023,8.6023,8.6023,8.6023,8.6023,8.6023,8.6023,8.6023,8.6023,8.6123,8.6174,8.6274,0.0,0.0,0.0,0.0,0.0,0.0,0.0,0.0,0.0,0.0,0.0,0.0,0.0,0.0,0.0,0.0,0.0,0.0,0.0,0.0,0.0,0.0,0.0,0.0,0.0,0.0,0.0,0.0,0.0,0.0,0.0,0.0,0.0,0.0,0.0,0.0,0.0,0.0,6.637,6.9004,7.5288,0.0,8.5222,8.989,9.2643,9.4199,9.4858,9.4618,9.3302,8.7975,8.5342,0.0,0.0,7.5707,7.439,0.0,7.0919,7.044,0.0,0.0,0.0,6.7175,0.0,0.0,0.0,6.3529,6.31,0.0,0.0,0.0,0.0,0.0,0.0,0.0,0.0,0.0,0.0,0.0,0.0,0.0,0.0,0.0,0.0,0.0,8.9103,8.8187,8.7306,8.6641,8.6023,8.6023,8.5722,8.5169,8.5119,8.4968,8.4717,8.4717,8.5019,8.5571,8.5571,8.5722,8.6023,8.6023,8.6023,8.6023,8.6023,8.5822,8.5571,8.5922,8.5822,8.5571,8.5922,8.6023,8.6023,8.6023,8.6023,8.6073,0.0,0.0,0.0,0.0,0.0,0.0,0.0,0.0,0.0,0.0,0.0,0.0,0.0,0.0,0.0,0.0,0.0,0.0,0.0,0.0,0.0,0.0,0.0,6.2959,0.0,0.0,0.0,0.0,0.0,0.0,0.0,0.0,0.0,0.0,0.0,0.0,0.0,0.0,0.0,6.9243,0.0,8.217,8.4743,9.1506,9.4379,9.5037,9.6414,9.6952,9.6055,9.0369,0.0,8.4983,8.0913,7.8579,0.0,0.0,0.0,0.0,0.0,0.0,0.0,0.0,0.0,6.6651,0.0,0.0,0.0,6.5271,0.0,0.0,0.0,0.0,0.0,0.0,0.0,0.0,0.0,0.0,0.0,0.0,0.0,0.0,0.0,0.0,8.7909,8.7338,8.649,8.5832,8.5772,8.5822,8.5571,8.4968,8.4868,8.4617,8.4165,8.4165,8.4416,8.4968,8.4968,8.532,8.5822,8.5822,8.5822,8.5822,8.5822,8.5521,8.5069,8.5571,8.5571,8.5219,8.5772,8.6023,8.6023,8.6023,8.6023,8.6073,0.0,0.0,0.0,0.0,0.0,0.0,0.0,0.0,0.0,0.0,0.0,0.0,0.0,0.0,0.0,0.0,0.0,0.0,6.6251,0.0,0.0,0.0,0.0,0.0,6.3079,0.0,0.0,0.0,0.0,0.0,0.0,0.0,0.0,0.0,6.3917,0.0,0.0,0.0,6.9004,0.0,7.9597,8.0135,0.0,8.5881,9.007,9.2643,9.6833,9.8329,9.7551,0.0,9.0249,8.7915,0.0,8.0734,8.1572,0.0,0.0,0.0,0.0,0.0,0.0,0.0,7.04,0.0,0.0,0.0,6.2279,6.1488,0.0,0.0,0.0,0.0,0.0,0.0,0.0,0.0,0.0,0.0,0.0,0.0,0.0,0.0,0.0,0.0,0.0,8.6056,8.3693,8.3168,8.5069,8.5219,8.4968,8.4416,8.3914,8.3663,8.3562,8.3562,8.3864,8.4416,8.4416,8.4717,8.5219,8.5219,8.5219,8.5219,8.5219,8.4918,8.4466,8.4968,8.5219,8.5219,8.5772,8.6023,8.6023,8.6023,8.6023,8.6023,0.0,0.0,0.0,0.0,0.0,0.0,0.0,0.0,0.0,0.0,0.0,0.0,0.0,0.0,0.0,0.0,0.0,0.0,0.0,0.0,0.0,0.0,0.0,0.0,0.0,0.0,0.0,0.0,6.2421,0.0,0.0,0.0,0.0,0.0,6.4395,0.0,6.7388,0.0,0.0,0.0,0.0,0.0,0.0,8.9591,9.5157,9.7012,9.8987,9.9645,9.8927,0.0,9.1386,0.0,0.0,0.0,0.0,0.0,0.0,0.0,0.0,0.0,0.0,0.0,0.0,0.0,0.0,0.0,6.4907,0.0,0.0,0.0,0.0,0.0,0.0,0.0,0.0,0.0,0.0,0.0,0.0,0.0,0.0,0.0,0.0,0.0,0.0,0.0,0.0,8.2043,8.3562,8.4014,8.4064,8.3864,8.3612,8.3361,8.301,8.301,8.3311,8.3864,8.3864,8.4165,8.4667,8.4667,8.4667,8.4667,8.4667,8.4567,8.4366,8.4918,8.5119,8.5219,8.5772,8.6023,8.6023,8.6023,8.6023,8.6023,0.0,0.0,0.0,0.0,0.0,0.0,0.0,0.0,0.0,0.0,0.0,0.0,7.1457,7.2834,0.0,0.0,0.0,7.3432,0.0,0.0,6.7268,0.0,0.0,0.0,0.0,0.0,0.0,0.0,0.0,0.0,0.0,0.0,0.0,0.0,0.0,6.7328,6.9901,0.0,0.0,7.5108,8.0016,8.229,8.3786,9.3302,9.8389,10.0483,10.0483,10.0603,10.0064,9.5396,9.2583,0.0,9.0848,0.0,0.0,0.0,0.0,0.0,7.6544,0.0,0.0,0.0,0.0,0.0,0.0,0.0,0.0,0.0,0.0,0.0,0.0,0.0,0.0,0.0,0.0,0.0,0.0,0.0,0.0,0.0,0.0,0.0,0.0,0.0,0.0,0.0,7.9608,7.9709,8.1604,8.2156,8.2708,8.3462,8.3361,8.316,8.2909,8.2759,8.2859,8.3261,8.3261,8.3562,8.4064,8.4064,8.4064,8.4064,8.4265,8.4215,8.4165,8.4818,8.5119,8.5219,8.5772,8.6023,8.6023,8.6023,8.6023,8.6023,5.3159,5.2305,0.0,0.0,0.0,0.0,0.0,0.0,0.0,0.0,0.0,0.0,0.0,0.0,0.0,0.0,0.0,8.0195,7.9477,0.0,6.9303,0.0,0.0,0.0,0.0,0.0,0.0,0.0,0.0,0.0,0.0,0.0,0.0,0.0,0.0,6.9363,7.1936,7.4629,7.9058,8.4444,8.6599,9.1626,9.7431,0.0,9.5995,10.0483,10.0483,0.0,0.0,9.6114,9.4499,0.0,0.0,0.0,0.0,0.0,0.0,0.0,0.0,0.0,0.0,7.5527,0.0,0.0,0.0,0.0,6.9457,0.0,0.0,0.0,0.0,0.0,0.0,0.0,0.0,0.0,0.0,0.0,0.0,0.0,0.0,0.0,0.0,0.0,0.0,7.6779,7.4422,7.4724,7.9193,7.9495,8.075,8.3412,8.296,8.296,8.3462,8.296,8.2658,8.2708,8.2708,8.301,8.3512,8.3512,8.3512,8.3562,8.4064,8.4014,8.3612,8.4717,8.5119,8.5219,8.5772,8.6023,8.6023,8.6023,8.6023,8.6023,0.0,0.0,0.0,0.0,0.0,0.0,0.0,6.0505,0.0,0.0,0.0,0.0,0.0,0.0,8.7018,0.0,0.0,8.5641,8.3187,7.9357,0.0,0.0,0.0,6.8465,0.0,0.0,0.0,0.0,0.0,0.0,0.0,0.0,0.0,0.0,0.0,6.9782,0.0,0.0,0.0,0.0,0.0,9.3062,9.7252,0.0,0.0,10.1201,10.168,10.1979,0.0,9.9825,9.7431,9.5336,9.5695,9.3002,8.9771,9.0429,9.001,0.0,0.0,0.0,8.8574,8.1512,0.0,0.0,0.0,0.0,0.0,0.0,0.0,0.0,0.0,0.0,0.0,0.0,0.0,0.0,0.0,0.0,0.0,0.0,0.0,0.0,0.0,0.0,0.0,7.2547,7.0936,7.1591,0.0,7.6781,7.8088,8.0147,8.1102,8.1654,8.1855,8.2005,8.2106,8.2106,8.2106,8.2407,8.296,8.2558,8.2608,8.296,8.3512,8.3864,8.4064,8.4818,8.537,8.5722,8.5922,8.6023,8.6023,8.6023,8.6023,8.6023,5.3996,0.0,0.0,0.0,0.0,0.0,0.0,0.0,0.0,0.0,7.7023,0.0,8.8634,0.0,9.1626,0.0,9.3302,9.1327,8.612,8.4863,0.0,7.84,7.5766,0.0,0.0,0.0,0.0,0.0,0.0,6.3797,0.0,0.0,0.0,0.0,0.0,0.0,0.0,0.0,8.3666,0.0,0.0,9.5935,0.0,0.0,10.0663,0.0,0.0,10.2518,10.2398,10.168,9.9765,9.791,9.9107,9.6114,9.2404,9.3661,9.2943,9.1566,9.0369,9.1985,0.0,8.6419,8.5521,0.0,7.6425,0.0,0.0,0.0,0.0,0.0,0.0,0.0,0.0,0.0,0.0,0.0,0.0,0.0,0.0,0.0,0.0,0.0,0.0,0.0,6.7106,6.863,6.7775,6.8446,0.0,0.0,7.5628,7.7888,7.9746,8.0901,8.1302,8.1453,8.1553,8.1553,8.1553,8.1805,8.2357,8.1955,8.2106,8.2708,8.3462,8.3964,8.4416,8.5169,8.5671,8.6023,8.6023,8.5922,8.5722,8.5922,8.6023,8.6023,0.0,0.0,0.0,0.0,5.3856,0.0,0.0,0.0,6.9303,0.0,7.9716,8.4564,9.0608,9.408,9.5995,9.6055,9.8867,0.0,8.8993,9.001,0.0,0.0,8.1392,8.0614,7.9297,0.0,0.0,0.0,0.0,0.0,0.0,0.0,0.0,0.0,6.7388,0.0,7.7143,8.1751,8.7616,9.4139,9.8628,10.0004,9.9586,10.0962,0.0,9.8927,10.1501,10.2518,10.2398,10.174,10.1501,10.1201,10.0004,9.9107,9.8329,9.7072,9.7132,9.6952,9.384,9.39,9.396,9.007,0.0,0.0,0.0,0.0,8.2828,0.0,0.0,0.0,0.0,0.0,0.0,0.0,0.0,0.0,0.0,0.0,0.0,0.0,0.0,0.0,0.0,6.3776,6.3883,6.4691,6.4632,6.5327,0.0,0.0,7.3217,7.6532,7.8892,8.0599,8.1604,8.1202,8.1001,8.0951,8.1001,8.1252,8.1754,8.1754,8.2106,8.2708,8.3813,8.4315,8.4416,8.5521,8.5973,8.5973,8.5973,8.5621,8.5219,8.5772,8.5973,8.6023,5.7469,0.0,5.7708,0.0,0.0,5.841,0.0,0.0,0.0,0.0,8.5869,9.2428,9.989,10.0667,10.1506,10.332,10.2945,0.0,0.0,0.0,0.0,9.3302,8.9471,8.7018,8.618,8.0016,0.0,7.4151,0.0,0.0,6.7148,0.0,0.0,0.0,0.0,0.0,7.7083,8.1272,8.8215,9.6653,9.8329,9.8927,0.0,0.0,10.0543,9.9526,10.168,10.2518,10.2458,10.2279,10.1561,10.0782,10.0902,10.0184,9.9167,9.8867,9.9226,9.9526,9.8688,9.8688,9.8269,9.5277,9.3421,9.1267,0.0,0.0,0.0,0.0,0.0,0.0,0.0,0.0,0.0,0.0,0.0,0.0,0.0,0.0,0.0,0.0,0.0,0.0,5.996,6.0692,6.1119,6.1438,6.0474,6.13,0.0,0.0,0.0,7.3117,7.6933,7.8892,7.8741,7.9846,8.0198,7.9796,8.0248,8.07,8.1252,8.1252,8.1503,8.2106,8.3211,8.3914,8.4366,8.5069,8.537,8.537,8.537,8.532,8.5169,8.532,8.5671,8.6023,5.8896,0.0,0.0,0.0,0.0,0.0,6.4661,0.0,0.0,8.1553,8.7809,0.0,9.9827,10.2541,10.4531,10.6055,10.5806,0.0,0.0,0.0,0.0,9.7192,9.581,9.4012,9.1746,8.5858,0.0,7.7622,0.0,0.0,6.7508,0.0,0.0,0.0,0.0,7.026,0.0,8.2589,8.9591,9.6414,9.8209,0.0,0.0,10.1261,10.1261,10.0603,10.1979,10.2518,10.2458,10.2159,10.1561,10.0962,10.0962,10.0483,9.9945,9.9945,10.0364,10.0902,10.0902,10.1142,10.1022,9.9526,9.8329,9.6473,9.2583,9.2583,9.2643,0.0,0.0,0.0,0.0,0.0,0.0,0.0,0.0,0.0,0.0,0.0,0.0,0.0,5.8444,0.0,5.8183,5.9385,5.9867,5.9201,5.9385,5.9865,0.0,0.0,0.0,7.0054,7.4674,7.7285,7.7687,7.8892,7.9193,7.8641,7.8942,7.9645,8.065,8.0449,8.1001,8.2206,8.2859,8.3562,8.4366,8.4918,8.532,8.547,8.5219,8.532,8.547,8.5219,8.547,8.6023,0.0,0.0,0.0,0.0,0.0,0.0,0.0,7.2261,0.0,8.3386,0.0,9.3471,9.69,10.2486,10.6189,0.0,0.0,10.6002,10.1155,10.496,10.4591,9.8029,10.0914,10.0612,9.647,9.2052,0.0,0.0,0.0,0.0,0.0,0.0,0.0,0.0,0.0,0.0,0.0,8.4444,9.0788,0.0,9.797,9.9765,10.0782,10.192,10.2099,10.168,10.2279,10.2518,10.2398,10.168,10.1381,10.1261,10.0782,10.0603,10.0483,10.0603,10.1082,10.1561,10.1501,10.1979,10.2518,10.2518,10.2518,10.1441,9.7431,9.6473,9.6114,9.4858,9.2344,9.1506,0.0,0.0,0.0,0.0,0.0,0.0,0.0,0.0,0.0,0.0,0.0,0.0,0.0,5.8967,5.9241,5.7811,5.9377,5.9444,0.0,0.0,0.0,6.7744,7.2514,0.0,7.7586,0.0,7.8189,7.7687,7.7687,7.849,7.9997,7.9595,8.0499,8.2457,8.2508,8.3211,8.4315,8.4818,8.537,8.5822,8.532,8.547,8.5822,8.542,8.5571,8.6023,0.0,0.0,0.0,0.0,0.0,0.0,0.0,8.5696,8.9698,9.1722,9.7839,0.0,10.4553,10.589,10.7593,10.9619,10.96,0.0,0.0,0.0,0.0,10.4486,10.388,10.2729,10.085,9.4668,8.9274,0.0,0.0,0.0,0.0,0.0,0.0,0.0,0.0,0.0,7.7562,8.4205,0.0,9.402,9.6773,9.9226,10.1321,10.1561,10.192,10.2339,10.2458,10.2518,10.2398,10.168,10.1082,10.0782,10.1142,10.0902,10.0603,10.1142,10.18,10.2159,10.168,10.1979,10.2518,10.2518,10.2518,10.2279,10.1501,10.1261,10.1082,10.0244,9.9645,9.785,9.3302,0.0,0.0,0.0,0.0,0.0,0.0,0.0,0.0,0.0,0.0,0.0,0.0,0.0,0.0,0.0,0.0,0.0,0.0,0.0,0.0,0.0,0.0,0.0,0.0,0.0,7.7787,7.7687,7.7687,7.8088,7.8842,7.9193,8.0097,8.1353,8.1754,8.2859,8.4315,8.4416,8.4818,8.532,8.5169,8.5219,8.532,8.5722,8.5922,8.6023,0.0,0.0,0.0,0.0,0.0,0.0,0.0,9.6958,0.0,9.4265,9.726,10.069,10.2214,10.5529,10.8652,11.0926,11.0918,11.0665,11.0665,11.0229,10.8749,10.6493,10.6012,0.0,10.2486,9.7912,9.2023,8.491,0.0,0.0,0.0,0.0,0.0,0.0,0.0,7.1398,0.0,0.0,0.0,9.1865,9.5516,9.8628,10.1082,10.174,10.2219,10.2458,10.2099,10.1979,10.192,10.1561,10.1082,10.0603,10.1261,10.1261,10.1142,10.18,10.2219,10.2398,10.2099,10.2279,10.2518,10.2518,10.2518,10.2518,10.2518,10.2518,10.2279,10.1561,10.1441,9.9466,9.2823,8.6,0.0,0.0,0.0,0.0,0.0,0.0,0.0,0.0,0.0,0.0,0.0,0.0,0.0,0.0,0.0,0.0,0.0,0.0,0.0,0.0,0.0,0.0,0.0,0.0,0.0,7.5567,7.693,7.8139,7.8992,7.8942,7.9846,8.1453,8.1403,8.2357,8.3914,8.4215,8.4667,8.5119,8.5119,8.532,8.5621,8.5922,8.6023,8.6023,0.0,7.0799,0.0,0.0,8.5778,0.0,0.0,10.4604,10.6822,9.7396,9.7662,9.9162,10.0102,10.5273,10.9459,11.1491,11.1676,11.1485,11.1102,11.1102,10.9932,10.7356,10.7547,10.6324,10.3517,10.0699,9.4787,0.0,0.0,0.0,0.0,0.0,0.0,0.0,0.0,0.0,0.0,0.0,8.606,9.0668,9.5157,9.8389,10.0603,10.18,10.2279,10.2159,10.1501,10.1201,10.1082,10.1381,10.1082,10.0603,10.1261,10.1441,10.1561,10.2099,10.2398,10.2458,10.2279,10.2398,10.2518,10.2518,10.2518,10.2518,10.2518,10.2518,10.2398,10.18,10.1561,9.9526,9.3182,8.8574,0.0,0.0,0.0,0.0,0.0,0.0,0.0,0.0,0.0,0.0,5.8691,0.0,0.0,0.0,0.0,5.8004,5.7046,5.9135,0.0,0.0,0.0,6.9683,7.1781,0.0,7.3975,0.0,7.515,7.6708,7.7693,7.787,7.8923,8.0766,8.0941,8.1955,8.3512,8.4064,8.4667,8.5119,8.5119,8.547,8.6023,8.6023,8.6023,8.6023,0.0,0.0,0.0,0.0,0.0,0.0,0.0,10.6059,10.9682,10.6265,10.7358,10.8044,10.6686,10.829,11.0198,11.223,11.2414,11.2414,11.2353,11.2414,11.0993,10.8351,10.7613,10.6812,10.5155,10.2564,9.7367,0.0,0.0,7.7575,7.0489,6.631,0.0,0.0,0.0,0.0,0.0,8.3427,8.8095,9.2703,9.6713,9.9226,10.0603,10.1261,10.1561,10.1501,10.0782,10.0184,9.9885,10.1082,10.1082,10.0603,10.1261,10.1441,10.1501,10.1561,10.1979,10.2398,10.174,10.1979,10.2518,10.2518,10.2518,10.2518,10.2518,10.2518,10.2458,10.2398,10.186,9.9825,9.4379,9.4439,9.2703,0.0,0.0,0.0,0.0,0.0,7.9306,7.2112,0.0,0.0,0.0,0.0,0.0,0.0,0.0,5.7224,5.5867,5.8723,6.094,6.2053,0.0,6.912,6.9598,7.2654,0.0,7.1068,7.128,7.1604,7.2373,7.4451,7.6129,7.729,7.9957,8.1955,8.3512,8.4064,8.4667,8.5119,8.5119,8.547,8.6023,8.6023,8.6023,8.6023,0.0,0.0,0.0,0.0,0.0,0.0,0.0,11.0581,11.2775,11.1432,11.0265,10.896,10.7487,10.8659,11.026,11.2291,11.2476,11.2722,11.3092,11.2291,11.1183,10.9706,10.8597,10.7366,10.6012,10.4103,9.9501,0.0,0.0,7.9483,7.2803,6.8122,0.0,0.0,0.0,7.6604,8.1452,8.612,9.0309,9.4139,9.767,9.9885,10.1082,10.1381,10.1441,10.1381,10.0304,10.0004,10.0184,10.0663,10.0663,10.0663,10.18,10.2099,10.2099,10.2099,10.2279,10.2398,10.2159,10.2279,10.2518,10.2518,10.2518,10.2518,10.2518,10.2518,10.2518,10.2518,10.2279,10.1321,9.8808,9.6354,9.4139,0.0,0.0,0.0,0.0,0.0,0.0,7.6365,0.0,6.8872,0.0,0.0,0.0,0.0,0.0,5.8525,5.7023,5.9798,6.2019,6.3047,0.0,6.8891,7.0127,7.1935,7.2149,7.0901,7.1498,7.1728,7.1682,7.3144,7.5141,7.7198,8.0142,8.1855,8.2508,8.2708,8.3512,8.4667,8.4667,8.5219,8.6023,8.6023,8.6023,8.6023,9.3436,0.0,9.4199,0.0,10.2587,10.4943,11.1022,11.3598,11.4502,11.3912,11.2021,11.0033,10.8642,10.909,11.0383,11.2599,11.2599,11.2907,11.3707,11.2722,11.1614,11.0506,10.9398,0.0,10.6997,10.5519,10.1529,9.5281,8.9391,0.0,7.7453,0.0,0.0,0.0,7.7224,8.0674,8.5043,8.9112,9.2524,9.5456,9.8329,10.0064,10.0902,10.0902,10.0902,10.0782,9.9825,9.9825,10.0304,10.0663,10.0782,10.0962,10.2099,10.2518,10.2518,10.2518,10.2518,10.2518,10.2518,10.2638,10.2698,10.2518,10.2638,10.2698,10.2518,10.2518,10.2518,10.2518,10.2518,10.2398,10.186,9.8568,9.6174,9.7072,0.0,0.0,0.0,0.0,0.0,7.9268,7.427,6.9704,6.6116,0.0,0.0,0.0,0.0,0.0,5.9014,6.1033,0.0,0.0,0.0,0.0,0.0,7.178,7.2126,7.0901,7.1912,7.1753,7.0828,7.1642,7.3994,7.7246,7.955,8.1015,8.1805,8.1805,8.2708,8.4064,8.4265,8.4918,8.5772,8.5922,8.6023,8.6023,9.9119,10.1352,10.399,10.92,11.1365,11.2583,11.3395,11.4207,11.43,11.3249,11.3824,11.3387,11.1338,11.0254,11.0568,11.3276,11.2907,11.3092,11.4446,11.3892,11.2599,0.0,0.0,10.909,10.8413,10.6381,10.398,10.121,0.0,0.0,8.5881,0.0,7.8952,8.1322,8.292,8.5821,8.9771,9.2404,9.4678,9.6713,9.8688,9.9526,9.9526,9.9526,9.9526,9.9526,9.9526,9.9526,9.9705,10.0962,10.1441,10.1561,10.2279,10.2518,10.2518,10.2518,10.2518,10.2518,10.2518,10.2937,10.3236,10.2638,10.2937,10.3236,10.2638,10.2518,10.2518,10.2518,10.2518,10.2518,10.2518,10.186,10.0364,9.7132,0.0,0.0,0.0,0.0,0.0,8.0026,7.6927,7.3497,6.8706,0.0,0.0,0.0,0.0,0.0,0.0,0.0,0.0,6.2428,6.6272,0.0,6.752,7.2508,7.364,7.0901,7.1912,7.1061,6.8938,6.9418,7.2315,7.6717,7.7246,7.9072,8.1805,8.1805,8.2457,8.3562,8.4064,8.4667,8.5219,8.5822,8.6023,8.6023,10.5817,10.6697,10.7779,10.9944,11.1501,11.2718,11.353,11.468,11.5549,11.5632,11.4773,11.4345,11.4892,11.2352,11.106,0.0,11.1922,11.2168,0.0,11.2538,11.1614,11.0506,11.026,10.9582,10.8413,10.829,10.6627,10.3426,0.0,0.0,0.0,8.6175,8.6306,8.8668,8.9279,9.118,9.384,9.5516,9.6892,9.803,9.9586,10.0184,10.0124,9.9645,9.9526,9.9526,9.9526,9.9765,10.0304,10.1201,10.2099,10.2817,10.2997,10.2817,10.2518,10.2518,10.2518,10.2518,10.2518,10.2638,10.2698,10.2518,10.2638,10.2698,10.2518,10.2518,10.2518,10.2518,10.2518,10.2518,10.2518,10.2279,10.168,10.0184,9.8808,0.0,0.0,0.0,8.5783,8.1565,7.7915,7.4513,0.0,7.0387,0.0,0.0,0.0,0.0,0.0,0.0,0.0,0.0,6.8406,0.0,7.2636,7.4236,7.4664,7.3792,7.2373,7.0971,6.9194,7.0401,7.1597,7.2546,7.5662,7.7677,7.9023,8.0617,8.2156,8.3512,8.3663,8.4315,8.5169,8.532,8.5671,8.6023,10.9403,11.008,11.0553,11.1027,11.2312,11.3463,11.3936,11.5019,11.6034,11.644,11.5482,11.5106,11.5944,11.4138,0.0,11.2497,11.1623,11.1491,11.2414,11.186,11.1183,11.0506,11.0506,10.9952,10.8782,0.0,0.0,10.5519,10.1395,9.7516,9.3761,9.2643,9.2956,9.476,9.4439,9.5196,9.7066,9.7252,9.791,9.8568,9.9406,9.9765,9.9705,9.9286,9.9286,9.9526,9.9765,10.0304,10.0962,10.162,10.2578,10.3416,10.3416,10.3296,10.3176,10.2937,10.2698,10.2518,10.2518,10.2698,10.2817,10.2578,10.2698,10.2817,10.2578,10.2518,10.2518,10.2518,10.2518,10.2518,10.2518,10.2518,10.2219,10.1261,9.9645,9.7371,9.396,0.0,8.4504,8.0734,0.0,0.0,0.0,7.368,0.0,0.0,0.0,0.0,0.0,0.0,0.0,6.7325,7.0121,0.0,7.5061,7.583,7.6148,7.6089,7.4124,7.2712,7.1732,7.1151,7.089,7.1116,7.3197,7.5303,7.7413,7.8943,8.0851,8.2909,8.3311,8.3914,8.4567,8.4968,8.537,8.5722,11.0418,11.1568,0.0,0.0,11.3801,0.0,11.468,11.5289,11.5831,11.5831,11.5831,11.5714,11.5594,11.548,11.5022,11.4548,0.0,0.0,0.0,11.1799,11.1183,11.0568,11.0506,0.0,10.9644,10.8967,10.829,10.7612,10.3672,10.1764,10.1702,9.9453,9.8865,9.9966,9.8426,9.8438,9.9346,9.8089,9.797,9.8508,9.8568,9.8568,9.8508,9.8628,9.8987,9.9586,10.0304,10.0962,10.1561,10.2279,10.2937,10.3476,10.3416,10.3895,10.4313,10.3595,10.2997,10.2578,10.2518,10.2937,10.3236,10.2638,10.2997,10.3236,10.2638,10.2518,10.2518,10.227,10.2518,10.2518,10.227,10.2458,10.1979,10.0663,9.9286,9.6713,9.2105,8.7676,8.3128,0.0,0.0,0.0,0.0,7.6296,7.6238,0.0,0.0,0.0,0.0,0.0,6.646,6.9122,7.1571,7.3736,7.5377,7.7486,7.8239,7.7687,7.6627,7.6015,7.5639,7.1778,7.0937,7.2073,7.0581,7.2315,7.6336,7.703,7.8856,8.1692,8.2794,8.3245,8.3612,8.4717,8.5119,8.5219,0.0,0.0,11.2651,11.3192,11.4072,11.468,11.468,11.5289,11.5831,11.5831,11.5831,11.6225,11.7262,11.626,11.5825,11.6792,11.4697,11.2992,11.1866,11.1614,11.1429,11.1306,11.0752,11.0691,11.0998,11.0875,11.0383,10.9767,10.7182,10.6012,10.5889,10.4725,10.3993,10.3512,10.26,10.1697,10.0673,9.9829,9.9168,9.8568,9.9047,9.8987,9.8628,9.9645,9.9825,9.9645,10.0782,10.1381,10.1561,10.2279,10.3236,10.4074,10.3595,10.3895,10.4313,10.3595,10.3296,10.3117,10.2638,10.2578,10.2698,10.2518,10.2997,10.3236,10.2638,10.2877,10.2678,10.0307,10.1265,10.2082,10.0248,10.0791,10.1441,10.0603,9.8149,9.4858,9.0728,8.7856,8.4684,0.0,8.0734,8.0674,7.9537,7.9662,7.8834,0.0,0.0,0.0,0.0,7.0502,7.0788,7.1654,7.3554,7.5457,7.7084,7.8038,7.8239,7.7687,7.7777,7.6993,7.5064,7.474,7.3187,7.0889,7.1918,7.223,7.1966,7.3886,7.6465,7.9225,7.9905,8.1539,8.3562,8.4265,8.4818,8.5219,11.1577,11.1258,11.1094,11.2704,11.3589,11.4207,11.5076,11.5492,11.5831,11.5831,11.5831,11.644,11.7928,11.7246,11.6861,11.7468,11.4927,11.2847,11.1933,11.1069,11.0691,11.0998,11.0691,11.0691,11.0998,11.0998,11.0691,11.0013,10.8905,10.8167,10.7797,10.7182,10.6323,10.5465,10.461,10.3334,10.1941,10.0793,9.9649,9.8987,9.9047,9.8867,9.8628,9.9645,10.0004,10.0064,10.1082,10.168,10.2039,10.2698,10.3595,10.4373,10.4313,10.4613,10.4732,10.4074,10.3416,10.2937,10.2578,10.2698,10.2997,10.3296,10.3416,10.3296,10.2997,10.212,10.0986,9.9474,9.9416,9.9416,9.9221,9.9662,9.9726,9.9164,9.5875,9.1925,8.7975,8.5462,0.0,8.0614,8.229,8.3247,8.223,8.3786,8.3359,7.984,0.0,0.0,7.4125,7.4852,7.4487,7.2525,7.4659,7.6259,7.6933,7.7486,7.7888,7.8088,7.839,7.8125,7.7325,7.6564,7.5378,7.3664,7.3611,7.281,7.1831,7.3351,7.4957,7.6387,7.6906,7.8093,7.9998,8.1934,8.287,8.3264,11.0975,10.9944,10.967,11.1486,11.261,11.3688,11.531,11.582,11.6034,11.6101,11.6101,11.671,11.8131,11.8266,11.8137,11.7946,11.4834,11.2719,11.2377,11.0694,10.9952,11.0568,11.0568,11.0506,11.0629,11.0568,11.026,10.9767,10.9582,10.9152,10.8597,10.7859,10.712,10.6381,10.5404,10.4187,10.2971,10.1336,10.019,9.9648,9.8987,9.8748,9.8748,9.9526,10.0184,10.0723,10.1381,10.1979,10.2578,10.3236,10.3835,10.4493,10.5091,10.5331,10.5271,10.4493,10.3476,10.2578,10.2518,10.2937,10.3535,10.4134,10.3895,10.3535,10.3296,10.1488,9.9727,9.883,9.759,9.6992,9.838,9.8331,9.7701,9.7133,9.3302,8.8873,8.4743,0.0,8.1093,8.0375,8.3427,8.5402,8.4983,8.7796,8.8095,8.4384,8.4464,8.2886,0.0,7.8807,7.7385,7.3324,7.5652,7.6708,7.6281,7.6783,7.7486,7.839,7.8591,7.9093,7.9947,7.8306,7.7532,7.7438,7.5524,7.4145,7.3243,7.3481,7.3664,7.3932,7.399,7.4763,7.5766,7.9056,8.034,8.1208,11.214,11.1596,11.1396,11.0946,11.2094,11.3581,11.4332,11.5751,11.6981,11.7725,11.7725,11.8131,11.8875,11.9011,11.9266,11.9857,11.7986,11.5664,11.3188,11.1378,11.0629,11.1306,11.0814,11.0752,11.1306,11.0752,11.0691,11.1183,11.0075,10.9398,10.9275,10.8597,10.7612,10.6381,10.6258,10.5159,10.3454,10.2849,10.1578,10.007,10.0187,9.9825,9.9466,10.0663,10.1261,10.1381,10.2099,10.2398,10.2578,10.3236,10.3835,10.4433,10.4493,10.4912,10.5211,10.3895,10.3416,10.3117,10.2638,10.2937,10.3416,10.3535,10.3895,10.4014,10.2877,10.2748,10.1532,9.7306,9.759,9.8183,9.6792,9.6609,9.6241,9.5225,9.1626,8.7197,8.211,0.0,8.3666,8.2469,8.6659,8.989,9.0369,8.995,8.983,9.019,8.5874,8.295,8.2335,7.974,7.7705,7.6149,7.7434,7.7878,7.7436,7.7536,7.7637,7.7837,7.8792,7.9093,7.8842,8.0279,7.9813,7.7487,7.7702,7.6293,7.3573,7.165,7.21,7.371,7.2229,7.3131,7.5493,7.7009,7.88,8.0983,11.1871,11.059,10.936,10.9689,11.0383,11.1761,11.3909,11.5306,11.6539,11.7847,11.8131,11.8402,11.9078,11.9214,11.9484,12.0161,11.8552,11.7086,11.5756,11.3049,11.1253,11.0937,11.0998,11.1183,11.1491,11.1183,11.0814,11.0383,11.0506,11.0198,10.9459,10.9152,10.8474,10.7489,10.7489,10.657,10.4858,10.4127,10.2911,10.1451,10.097,10.0247,9.9645,10.0962,10.1261,10.1082,10.2099,10.2518,10.2698,10.4014,10.4433,10.4613,10.569,10.575,10.5331,10.4732,10.4014,10.3416,10.3476,10.4014,10.4493,10.4493,10.4433,10.4194,10.3236,10.2226,10.0621,9.6704,9.6065,9.5769,9.441,9.4469,9.4486,9.4445,8.9763,0.0,0.0,8.1683,8.1332,8.2118,8.6547,9.0099,9.1452,9.1605,9.1349,9.0211,8.7657,8.4792,8.1704,8.0409,7.9117,7.7513,7.764,7.7325,7.7232,7.7033,7.7134,7.7687,7.854,7.9243,7.9896,8.1202,8.1015,7.9912,8.0454,7.8716,7.5321,7.5003,7.4384,7.371,7.1774,7.2031,7.3484,7.4466,7.5803,7.7286,11.1664,10.9536,10.7977,10.8318,10.8681,11.0055,11.3315,11.4834,11.6438,11.8455,11.8605,11.8725,11.8945,11.925,11.9604,11.9974,11.8909,11.8079,11.7401,11.4938,11.2796,11.0945,11.0941,11.1122,11.1306,11.1306,11.0814,10.9952,11.0814,11.0814,10.9952,10.9582,10.909,10.8413,10.8413,10.7674,10.6198,10.5224,10.4064,10.2772,10.1695,10.073,10.0064,10.1082,10.1261,10.1082,10.2099,10.2578,10.2997,10.4613,10.4912,10.4912,10.6588,10.6468,10.563,10.5451,10.4732,10.4014,10.4493,10.5032,10.5451,10.5451,10.4912,10.4003,10.2965,10.1322,9.9014,9.5896,9.4327,9.329,9.2802,9.2457,9.2419,9.2708,0.0,0.0,0.0,8.0858,8.0202,8.1933,8.5811,8.9049,9.0719,9.1864,9.1337,8.8707,8.8118,8.577,8.1371,8.1013,8.0348,7.8884,7.7845,7.7217,7.702,7.6878,7.7335,7.8088,7.8792,7.9796,8.1051,8.1704,8.1955,8.1855,8.2257,8.0752,7.7814,7.7944,7.6827,7.4782,7.2683,7.2305,7.2969,7.3149,7.3692,7.4767,11.2118,11.0849,10.9433,10.7095,10.7868,10.9905,11.2503,11.492,11.7304,11.9874,12.0093,11.9753,11.885,11.9578,11.982,11.885,11.9557,11.9128,11.6765,11.7043,11.5636,11.2251,11.0448,10.989,11.0568,11.0568,11.0814,11.1368,11.0814,11.0814,11.1306,11.0075,10.909,10.8413,10.8413,10.8043,10.7183,10.608,10.5102,10.3882,10.2605,10.1691,10.1381,10.1441,10.186,10.2398,10.2458,10.2877,10.3476,10.4194,10.4912,10.551,10.6229,10.6408,10.6229,10.563,10.5331,10.5331,10.5331,10.5391,10.5451,10.5451,10.4912,10.3619,10.0913,9.9881,9.8043,9.3735,9.2957,9.2748,9.2693,9.1228,8.9694,8.8139,0.0,0.0,7.9914,8.2106,8.3931,8.3679,8.604,8.7966,8.8755,8.8941,8.8659,8.7741,8.6068,8.4661,8.363,8.1774,8.0857,8.0661,7.9658,7.8616,7.7578,7.8644,7.9049,7.9294,8.0348,8.0901,8.1051,8.2106,8.2307,8.1805,8.1855,8.1291,8.0529,7.8398,7.7775,7.7771,7.5292,7.4992,7.5724,7.3707,7.4589,7.6591,11.3686,11.2053,11.0704,10.8897,10.8689,10.9714,11.3075,11.4659,11.6625,11.9924,12.0702,12.0426,11.8822,11.8943,11.9036,11.866,11.8703,11.8441,11.8235,11.7438,11.5642,11.2935,11.0756,10.9767,11.0506,11.0506,11.0568,11.0875,11.0998,11.1245,11.1491,11.0568,11.0198,11.0321,10.9459,10.8965,10.8591,10.7611,10.6198,10.4785,10.3687,10.2778,10.1501,10.1979,10.1979,10.192,10.2398,10.2638,10.2997,10.4014,10.4613,10.4972,10.6109,10.6408,10.6408,10.6588,10.6647,10.6647,10.6647,10.6348,10.581,10.5032,10.4613,10.356,10.0193,9.9686,9.8445,9.3582,9.3019,9.276,9.095,9.0568,9.0197,8.9585,0.0,8.6242,8.5702,8.4253,8.393,8.5362,8.6407,8.7342,8.8332,8.8877,8.8342,8.6597,8.578,8.4247,8.2039,8.1262,8.0871,8.0871,8.0831,8.0342,7.9296,7.9302,7.9607,7.9896,8.0348,8.07,8.1051,8.1453,8.1353,8.085,8.1202,8.085,8.0097,8.0205,8.0274,8.0306,7.8488,7.831,7.8792,7.6728,7.6444,7.7514,11.5063,11.3606,11.2149,11.1438,11.009,11.0289,11.3462,11.4446,11.62,11.9423,12.0734,12.0897,11.9419,11.9124,11.8829,11.8173,11.7515,11.7373,11.8235,11.6971,11.5054,11.2682,11.093,11.0017,11.0137,11.0568,11.0814,11.0814,11.1491,11.1799,11.1799,11.0875,11.0875,11.1429,11.0075,10.9641,10.9565,10.8281,10.6924,10.5375,10.4591,10.35,10.2099,10.2398,10.2219,10.186,10.2518,10.2937,10.3296,10.4313,10.4912,10.5211,10.6109,10.6408,10.6528,10.7186,10.7366,10.7426,10.7665,10.7186,10.6408,10.5032,10.4613,10.35,10.0388,9.9096,9.7704,9.3582,9.244,9.1804,8.9765,8.9941,8.993,8.9763,8.815,8.7394,8.825,8.5831,8.4732,8.6168,8.6383,8.6705,8.7509,8.8041,8.7364,8.5453,8.5202,8.4237,8.1957,8.1707,8.1602,8.1446,8.1811,8.1578,8.0931,8.0524,8.0315,8.0499,8.08,8.1001,8.1051,8.1202,8.1001,8.0499,8.07,8.0348,7.9746,8.1202,8.1905,8.1992,8.1467,8.1539,8.1851,7.9641,7.886,7.9184,11.6392,11.5281,11.4279,11.3872,11.2333,11.1813,11.3695,11.4511,11.5832,11.8432,12.0227,12.1234,12.0812,12.0118,11.8897,11.7208,11.6324,11.6092,11.6447,11.5811,11.4074,11.1289,11.1176,11.0665,10.9398,11.0814,11.1491,11.1491,11.2168,11.2476,11.2476,11.1122,11.0875,11.1429,11.0075,10.9641,10.9565,10.8281,10.7107,10.6038,10.4712,10.3853,10.3356,10.2698,10.2518,10.2578,10.3236,10.3835,10.4493,10.5211,10.581,10.6408,10.6408,10.6408,10.6528,10.7186,10.7366,10.7545,10.8204,10.7904,10.7066,10.575,10.4912,10.3619,10.0718,9.8047,9.5378,9.3111,9.1111,8.9496,8.9496,8.9026,8.8241,8.7091,8.802,8.7992,8.5674,8.6998,8.7617,8.6202,8.6098,8.6098,8.6098,8.5523,8.4948,8.4373,8.4321,8.4112,8.3537,8.3484,8.3223,8.2648,8.2648,8.2564,8.2622,8.2622,8.2049,8.1051,8.2156,8.2106,8.1051,8.1553,8.1503,8.1001,8.0449,8.0198,8.0298,8.1353,8.2156,8.2759,8.3914,8.4667,8.4897,8.2337,8.1431,8.1251,11.6355,11.4793,11.3356,11.3836,11.278,11.2049,11.2513,11.2943,11.4111,11.7543,11.881,11.9343,11.9323,11.8367,11.7551,11.7037,11.5112,11.4669,11.6447,11.5811,11.5203,11.4957,11.2505,11.1138,11.1355,11.1007,11.0814,11.0814,11.1922,11.2476,11.2476,11.1614,11.1553,11.2107,10.9767,10.909,10.9518,10.7849,10.6675,10.5813,10.4824,10.4025,10.3356,10.2698,10.2757,10.3176,10.3356,10.3835,10.4433,10.4613,10.5151,10.581,10.6288,10.6707,10.7186,10.7904,10.8084,10.8084,10.8263,10.7904,10.7186,10.6348,10.5211,10.3619,10.0718,9.9293,9.7192,9.3527,9.2117,9.1323,8.9713,8.9339,8.8973,8.8241,8.8353,8.8827,8.9074,8.8399,8.8297,8.9234,8.8743,8.8368,8.9002,8.7939,8.7241,8.7281,8.5715,8.4687,8.4112,8.4478,8.4425,8.385,8.385,8.3755,8.3862,8.2675,8.2049,8.2156,8.1754,8.1353,8.1001,8.08,8.0398,7.9896,7.9695,7.9645,7.9746,8.1202,8.2156,8.2809,8.4315,8.5219,8.5549,8.4827,8.4553,8.4602,11.6655,11.5044,11.3511,11.4955,11.3618,11.2429,11.3564,11.2846,11.3261,11.5951,11.7051,11.8042,11.9292,11.7681,11.6554,11.7252,11.4776,11.3452,11.4262,11.5278,11.5944,11.6076,11.4168,11.2825,11.2188,11.1862,11.1131,11.0506,11.1614,11.2107,11.2107,11.1368,11.1306,11.1614,10.9706,10.8719,10.8656,10.7721,10.6547,10.5571,10.4754,10.4194,10.3715,10.3117,10.3236,10.3835,10.4134,10.4493,10.4852,10.5091,10.551,10.5929,10.6288,10.6707,10.7186,10.8084,10.8383,10.8503,10.8982,10.8503,10.7665,10.7306,10.581,10.3811,10.1945,10.0271,9.838,9.5728,9.3942,9.2328,9.0897,9.0092,8.9391,8.9026,8.8973,8.9246,9.0098,8.9252,8.8878,9.0255,9.0446,9.074,9.1065,9.1063,9.0497,8.9258,8.7628,8.6138,8.5053,8.5575,8.5471,8.4687,8.4687,8.4742,8.4691,8.3139,8.2568,8.2784,8.2118,8.1453,8.1051,8.0901,8.0549,8.0047,8.0047,8.0047,8.0147,8.1805,8.2658,8.316,8.4818,8.5671,8.6023,8.6023,8.6023,8.6023,11.707,11.5415,11.4558,11.6757,11.4389,11.2973,11.5055,11.3516,11.2514,11.3894,11.5048,11.69,12.012,11.7245,11.5884,11.7724,11.5045,11.2641,11.1126,11.4327,11.5863,11.523,11.605,11.512,11.2415,11.282,11.2358,11.0758,11.1122,11.1491,11.1368,11.0752,11.0506,11.0444,10.9644,10.8781,10.767,10.7904,10.685,10.5194,10.4875,10.4493,10.4433,10.3715,10.3895,10.4613,10.5211,10.5451,10.563,10.6229,10.6408,10.6408,10.6408,10.6408,10.6707,10.7964,10.8323,10.8622,10.976,10.9221,10.8263,10.8204,10.6288,10.4313,10.3715,10.1414,9.9474,9.9279,9.6043,9.3166,9.2693,9.1111,8.9713,8.9496,8.9496,8.9496,8.9496,8.9496,8.9496,8.9496,9.127,9.2639,9.2693,9.421,9.3781,9.0915,8.9965,8.8625,8.662,8.6935,8.6516,8.5366,8.5314,8.5368,8.526,8.4225,8.3395,8.2906,8.2885,8.2156,8.1202,8.1704,8.1604,8.1051,8.1102,8.1102,8.1252,8.2809,8.3512,8.3713,8.537,8.6023,8.6023,8.6023,8.6023,8.5973,11.6408,11.5251,11.372,11.3401,11.3163,11.2524,11.1122,11.0882,11.1375,11.2514,11.2859,11.4041,11.6665,11.5577,11.4834,11.5703,11.3805,11.2434,11.1946,11.3149,11.4111,11.4168,11.5768,11.5577,11.3551,11.3276,11.283,11.1723,11.1565,11.1183,11.0691,11.0568,11.0506,11.0383,10.8597,10.7736,10.7429,10.7058,10.6564,10.582,10.5736,10.5595,10.5151,10.4433,10.4613,10.5211,10.5331,10.575,10.6229,10.6408,10.6408,10.6408,10.6408,10.6767,10.7186,10.7485,10.7964,10.8263,10.8084,10.7785,10.7485,10.7007,10.5989,10.5151,10.5032,10.3692,10.1975,10.0368,9.9129,9.7359,9.3429,9.2274,9.1482,8.9713,8.9496,8.9496,8.9496,8.9496,8.9496,8.9496,9.0896,9.2205,9.2639,9.421,9.4719,9.4038,9.2363,9.0859,9.0015,8.8935,8.7719,8.6569,8.6516,8.6569,8.6515,8.5834,8.5142,8.4631,8.3655,8.2986,8.2357,8.2859,8.2357,8.1051,8.1453,8.1654,8.1754,8.296,8.3763,8.4265,8.5521,8.6023,8.6023,8.6023,8.6023,8.5749,11.6805,11.5546,11.4108,11.3638,11.3036,11.282,11.2893,11.2107,11.1862,11.2956,11.2883,11.3303,11.5065,11.4155,11.3493,11.3868,11.2739,11.1932,11.1871,11.2407,11.2606,11.2505,11.4363,11.4858,11.4138,11.368,11.307,11.2188,11.2238,11.1503,11.0013,11.0383,10.9952,10.8967,10.8228,10.7305,10.6504,10.6999,10.6442,10.5461,10.5624,10.5535,10.5331,10.4673,10.5032,10.5929,10.5929,10.6109,10.6408,10.6408,10.6408,10.6408,10.6408,10.6647,10.7007,10.7306,10.7605,10.7904,10.7904,10.7605,10.7306,10.7007,10.6109,10.5331,10.5032,10.4134,10.3036,10.2019,10.0992,9.9442,9.6696,9.5415,9.3856,9.1323,9.1111,9.0683,8.9713,8.9496,8.9496,8.9496,9.1056,9.2784,9.4093,9.5626,9.6224,9.5231,9.3802,9.2457,9.1162,8.9251,8.7823,8.6935,8.6882,8.7039,8.73,8.6828,8.6606,8.6825,8.505,8.4111,8.3895,8.3981,8.3412,8.2608,8.2909,8.301,8.306,8.3914,8.4466,8.4818,8.5671,8.6023,8.6023,8.6023,8.6023,8.5575,11.7468,11.6399,11.5236,11.4899,11.3959,11.3819,11.6347,11.4664,11.3417,11.4306,11.3925,11.3684,11.4147,11.3243,11.2599,11.2538,11.2107,11.1676,11.1368,11.1746,11.1589,11.0645,11.2377,11.3482,11.3737,11.4074,11.3656,11.2528,11.2872,11.1737,10.9459,11.0075,10.9398,10.7797,10.8105,10.7305,10.5647,10.6876,10.6381,10.4789,10.5141,10.5115,10.5211,10.4732,10.5271,10.6229,10.6408,10.6408,10.6408,10.6288,10.6288,10.6408,10.6288,10.6288,10.6528,10.7066,10.7306,10.7485,10.7904,10.7725,10.7306,10.7126,10.6288,10.5331,10.4433,10.3895,10.3535,10.3416,10.2019,10.0543,10.0034,9.859,9.6345,9.322,9.2693,9.1906,8.9713,8.9496,8.9496,8.9496,9.1111,9.2902,9.5174,9.6481,9.679,9.54,9.4238,9.2899,9.1325,8.9039,8.751,8.6935,8.6987,8.73,8.7771,8.7405,8.7767,8.8625,8.6774,8.561,8.5508,8.5005,8.4736,8.4534,8.4416,8.4466,8.4466,8.4968,8.5219,8.532,8.5822,8.6023,8.6023,8.6023,8.5922,8.5425,11.7853,11.744,11.6726,11.5236,11.57,11.6045,11.5353,11.5829,11.6045,11.5012,11.4754,11.4581,11.4264,11.3679,11.3092,11.2599,11.2907,11.2476,11.0691,11.1126,11.0696,10.8781,10.9902,11.0941,11.1559,11.3911,11.4758,11.3656,11.264,11.148,10.9459,10.9582,10.9459,10.9152,10.7982,10.7244,10.657,10.608,10.5282,10.4229,10.4953,10.4815,10.4613,10.5091,10.5391,10.563,10.6229,10.6408,10.6288,10.575,10.5929,10.6288,10.575,10.5929,10.6408,10.6528,10.6947,10.7306,10.6827,10.7007,10.7126,10.5989,10.5989,10.581,10.4014,10.3895,10.4134,10.3535,10.3226,10.2226,9.9843,9.9142,9.7448,9.332,9.2693,9.1906,8.9713,8.9496,8.9496,8.9496,8.9713,9.0683,9.2902,9.3265,9.4189,9.5672,9.3691,9.213,9.1716,8.9251,8.751,8.6935,8.7405,8.7719,8.7771,8.8189,8.8764,8.9279,8.847,8.7672,8.6774,8.6627,8.6102,8.4971,8.5038,8.5069,8.5069,8.5119,8.542,8.5922,8.5973,8.6023,8.6023,8.6023,8.5671,8.4875,11.9242,11.9087,11.8552,11.6726,11.7317,11.7711,11.712,11.7908,11.817,11.7186,11.7711,11.763,11.5929,11.5291,11.493,11.4617,11.3482,11.2599,11.1676,11.1183,11.0383,10.909,10.9024,10.9484,11.0039,11.1523,11.2725,11.3215,11.3854,11.3036,11.0992,11.0388,10.9582,10.8844,10.7919,10.7182,10.6691,10.6201,10.5461,10.4772,10.4712,10.4454,10.4433,10.4732,10.5091,10.551,10.6169,10.6408,10.6288,10.563,10.563,10.581,10.551,10.563,10.5929,10.6288,10.6588,10.6767,10.6468,10.6588,10.6588,10.563,10.563,10.5004,10.2374,10.181,10.2315,10.3286,10.2404,10.1263,9.9998,9.8701,9.6785,9.3374,9.2693,9.1906,8.9713,8.9496,8.9496,8.9496,8.9496,8.9876,9.0897,9.1906,9.3111,9.4148,9.2445,9.1337,9.1337,8.8509,8.6725,8.6464,8.6987,8.73,8.73,8.7875,8.845,8.8973,8.8757,8.8377,8.7827,8.7425,8.7,8.6541,8.6186,8.6066,8.6015,8.5844,8.5772,8.6023,8.6023,8.6023,8.6023,8.6023,8.5822,8.5398]},{"header":{"parameterUnit":"m.s-1","parameterCategory":1,"la1":30.6,"la2":28.766,"lo1":-90.7593,"lo2":-88.6598,"dx":0.0162,"dy":0.0183,"nx":116,"ny":114,"refTime":"2023-02-10T18:00:00:Z","depth":0,"parameterNumber":3,"parameterNumberName":"V-component_of_WINDS"},"data":[0.0,0.0,0.0,0.0,0.0,0.0,0.0,0.0,0.0,0.0,0.0,0.0,0.0,0.0,0.0,0.0,0.0,0.0,0.0,0.0,0.0,0.0,0.0,0.0,0.0,0.0,0.0,0.0,0.0,0.0,0.0,0.0,0.0,0.0,0.0,0.0,0.0,0.0,0.0,0.0,0.0,0.0,0.0,0.0,0.0,0.0,0.0,0.0,0.0,0.0,0.0,0.0,0.0,0.0,0.0,0.0,0.0,0.0,0.0,0.0,0.0,0.0,0.0,0.0,0.0,0.0,0.0,0.0,0.0,0.0,0.0,0.0,0.0,0.0,0.0,0.0,0.0,0.0,0.0,0.0,0.0,0.0,0.0,0.0,0.0,0.0,0.0,0.0,0.0,0.0,0.0,0.0,0.0,0.0,0.0,0.0,0.0,0.0,0.0,0.0,0.0,0.0,0.0,0.0,0.0,0.0,0.0,0.0,0.0,0.0,0.0,0.0,0.0,0.0,0.0,0.0,0.0,0.0,0.0,0.0,0.0,0.0,0.0,0.0,0.0,0.0,0.0,0.0,0.0,0.0,0.0,0.0,0.0,0.0,0.0,0.0,0.0,0.0,0.0,0.0,0.0,0.0,0.0,0.0,0.0,0.0,0.0,0.0,0.0,0.0,0.0,0.0,0.0,0.0,0.0,0.0,0.0,0.0,0.0,0.0,0.0,0.0,0.0,0.0,0.0,0.0,0.0,0.0,0.0,0.0,0.0,0.0,0.0,0.0,0.0,0.0,0.0,0.0,0.0,0.0,0.0,0.0,0.0,0.0,0.0,0.0,0.0,0.0,0.0,0.0,0.0,0.0,0.0,0.0,0.0,0.0,0.0,0.0,0.0,0.0,0.0,0.0,0.0,0.0,0.0,0.0,0.0,0.0,0.0,0.0,0.0,0.0,0.0,0.0,0.0,0.0,0.0,0.0,0.0,0.0,0.0,0.0,0.0,0.0,0.0,0.0,0.0,0.0,0.0,0.0,0.0,0.0,0.0,0.0,0.0,0.0,0.0,0.0,0.0,0.0,0.0,0.0,0.0,0.0,0.0,0.0,0.0,0.0,0.0,0.0,0.0,0.0,0.0,0.0,0.0,0.0,0.0,0.0,0.0,0.0,0.0,0.0,0.0,0.0,0.0,0.0,0.0,0.0,0.0,0.0,0.0,0.0,0.0,0.0,0.0,0.0,0.0,0.0,0.0,0.0,0.0,0.0,0.0,0.0,0.0,0.0,0.0,0.0,0.0,0.0,0.0,0.0,0.0,0.0,0.0,0.0,0.0,0.0,0.0,0.0,0.0,0.0,0.0,0.0,0.0,0.0,0.0,0.0,0.0,0.0,0.0,0.0,0.0,0.0,0.0,0.0,0.0,0.0,0.0,0.0,0.0,0.0,0.0,0.0,0.0,0.0,0.0,0.0,0.0,0.0,0.0,0.0,0.0,0.0,0.0,0.0,0.0,0.0,0.0,0.0,0.0,0.0,0.0,0.0,0.0,0.0,0.0,0.0,0.0,0.0,0.0,0.0,0.0,0.0,0.0,0.0,0.0,0.0,0.0,0.0,0.0,0.0,0.0,0.0,0.0,0.0,0.0,0.0,0.0,0.0,0.0,0.0,0.0,0.0,0.0,0.0,0.0,0.0,0.0,0.0,0.0,0.0,0.0,0.0,0.0,0.0,0.0,0.0,0.0,0.0,0.0,0.0,0.0,0.0,0.0,0.0,0.0,0.0,0.0,0.0,0.0,0.0,0.0,0.0,0.0,0.0,0.0,0.0,0.0,0.0,0.0,0.0,0.0,0.0,0.0,0.0,0.0,0.0,0.0,0.0,0.0,0.0,0.0,0.0,0.0,0.0,0.0,0.0,0.0,0.0,0.0,0.0,0.0,0.0,0.0,0.0,0.0,0.0,0.0,0.0,0.0,0.0,0.0,0.0,0.0,0.0,0.0,0.0,0.0,0.0,0.0,0.0,0.0,0.0,0.0,0.0,0.0,0.0,0.0,0.0,0.0,0.0,0.0,0.0,0.0,0.0,0.0,0.0,0.0,0.0,0.0,0.0,0.0,0.0,0.0,0.0,0.0,0.0,0.0,0.0,0.0,0.0,0.0,0.0,0.0,0.0,0.0,0.0,0.0,0.0,0.0,0.0,0.0,0.0,0.0,0.0,0.0,0.0,0.0,0.0,0.0,0.0,0.0,0.0,0.0,0.0,0.0,0.0,0.0,0.0,0.0,0.0,0.0,0.0,0.0,0.0,0.0,0.0,0.0,0.0,0.0,0.0,0.0,0.0,0.0,0.0,0.0,0.0,0.0,0.0,0.0,0.0,0.0,0.0,0.0,0.0,0.0,0.0,0.0,0.0,0.0,0.0,0.0,0.0,0.0,0.0,0.0,0.0,0.0,0.0,0.0,0.0,0.0,0.0,0.0,0.0,0.0,0.0,0.0,0.0,0.0,0.0,0.0,0.0,0.0,0.0,0.0,0.0,0.0,0.0,0.0,0.0,0.0,0.0,0.0,0.0,0.0,0.0,0.0,0.0,0.0,0.0,0.0,0.0,0.0,0.0,0.0,0.0,0.0,0.0,0.0,0.0,0.0,0.0,0.0,0.0,0.0,0.0,0.0,0.0,0.0,0.0,0.0,0.0,0.0,0.0,0.0,0.0,0.0,0.0,0.0,0.0,0.0,0.0,0.0,0.0,0.0,0.0,0.0,0.0,0.0,0.0,0.0,0.0,0.0,0.0,0.0,0.0,0.0,0.0,0.0,0.0,0.0,0.0,0.0,0.0,0.0,0.0,0.0,0.0,0.0,0.0,0.0,0.0,0.0,0.0,0.0,0.0,0.0,0.0,0.0,0.0,0.0,0.0,0.0,0.0,0.0,0.0,0.0,0.0,0.0,0.0,0.0,0.0,0.0,0.0,0.0,0.0,0.0,0.0,0.0,0.0,0.0,0.0,0.0,0.0,0.0,0.0,0.0,0.0,0.0,0.0,0.0,0.0,0.0,0.0,0.0,0.0,0.0,0.0,0.0,0.0,0.0,0.0,0.0,0.0,0.0,0.0,0.0,0.0,0.0,0.0,0.0,0.0,0.0,0.0,0.0,0.0,0.0,0.0,0.0,0.0,0.0,0.0,0.0,0.0,0.0,0.0,0.0,0.0,0.0,0.0,0.0,0.0,0.0,0.0,0.0,0.0,0.0,0.0,0.0,0.0,0.0,0.0,0.0,0.0,0.0,0.0,0.0,0.0,0.0,0.0,0.0,0.0,0.0,0.0,0.0,0.0,0.0,0.0,0.0,0.0,0.0,0.0,0.0,0.0,0.0,0.0,0.0,0.0,0.0,0.0,0.0,0.0,0.0,0.0,0.0,0.0,0.0,0.0,0.0,0.0,0.0,0.0,0.0,0.0,0.0,0.0,0.0,0.0,0.0,0.0,0.0,0.0,0.0,0.0,0.0,0.0,0.0,0.0,0.0,0.0,0.0,0.0,0.0,0.0,0.0,0.0,0.0,0.0,0.0,0.0,0.0,0.0,0.0,0.0,0.0,0.0,0.0,0.0,0.0,0.0,0.0,0.0,0.0,0.0,0.0,0.0,0.0,0.0,0.0,0.0,0.0,0.0,0.0,0.0,0.0,0.0,0.0,0.0,0.0,0.0,0.0,0.0,0.0,0.0,0.0,0.0,0.0,0.0,0.0,0.0,0.0,0.0,0.0,0.0,0.0,0.0,0.0,0.0,0.0,0.0,0.0,0.0,0.0,0.0,0.0,0.0,0.0,0.0,0.0,0.0,0.0,0.0,0.0,0.0,0.0,0.0,0.0,0.0,0.0,0.0,0.0,0.0,0.0,0.0,0.0,0.0,0.0,0.0,0.0,0.0,0.0,0.0,0.0,0.0,0.0,0.0,0.0,0.0,0.0,0.0,0.0,0.0,0.0,0.0,0.0,0.0,0.0,0.0,0.0,0.0,0.0,0.0,0.0,0.0,0.0,0.0,0.0,0.0,0.0,0.0,0.0,0.0,0.0,0.0,0.0,0.0,0.0,0.0,0.0,0.0,0.0,0.0,0.0,0.0,0.0,0.0,0.0,0.0,0.0,0.0,0.0,0.0,0.0,0.0,0.0,0.0,0.0,0.0,0.0,0.0,0.0,0.0,0.0,0.0,0.0,0.0,0.0,0.0,0.0,0.0,0.0,0.0,0.0,0.0,0.0,0.0,0.0,0.0,0.0,0.0,0.0,0.0,0.0,0.0,0.0,0.0,0.0,0.0,0.0,0.0,0.0,0.0,0.0,0.0,0.0,0.0,0.0,0.0,0.0,0.0,0.0,0.0,0.0,0.0,0.0,0.0,0.0,0.0,0.0,0.0,0.0,0.0,0.0,0.0,0.0,0.0,0.0,0.0,0.0,0.0,0.0,0.0,0.0,0.0,0.0,0.0,0.0,0.0,0.0,0.0,0.0,0.0,0.0,0.0,0.0,0.0,0.0,0.0,0.0,0.0,0.0,0.0,0.0,0.0,0.0,0.0,0.0,0.0,0.0,0.0,0.0,0.0,0.0,0.0,0.0,0.0,0.0,0.0,0.0,0.0,0.0,0.0,0.0,0.0,0.0,0.0,0.0,0.0,0.0,0.0,0.0,0.0,0.0,0.0,0.0,0.0,0.0,0.0,0.0,0.0,0.0,0.0,0.0,0.0,0.0,0.0,0.0,0.0,0.0,0.0,0.0,0.0,0.0,0.0,0.0,0.0,0.0,0.0,0.0,0.0,0.0,0.0,0.0,0.0,0.0,0.0,0.0,0.0,0.0,0.0,0.0,0.0,0.0,0.0,0.0,0.0,0.0,0.0,0.0,0.0,0.0,0.0,0.0,0.0,0.0,0.0,0.0,0.0,0.0,0.0,0.0,0.0,0.0,0.0,0.0,0.0,0.0,0.0,0.0,0.0,0.0,0.0,0.0,0.0,0.0,0.0,0.0,0.0,0.0,0.0,0.0,0.0,0.0,0.0,0.0,0.0,0.0,0.0,0.0,0.0,0.0,0.0,0.0,0.0,0.0,0.0,0.0,0.0,0.0,0.0,0.0,0.0,0.0,0.0,0.0,0.0,0.0,0.0,0.0,0.0,0.0,0.0,0.0,0.0,0.0,0.0,0.0,0.0,0.0,0.0,0.0,0.0,0.0,0.0,0.0,0.0,0.0,0.0,0.0,0.0,0.0,0.0,0.0,0.0,0.0,0.0,0.0,0.0,0.0,0.0,0.0,0.0,0.0,0.0,0.0,0.0,0.0,0.0,0.0,0.0,0.0,0.0,0.0,0.0,0.0,0.0,0.0,0.0,0.0,0.0,0.0,0.0,0.0,0.0,0.0,0.0,0.0,0.0,0.0,0.0,0.0,0.0,0.0,0.0,0.0,0.0,0.0,0.0,0.0,0.0,0.0,0.0,0.0,0.0,0.0,0.0,0.0,0.0,0.0,0.0,0.0,0.0,0.0,0.0,0.0,0.0,0.0,0.0,0.0,0.0,0.0,0.0,0.0,0.0,0.0,0.0,0.0,0.0,0.0,0.0,0.0,0.0,0.0,0.0,0.0,0.0,0.0,0.0,0.0,0.0,0.0,0.0,0.0,0.0,0.0,0.0,0.0,0.0,0.0,0.0,0.0,0.0,0.0,0.0,0.0,0.0,0.0,0.0,0.0,0.0,0.0,0.0,0.0,0.0,0.0,0.0,0.0,0.0,0.0,0.0,0.0,0.0,0.0,0.0,0.0,0.0,0.0,0.0,0.0,0.0,0.0,0.0,0.0,0.0,0.0,0.0,0.0,0.0,0.0,0.0,0.0,0.0,0.0,0.0,0.0,0.0,0.0,0.0,0.0,0.0,0.0,0.0,0.0,0.0,0.0,0.0,0.0,0.0,0.0,0.0,0.0,0.0,0.0,0.0,0.0,0.0,0.0,0.0,0.0,0.0,0.0,0.0,0.0,0.0,0.0,0.0,0.0,0.0,0.0,0.0,0.0,0.0,0.0,0.0,0.0,0.0,0.0,0.0,0.0,0.0,0.0,0.0,0.0,0.0,0.0,0.0,0.0,0.0,-6.7976,0.0,0.0,0.0,0.0,0.0,0.0,0.0,0.0,0.0,0.0,0.0,0.0,0.0,0.0,0.0,0.0,0.0,0.0,0.0,0.0,0.0,0.0,0.0,0.0,0.0,0.0,0.0,0.0,0.0,0.0,0.0,0.0,0.0,0.0,0.0,0.0,0.0,0.0,0.0,0.0,0.0,0.0,0.0,0.0,0.0,0.0,0.0,0.0,0.0,0.0,0.0,0.0,0.0,0.0,0.0,0.0,0.0,0.0,0.0,0.0,0.0,0.0,0.0,0.0,0.0,0.0,0.0,0.0,0.0,0.0,0.0,0.0,0.0,0.0,0.0,0.0,0.0,0.0,0.0,0.0,0.0,0.0,0.0,0.0,0.0,0.0,0.0,0.0,0.0,0.0,0.0,0.0,0.0,0.0,0.0,0.0,0.0,0.0,0.0,0.0,0.0,0.0,0.0,0.0,0.0,0.0,0.0,0.0,0.0,0.0,0.0,0.0,0.0,0.0,0.0,0.0,-6.9977,0.0,0.0,0.0,0.0,0.0,0.0,0.0,0.0,0.0,0.0,0.0,0.0,0.0,0.0,0.0,0.0,0.0,0.0,0.0,0.0,0.0,0.0,0.0,0.0,0.0,0.0,0.0,0.0,0.0,0.0,0.0,0.0,0.0,0.0,0.0,0.0,0.0,0.0,0.0,0.0,0.0,0.0,0.0,0.0,0.0,0.0,0.0,0.0,0.0,0.0,0.0,0.0,0.0,0.0,0.0,0.0,0.0,0.0,0.0,0.0,0.0,0.0,0.0,0.0,0.0,0.0,0.0,0.0,0.0,0.0,0.0,0.0,0.0,0.0,0.0,0.0,0.0,0.0,0.0,0.0,0.0,0.0,0.0,0.0,0.0,0.0,0.0,0.0,0.0,0.0,0.0,0.0,0.0,0.0,0.0,0.0,0.0,0.0,0.0,0.0,0.0,0.0,0.0,0.0,0.0,0.0,0.0,0.0,0.0,0.0,-8.5167,-8.4388,-8.5675,-8.8029,-7.9471,-7.6697,-7.7609,0.0,0.0,0.0,0.0,0.0,0.0,0.0,0.0,0.0,0.0,0.0,0.0,0.0,0.0,0.0,0.0,0.0,0.0,0.0,0.0,0.0,0.0,0.0,0.0,0.0,0.0,0.0,0.0,0.0,0.0,0.0,0.0,0.0,0.0,0.0,0.0,0.0,0.0,0.0,0.0,0.0,0.0,0.0,0.0,0.0,0.0,0.0,0.0,0.0,0.0,0.0,0.0,0.0,0.0,0.0,0.0,0.0,0.0,0.0,0.0,0.0,0.0,0.0,0.0,0.0,0.0,0.0,0.0,0.0,0.0,0.0,0.0,0.0,0.0,0.0,0.0,0.0,0.0,0.0,0.0,0.0,0.0,0.0,0.0,0.0,0.0,0.0,-6.0666,-6.0556,0.0,0.0,0.0,0.0,0.0,0.0,0.0,0.0,0.0,0.0,0.0,0.0,0.0,0.0,-7.5918,-7.9428,-8.2336,-8.4559,-8.7497,-8.9133,-8.9877,-9.2359,-9.3508,-9.3396,-9.1489,0.0,-8.449,-7.9184,0.0,0.0,0.0,0.0,0.0,0.0,0.0,0.0,0.0,0.0,0.0,0.0,0.0,0.0,0.0,0.0,0.0,0.0,0.0,0.0,0.0,0.0,0.0,0.0,0.0,0.0,0.0,0.0,0.0,0.0,0.0,0.0,0.0,0.0,0.0,0.0,0.0,0.0,0.0,0.0,0.0,0.0,0.0,0.0,0.0,0.0,0.0,0.0,0.0,0.0,0.0,0.0,0.0,0.0,0.0,0.0,0.0,0.0,0.0,0.0,0.0,0.0,0.0,0.0,0.0,0.0,0.0,0.0,0.0,0.0,0.0,0.0,0.0,0.0,0.0,0.0,0.0,0.0,0.0,0.0,0.0,0.0,0.0,0.0,0.0,-6.0645,-6.2401,-6.0206,-6.1942,-6.2415,0.0,0.0,0.0,0.0,0.0,0.0,0.0,0.0,0.0,-7.3496,-7.5791,-7.8504,-8.1722,-8.3934,-8.7182,-9.1439,-9.207,-9.3894,-9.6681,-9.7216,-9.8,-9.8838,-9.759,-9.6017,-9.3539,-8.4812,-8.0903,-8.0181,0.0,0.0,0.0,0.0,0.0,0.0,0.0,0.0,0.0,0.0,0.0,0.0,0.0,0.0,0.0,0.0,0.0,0.0,0.0,0.0,0.0,-6.157,0.0,0.0,0.0,0.0,0.0,0.0,0.0,0.0,0.0,0.0,0.0,0.0,0.0,0.0,0.0,0.0,0.0,0.0,0.0,0.0,0.0,0.0,0.0,0.0,0.0,0.0,0.0,0.0,0.0,0.0,0.0,0.0,0.0,0.0,0.0,0.0,0.0,0.0,0.0,0.0,0.0,0.0,0.0,0.0,0.0,0.0,0.0,0.0,0.0,0.0,0.0,0.0,0.0,0.0,0.0,0.0,0.0,0.0,0.0,0.0,0.0,-6.2702,-6.4811,-6.1283,-6.5114,-6.637,0.0,0.0,0.0,0.0,0.0,0.0,-7.2295,-7.433,-7.6784,-7.9776,-8.1811,-8.4425,-8.792,-8.8878,-9.182,-9.6727,-9.582,-9.7386,-10.1179,-10.0704,-10.123,-10.2598,-10.143,-10.0966,-9.9843,-9.0097,-8.5836,-8.5309,-8.2363,-8.1414,0.0,-8.2708,-8.3928,-8.5533,0.0,0.0,0.0,0.0,0.0,0.0,0.0,0.0,0.0,0.0,0.0,0.0,0.0,0.0,-6.275,-6.1355,-6.3474,-6.3695,0.0,0.0,0.0,0.0,0.0,0.0,0.0,0.0,0.0,0.0,0.0,0.0,0.0,0.0,0.0,0.0,0.0,0.0,0.0,0.0,0.0,0.0,0.0,0.0,0.0,0.0,0.0,0.0,0.0,0.0,0.0,0.0,0.0,0.0,0.0,0.0,0.0,0.0,0.0,0.0,0.0,0.0,0.0,0.0,0.0,0.0,0.0,0.0,0.0,0.0,0.0,0.0,0.0,0.0,0.0,0.0,0.0,0.0,0.0,0.0,0.0,-6.6071,-7.1936,0.0,0.0,0.0,0.0,-7.1457,-7.3851,-7.6544,-7.9178,-8.1212,-8.4025,-8.7975,-9.001,-9.1985,-9.4192,-9.5995,-9.7371,-9.8329,-9.9526,-10.0367,-10.067,-10.3634,-10.4165,-10.3057,-10.3672,-10.2872,-10.0765,-9.5342,-9.2073,-9.0139,-8.7231,-8.6301,-8.6533,-8.6598,-8.8594,-9.1297,0.0,0.0,0.0,0.0,0.0,0.0,0.0,0.0,0.0,0.0,0.0,0.0,0.0,-6.3163,-6.5056,-6.4652,-6.4975,-6.5028,-6.4397,0.0,0.0,0.0,0.0,0.0,0.0,0.0,0.0,0.0,0.0,0.0,0.0,0.0,0.0,0.0,0.0,0.0,0.0,0.0,0.0,0.0,0.0,0.0,0.0,0.0,0.0,0.0,0.0,0.0,0.0,0.0,0.0,0.0,0.0,0.0,0.0,0.0,0.0,0.0,0.0,0.0,0.0,0.0,0.0,0.0,0.0,0.0,0.0,0.0,0.0,0.0,0.0,0.0,0.0,0.0,0.0,0.0,0.0,0.0,0.0,-7.1218,-7.6724,0.0,0.0,-7.6066,-7.7322,-7.822,-8.0734,-8.3547,-8.6599,-8.8634,-9.0968,-9.3661,-9.4798,-9.6174,-9.773,-9.8867,-9.9765,-10.0423,-10.1381,-10.1979,-10.2398,-10.3144,-10.3696,-10.3813,-10.3877,-10.3151,-10.2002,-10.0189,-9.7546,-9.4548,-9.2968,-9.2467,-9.2824,-9.3775,-9.5324,-9.7069,0.0,0.0,0.0,0.0,0.0,0.0,0.0,0.0,0.0,0.0,0.0,-6.0326,-6.1246,-6.4777,-6.7353,-6.7608,-6.7082,-6.6555,-6.5689,0.0,0.0,0.0,0.0,0.0,0.0,0.0,0.0,0.0,0.0,0.0,0.0,0.0,0.0,0.0,0.0,0.0,0.0,0.0,0.0,0.0,0.0,0.0,-6.3298,0.0,0.0,0.0,0.0,0.0,0.0,0.0,0.0,0.0,0.0,0.0,0.0,0.0,0.0,0.0,0.0,0.0,0.0,0.0,0.0,0.0,0.0,0.0,0.0,0.0,0.0,0.0,0.0,0.0,0.0,0.0,0.0,0.0,0.0,0.0,-7.6025,-7.5886,-8.1751,-8.4444,-8.1153,-8.2828,-8.4564,-8.5701,-8.7975,-9.0489,-9.3182,-9.4738,-9.6294,-9.785,-9.8748,-9.9586,-10.0483,-10.1381,-10.1979,-10.2458,-10.2877,-10.3356,-10.3715,-10.3296,-10.3595,-10.4373,-10.3895,-10.3535,-10.3117,-10.3117,-10.1514,-9.92,-9.7619,-9.7411,-9.8145,-9.8831,-9.9894,-10.1204,0.0,0.0,0.0,0.0,0.0,0.0,0.0,0.0,0.0,0.0,0.0,-6.0002,-6.1078,-6.5975,-6.9428,-6.98,-6.9736,-6.8063,-6.409,-6.3926,0.0,0.0,0.0,0.0,0.0,0.0,0.0,0.0,0.0,0.0,0.0,0.0,0.0,0.0,0.0,0.0,0.0,0.0,0.0,0.0,0.0,0.0,-6.8778,0.0,0.0,0.0,0.0,0.0,0.0,0.0,0.0,0.0,0.0,0.0,0.0,0.0,0.0,0.0,0.0,0.0,0.0,0.0,0.0,0.0,0.0,0.0,0.0,0.0,0.0,0.0,0.0,0.0,0.0,0.0,0.0,0.0,-6.9363,-7.5467,-8.0075,-8.0195,-8.7077,-9.0489,-8.7317,-9.0489,-9.3062,-9.3661,-9.5576,-9.7252,-9.8568,-9.9286,-9.9945,-10.0603,-10.186,-10.2578,-10.2578,-10.3775,-10.4373,-10.4373,-10.4433,-10.4433,-10.4433,-10.4493,-10.4493,-10.4493,-10.4493,-10.4493,-10.4493,-10.4493,-10.4493,-10.4134,-10.0902,-10.061,-10.2082,-10.1406,-10.2191,-10.3845,0.0,0.0,0.0,0.0,0.0,0.0,0.0,0.0,0.0,0.0,-5.8061,-6.1713,-6.3461,-6.8233,-7.1409,-7.2158,-7.1043,-6.9318,-6.6965,0.0,0.0,0.0,0.0,0.0,0.0,0.0,0.0,0.0,0.0,0.0,0.0,0.0,0.0,0.0,0.0,0.0,0.0,0.0,0.0,0.0,0.0,-7.1057,-6.8662,0.0,0.0,0.0,0.0,0.0,0.0,0.0,0.0,0.0,0.0,0.0,0.0,0.0,0.0,0.0,0.0,0.0,0.0,0.0,0.0,0.0,0.0,0.0,0.0,0.0,0.0,0.0,0.0,0.0,0.0,0.0,0.0,-7.4569,-7.5288,-8.0375,-8.5342,-8.8693,-9.2703,-9.4977,-9.4558,-9.5935,-9.6952,-9.7132,-9.8568,-10.0004,-10.1321,-10.1979,-10.2638,-10.3296,-10.3715,-10.3895,-10.3895,-10.4194,-10.4373,-10.4433,-10.4912,-10.5151,-10.5151,-10.563,-10.6109,-10.6588,-10.6588,-10.6288,-10.5929,-10.6408,-10.6288,-10.569,-10.3775,-10.3373,-10.3687,-10.3566,-10.4187,-10.5543,0.0,0.0,0.0,0.0,0.0,0.0,0.0,0.0,0.0,0.0,-5.7525,-6.1462,-6.4075,-6.8306,-7.1592,-7.2925,-7.0886,-6.8533,-6.6338,0.0,0.0,0.0,0.0,0.0,0.0,0.0,0.0,0.0,0.0,0.0,0.0,0.0,0.0,0.0,0.0,0.0,0.0,0.0,0.0,0.0,-7.7577,-7.512,-7.2245,-7.0468,-6.8925,-6.7562,-6.5556,-6.5648,-6.6155,-6.319,0.0,0.0,0.0,0.0,0.0,0.0,0.0,0.0,0.0,0.0,0.0,0.0,0.0,0.0,0.0,0.0,0.0,0.0,0.0,0.0,0.0,0.0,0.0,0.0,-7.7382,-8.1572,-8.3726,-8.6419,-8.9771,-9.4139,-9.6473,-9.8149,-9.9047,-9.9765,-10.0304,-10.0543,-10.1501,-10.2458,-10.3296,-10.3595,-10.4014,-10.4373,-10.4912,-10.5091,-10.4792,-10.569,-10.6049,-10.6109,-10.6767,-10.7246,-10.7485,-10.7904,-10.8204,0.0,-10.8323,-10.8024,-10.7665,-10.7785,-10.7605,0.0,0.0,0.0,0.0,0.0,-10.4892,-10.5467,0.0,0.0,0.0,0.0,0.0,0.0,0.0,0.0,0.0,0.0,0.0,-6.013,-6.3139,-6.6965,-7.0363,-7.2716,-6.9788,-6.6652,0.0,0.0,0.0,0.0,0.0,0.0,0.0,0.0,0.0,0.0,0.0,0.0,0.0,0.0,0.0,0.0,0.0,0.0,0.0,0.0,0.0,-8.108,-8.108,-7.972,-7.7316,-7.4127,-7.3081,-7.2977,-7.0259,-6.8429,-6.7127,-6.6383,0.0,0.0,0.0,0.0,0.0,0.0,0.0,0.0,0.0,0.0,0.0,0.0,0.0,0.0,0.0,0.0,0.0,0.0,0.0,0.0,0.0,0.0,0.0,0.0,-8.3606,-8.9352,-9.2763,-9.2943,-9.402,-9.7431,-9.9047,-10.0304,-10.1561,-10.2279,-10.2937,-10.3476,-10.4074,-10.4493,0.0,0.0,0.0,0.0,0.0,-10.6348,-10.575,-10.7605,-10.8443,-10.8383,-10.9101,-10.976,-11.0238,-11.0358,-11.0418,-11.0418,-10.9939,-10.97,-10.958,-10.9041,-10.8742,-10.8383,-10.6528,-10.6109,-10.6468,-10.5211,-10.4732,0.0,0.0,0.0,0.0,0.0,0.0,0.0,0.0,0.0,0.0,-5.2096,-5.5881,-5.9335,-6.1406,-6.524,-6.8743,-7.1513,-6.8586,-6.5972,0.0,0.0,0.0,0.0,0.0,0.0,0.0,0.0,0.0,0.0,0.0,0.0,0.0,0.0,0.0,0.0,0.0,0.0,0.0,0.0,-8.2282,-8.2282,-8.2282,-8.0923,-7.8675,-7.7054,-7.5695,-7.4336,-7.282,-7.2716,-7.2768,-6.9915,-6.9548,-6.9925,-6.6344,0.0,0.0,0.0,0.0,0.0,0.0,0.0,0.0,0.0,0.0,0.0,0.0,0.0,0.0,0.0,0.0,0.0,0.0,0.0,0.0,-8.3068,-8.7856,-9.2404,-9.6773,-9.8628,-9.9645,-9.9885,-10.1082,-10.2219,-10.2997,-10.3595,-10.4074,-10.4194,-10.4313,-10.4912,-10.5989,-10.5989,0.0,-10.7545,-10.7844,-10.7964,-10.7785,-10.8682,-10.8922,-10.8383,0.0,0.0,-10.958,-11.0597,-11.1136,-11.1136,-11.1555,-11.1435,-11.1016,-11.1375,-11.0897,-10.9819,-10.8383,-10.7904,-10.7904,-10.7066,-10.6827,-10.6767,0.0,0.0,0.0,0.0,0.0,0.0,0.0,0.0,0.0,0.0,-5.3672,-5.6638,-5.8691,-6.179,-6.4508,-6.6495,-6.456,0.0,0.0,0.0,0.0,0.0,0.0,0.0,0.0,0.0,0.0,0.0,0.0,0.0,0.0,0.0,0.0,0.0,0.0,0.0,0.0,-8.3903,-8.4059,-8.4373,-8.4373,-8.3693,-8.2387,-8.04,-7.9093,-7.8152,-7.6688,-7.6166,-7.58,-7.3186,-7.2122,-7.153,-6.9579,-6.7552,-6.5709,0.0,0.0,0.0,0.0,0.0,0.0,0.0,0.0,0.0,0.0,0.0,0.0,0.0,0.0,-7.2415,0.0,0.0,-8.3786,-8.8394,-9.2464,-9.6234,-9.9526,-10.1142,-10.186,-10.1501,-10.2698,-10.3715,-10.4313,-10.5032,-10.551,-10.5869,-10.6169,-10.6707,-10.7366,-10.7725,-10.8204,-10.8862,-10.9161,-10.952,-10.9819,-10.9879,-11.0358,-11.1375,-11.1675,-11.2213,-11.2872,-11.3171,-11.3291,-11.3291,-11.2931,-11.2632,-11.2273,-11.1914,-11.1196,-11.0238,-10.958,-10.8982,-10.8263,-10.7605,-10.7366,-10.7306,0.0,0.0,0.0,0.0,0.0,0.0,0.0,0.0,0.0,0.0,0.0,-5.369,-5.5756,-5.8026,-5.9751,0.0,0.0,0.0,0.0,0.0,0.0,0.0,0.0,0.0,0.0,0.0,0.0,0.0,0.0,0.0,0.0,0.0,0.0,0.0,0.0,-8.5105,-8.5523,-8.5628,-8.5994,-8.6412,-8.6412,-8.6464,-8.6307,-8.3641,-8.2387,-8.1864,-8.0139,-7.8675,-7.742,-7.6166,-7.4339,-7.2912,-7.3269,-7.1374,-6.8773,-6.7667,-6.6899,0.0,0.0,0.0,0.0,0.0,0.0,0.0,0.0,0.0,-7.0739,-7.5288,-7.6844,-7.8639,-8.2769,-8.6539,-9.007,-9.3242,-9.6773,-9.9765,-10.1561,-10.2698,-10.3296,-10.3296,-10.4194,-10.5091,-10.575,-10.6408,-10.7066,-10.7725,-10.8263,-10.8682,-10.8982,-10.946,-10.9819,-10.9999,-11.0597,-11.1136,-11.1675,-11.1435,-11.2333,-11.4308,-11.3889,-11.4487,-11.6043,-11.5505,-11.5385,-11.5385,-11.4188,-11.359,-11.341,-11.2213,-11.1316,-11.0717,-11.0538,-10.97,-10.8503,-10.7785,-10.7605,-10.7485,0.0,0.0,0.0,0.0,0.0,0.0,0.0,0.0,0.0,0.0,0.0,0.0,0.0,0.0,0.0,0.0,0.0,0.0,0.0,0.0,0.0,0.0,0.0,0.0,0.0,0.0,0.0,0.0,0.0,0.0,0.0,0.0,0.0,0.0,-8.6412,-8.6621,-8.6725,-8.7248,-8.7562,-8.7614,-8.7614,-8.7875,-8.8137,-8.6307,-8.4634,-8.3066,-8.1341,-7.9616,-7.8257,-7.857,-7.8204,-7.7441,-7.7629,-7.6741,-7.4911,-7.1215,0.0,-6.5992,-6.3802,-6.4191,0.0,-7.0201,-7.0739,-7.2235,0.0,0.0,-7.9537,-8.3547,-8.5402,-8.6958,-8.9232,-9.1925,-9.4738,-9.7431,-9.9705,-10.162,-10.2997,-10.4792,-10.5989,-10.5989,-10.6109,-10.6408,-10.7126,-10.7785,-10.8443,-10.9101,-10.9221,-10.9819,-11.0897,-11.1016,-11.1375,-11.1974,-11.2632,-11.2991,-11.3111,-11.4188,-11.4607,-11.4308,-11.4787,-11.5206,-11.5385,-11.5265,-11.5565,-11.6103,-11.5385,-11.4727,-11.4128,-11.341,-11.2692,-11.1974,-11.1435,-11.0418,-10.9221,-10.8503,-10.8263,-10.8084,0.0,0.0,0.0,0.0,0.0,0.0,0.0,0.0,0.0,0.0,0.0,0.0,0.0,0.0,0.0,0.0,0.0,0.0,0.0,0.0,0.0,0.0,0.0,0.0,0.0,0.0,0.0,0.0,0.0,0.0,0.0,0.0,-8.6516,-8.7091,-8.73,-8.7614,-8.7928,-8.8137,-8.845,-8.8764,-8.8764,-8.913,-8.9444,-8.7353,-8.5889,-8.453,-8.0714,-7.8048,0.0,-7.6584,-7.5877,-7.5276,-7.7493,-7.6398,-7.3715,-7.1356,-6.8662,0.0,-6.5527,0.0,0.0,0.0,-7.4713,-7.7861,-8.229,-8.3307,-8.4444,-8.8813,-9.1087,-9.3002,-9.5336,-9.7311,-9.9226,0.0,-10.2698,-10.4074,-10.5032,-10.5929,-10.6528,-10.6887,-10.7007,-10.7545,-10.8982,-10.9341,-10.9939,-11.1016,-11.1076,-11.1316,-11.1854,-11.2273,-11.2812,-11.341,-11.341,-11.4009,-11.5625,-11.4188,-11.4368,-11.5984,-11.5505,-11.5684,-11.6403,-11.6403,-11.6403,-11.6283,-11.5565,-11.4906,-11.4188,-11.3171,-11.2333,-11.1615,-11.0597,-11.0119,-10.9819,-10.8802,-10.8144,-10.7665,0.0,0.0,0.0,0.0,0.0,0.0,0.0,0.0,0.0,0.0,0.0,0.0,0.0,0.0,0.0,0.0,0.0,0.0,0.0,0.0,0.0,0.0,0.0,0.0,0.0,0.0,0.0,0.0,0.0,0.0,0.0,-8.7353,-8.7666,-8.8241,-8.8241,-8.8503,-8.8869,-8.8869,-8.9078,-8.9496,-8.9496,-8.9653,-8.9653,-8.73,-8.5366,-8.338,-7.9145,-7.6113,-7.4022,-7.3081,-7.2018,-7.1407,-7.4469,-7.3791,-7.1303,-6.9775,-6.7342,-6.5021,-6.5867,0.0,0.0,-7.4806,-7.906,-8.2991,-8.6201,-8.7856,-8.9771,-9.3721,-9.5815,-9.7611,-9.9885,-10.1261,0.0,-10.3715,-10.4912,-10.5929,-10.6588,-10.6707,-10.6767,-10.7066,-10.7007,-10.7605,-10.958,-11.0119,-11.0897,-11.2213,-11.2632,-11.2872,-11.3111,-11.3769,-11.4428,-11.5086,-11.4607,-11.5505,-11.7719,-11.5206,-11.5086,-11.748,-11.6522,-11.6462,-11.724,-11.742,-11.7061,-11.6283,-11.5804,-11.5086,-11.4188,-11.2872,-11.1974,-11.1435,-11.0178,-10.9819,-10.9939,-10.8982,-10.8263,-10.7545,0.0,0.0,0.0,0.0,0.0,0.0,0.0,0.0,0.0,0.0,0.0,0.0,0.0,0.0,0.0,0.0,0.0,0.0,0.0,0.0,0.0,0.0,0.0,0.0,0.0,0.0,0.0,0.0,0.0,-8.8032,-8.8555,-8.8555,-8.8869,-8.9444,-8.9444,-8.9444,-8.9496,-8.9496,-8.9496,-8.9496,-8.9496,-8.9182,-8.8398,-8.6098,-8.2439,-7.8309,-7.6479,-7.4336,-7.1879,-6.8533,-6.7331,-6.7383,-6.8063,-6.9004,0.0,-6.707,-6.4062,0.0,0.0,0.0,-7.017,-7.9315,-8.3555,-8.7306,-9.3794,-9.5755,-9.6833,-9.8867,-9.9825,-10.0782,-10.2159,-10.2937,-10.3835,-10.5151,-10.5929,-10.6588,-10.7306,-10.7366,-10.7126,-10.6528,-10.5929,-10.6288,0.0,-10.958,-11.0897,-11.2213,-11.347,-11.4487,-11.5146,-11.5804,-11.6462,-11.7121,-11.7121,-11.7719,-11.9096,-11.8378,-11.8078,-11.8198,-11.8138,-11.7839,-11.724,-11.7899,-11.748,-11.6283,-11.6283,-11.5505,-11.4188,-11.2872,-11.2273,-11.2094,-11.0837,-10.9939,-10.94,-10.94,-10.8922,-10.8144,0.0,0.0,0.0,0.0,0.0,0.0,0.0,0.0,0.0,0.0,0.0,0.0,0.0,0.0,0.0,0.0,0.0,0.0,0.0,0.0,0.0,0.0,0.0,0.0,0.0,0.0,0.0,0.0,-8.8398,-8.8398,-8.8607,-8.8607,-8.8921,-8.9496,-8.9496,-8.9496,-8.9496,-8.9496,-8.9757,-9.0019,-8.8816,-8.8712,-8.8712,-8.3651,-8.0205,-7.695,0.0,-6.7056,-6.5345,0.0,0.0,0.0,-6.5756,0.0,0.0,-6.1022,0.0,0.0,0.0,0.0,-7.6777,-8.1882,-8.7338,-9.2196,-9.5316,-9.7719,-9.9466,-10.0603,-9.9586,-9.8748,-9.9705,-10.0004,-10.0723,-10.2518,-10.557,-10.7964,-10.8622,-10.9101,-10.8622,-10.6647,-10.6229,0.0,0.0,0.0,0.0,-11.341,-11.4487,-11.5385,-11.6522,-11.7181,-11.7899,-11.8497,-11.8138,-11.8497,-11.9874,-11.8796,-11.8437,-11.8856,-11.8856,-11.8737,-11.8497,-11.8796,-11.8378,-11.754,-11.6642,-11.5984,-11.5505,-11.3171,-11.2273,-11.2094,-11.0418,-10.9819,-10.9939,-10.8982,-10.8563,-10.8263,0.0,0.0,0.0,0.0,0.0,0.0,0.0,0.0,0.0,0.0,0.0,0.0,0.0,0.0,0.0,0.0,0.0,0.0,0.0,0.0,0.0,0.0,0.0,0.0,0.0,0.0,0.0,-8.4007,-8.4634,-8.5471,-8.6464,-8.7091,-8.7719,-8.8294,-8.8294,-8.8398,-8.8555,-8.8555,-8.8346,-8.7771,-8.5784,-8.4582,-8.3432,-7.8085,-7.4469,0.0,-6.5235,-6.149,-5.9594,0.0,0.0,0.0,0.0,0.0,0.0,0.0,0.0,0.0,0.0,-7.4756,-8.0505,-8.4632,-9.0321,-9.5079,-9.694,-9.9468,-10.162,-10.18,-9.9346,-9.7311,-9.773,-9.7252,-9.7431,-9.9406,-10.2757,-10.5929,-10.8024,-10.7904,-10.7306,-10.6827,-10.5929,-10.5271,0.0,0.0,0.0,-11.2632,-11.4368,-11.5864,-11.7121,-11.8318,-11.9215,-11.9874,-11.9275,-11.9574,-12.0951,-11.9634,-11.9096,-11.9574,-11.9275,-11.9275,-11.9515,-11.9275,-11.8796,-11.8138,-11.6881,-11.6163,-11.5804,-11.3291,-11.2273,-11.2094,-11.0418,-10.9999,-11.0238,-10.9101,-10.8563,-10.8263,0.0,0.0,0.0,0.0,0.0,0.0,0.0,0.0,0.0,0.0,0.0,0.0,0.0,0.0,0.0,0.0,0.0,0.0,0.0,0.0,0.0,0.0,0.0,0.0,0.0,0.0,0.0,-7.5538,-7.7211,-7.9407,-8.2125,-8.3746,-8.4843,-8.5366,-8.5366,-8.568,-8.6203,-8.6203,-8.4948,-8.2805,-8.0505,-7.7316,-7.35,-6.9997,-6.5867,-6.179,-6.0588,0.0,0.0,0.0,0.0,0.0,0.0,0.0,0.0,0.0,0.0,-6.6883,-7.413,-7.7825,-8.1299,-8.7697,-9.231,-9.5713,-9.8323,-10.1104,-10.2987,-10.2151,-9.8987,-9.6114,0.0,0.0,-9.402,-9.6114,-9.8448,-10.162,-10.6169,-10.4673,-10.4194,0.0,0.0,0.0,0.0,0.0,0.0,-11.0298,0.0,-11.5864,-11.73,-11.9215,-12.0592,-12.119,-12.0592,-12.0951,-12.2208,-12.0951,-12.0352,-12.0352,-11.9694,-11.9694,-12.0233,-11.9574,-11.8916,-11.8198,-11.6881,-11.5924,-11.5146,-11.3111,-11.2273,-11.2153,-11.0837,-11.0298,-11.0238,-10.97,-10.8982,-10.8383,0.0,0.0,0.0,0.0,0.0,0.0,0.0,0.0,0.0,0.0,0.0,0.0,0.0,0.0,0.0,0.0,0.0,0.0,0.0,0.0,0.0,0.0,0.0,0.0,0.0,0.0,0.0,0.0,0.0,-7.4232,-7.4963,-7.5382,-7.5695,-7.58,-7.58,-7.6113,-7.6636,-7.6636,-7.6532,-7.627,-7.4388,-7.2977,-7.1618,-6.742,-6.4143,-6.1685,-5.9212,0.0,0.0,0.0,0.0,0.0,0.0,0.0,-6.1836,0.0,0.0,-7.361,-7.8285,-8.2871,-8.6988,-8.9881,-9.2713,-9.4942,-9.5471,-9.7988,-9.9412,-9.6183,-9.3038,-8.9771,0.0,0.0,0.0,-9.396,-10.1381,0.0,-11.1794,-11.1675,0.0,0.0,0.0,-10.8383,-10.7904,-10.8742,0.0,0.0,-11.3769,-11.5984,-11.9275,-12.0412,-12.125,-12.1909,-12.1789,-12.1849,-12.2208,-12.1849,-12.1669,-12.1669,-12.149,-12.125,-12.0951,-12.0293,-11.9634,-11.8796,-11.7061,-11.6163,-11.5864,-11.3291,-11.2273,-11.2153,-11.0837,-11.0298,-11.0298,-11.0119,-10.94,-10.8443,0.0,0.0,0.0,0.0,0.0,0.0,0.0,0.0,0.0,0.0,0.0,0.0,0.0,0.0,0.0,0.0,0.0,0.0,0.0,0.0,0.0,0.0,0.0,0.0,0.0,0.0,0.0,0.0,0.0,0.0,0.0,-7.0049,-7.052,-7.0781,-7.0781,-7.1095,-7.1618,-7.1618,-7.12,0.0,0.0,-6.6861,-6.5397,-6.1802,-5.9919,0.0,0.0,0.0,0.0,0.0,0.0,-6.0788,-6.2992,-6.493,-6.6942,-7.0936,0.0,-7.875,-8.2879,-8.6981,-9.0385,-9.1378,-9.3455,-9.4756,-9.2693,-9.4261,-9.5022,-9.0277,-8.6589,0.0,-8.1004,0.0,0.0,0.0,0.0,0.0,-11.1914,-11.2333,-11.2632,0.0,-11.2872,0.0,-11.1435,-11.2094,-11.3291,0.0,0.0,-11.6941,-12.0053,-12.1071,-12.1789,-12.2208,-12.2208,-12.2208,-12.2208,-12.2208,-12.2208,-12.2208,-12.2208,-12.1968,-12.1609,-12.0652,-11.9993,-11.9515,0.0,-11.6283,-11.6103,-11.3709,-11.2572,-11.2213,-11.1136,-11.0597,-11.0298,-10.9999,-10.946,-10.8862,0.0,0.0,0.0,0.0,0.0,0.0,0.0,0.0,0.0,0.0,0.0,0.0,0.0,0.0,0.0,0.0,0.0,0.0,0.0,0.0,0.0,0.0,0.0,0.0,0.0,0.0,0.0,0.0,0.0,0.0,0.0,0.0,0.0,0.0,0.0,0.0,0.0,0.0,-6.6704,-6.4717,-6.2731,-6.0378,-5.7817,0.0,0.0,0.0,0.0,0.0,0.0,0.0,-6.4868,-6.5051,-6.8149,-7.0313,-7.2604,-7.7383,-8.0351,-8.3031,-8.7176,-9.031,-9.2371,-9.2528,-9.414,-9.4543,-9.0155,-9.0432,-8.9787,-8.398,0.0,-7.732,-7.6575,-8.0048,-8.4205,-8.7676,0.0,-10.4014,-11.0358,-11.0777,-11.1974,-11.6163,-11.5565,-11.5026,-11.5625,-11.5744,-11.6582,-11.8318,-11.8018,-11.8497,-12.0233,-12.143,-12.2088,-12.2208,-12.2088,-12.2088,-12.2208,-12.2088,-12.2088,-12.2208,-12.2208,-12.2208,-12.2028,-12.0831,-12.0233,-11.9934,0.0,0.0,-11.6103,-11.4128,-11.2931,-11.2213,-11.1555,-11.0897,-11.0238,-10.97,-10.946,-10.94,0.0,0.0,0.0,0.0,0.0,0.0,0.0,0.0,0.0,0.0,0.0,0.0,0.0,0.0,0.0,0.0,0.0,0.0,0.0,0.0,0.0,0.0,0.0,0.0,0.0,0.0,0.0,0.0,0.0,0.0,0.0,0.0,0.0,0.0,0.0,0.0,0.0,0.0,0.0,-5.766,-5.7242,-5.6562,-5.5674,0.0,0.0,0.0,0.0,0.0,0.0,0.0,-6.9345,-7.1366,-7.4855,-7.7318,-7.9901,-8.3138,-8.5411,-8.7494,-9.0437,-9.2391,-9.373,-9.4724,-9.3748,-9.1935,-8.8196,-8.6474,0.0,0.0,-7.3954,-7.2915,-7.0214,-7.5128,-8.211,-8.9711,0.0,0.0,0.0,0.0,-11.6582,0.0,0.0,0.0,0.0,0.0,0.0,0.0,0.0,0.0,-12.1011,-12.119,-12.1609,-12.2208,-12.1669,-12.1609,-12.2208,-12.1669,-12.1669,-12.2208,-12.2208,-12.1909,-12.131,-12.0592,-11.9874,-11.9275,0.0,0.0,-11.6103,-11.4128,-11.2931,-11.2213,-11.1555,-11.0897,-11.0298,-11.0238,-10.9819,-10.94,0.0,0.0,0.0,0.0,0.0,0.0,0.0,0.0,0.0,0.0,0.0,0.0,0.0,0.0,0.0,0.0,0.0,0.0,0.0,0.0,0.0,0.0,0.0,0.0,0.0,0.0,0.0,0.0,0.0,0.0,0.0,0.0,0.0,0.0,0.0,0.0,0.0,0.0,0.0,0.0,0.0,0.0,0.0,0.0,0.0,0.0,0.0,0.0,0.0,0.0,-6.9462,-7.4964,-7.9906,-8.2819,-8.464,-8.671,-8.8428,-8.9946,-9.1975,-9.3764,-9.5194,-9.5455,-9.3992,-9.0907,-8.4739,0.0,0.0,0.0,-6.7201,-6.7064,-6.5664,-7.1969,0.0,0.0,0.0,0.0,0.0,0.0,0.0,0.0,0.0,0.0,0.0,0.0,0.0,0.0,0.0,0.0,0.0,-12.119,-12.149,-12.2208,-12.1909,-12.1849,-12.2208,-12.1849,-12.1849,-12.2208,-12.2208,-12.1789,-12.119,-12.0472,-11.9814,-11.9096,0.0,0.0,-11.6223,-11.4487,-11.3231,-11.2273,-11.1914,-11.1196,-11.0298,-11.0298,-11.0119,-10.9879,0.0,0.0,0.0,0.0,0.0,0.0,0.0,0.0,0.0,0.0,0.0,0.0,0.0,0.0,0.0,0.0,0.0,0.0,0.0,0.0,0.0,0.0,0.0,0.0,0.0,0.0,0.0,0.0,0.0,0.0,0.0,0.0,0.0,0.0,0.0,0.0,0.0,0.0,0.0,0.0,0.0,0.0,0.0,0.0,0.0,0.0,0.0,0.0,0.0,0.0,-6.7592,-7.4388,-8.0661,-8.4425,-8.683,-8.8346,-8.9862,-9.1378,-9.2998,-9.4985,-9.6449,-9.5978,-9.4201,-9.028,-8.1759,-7.6793,0.0,-6.3219,-6.1548,-6.18,-6.2428,-6.8546,-7.519,0.0,0.0,0.0,0.0,0.0,0.0,0.0,0.0,0.0,0.0,0.0,0.0,0.0,0.0,0.0,0.0,-12.1011,-12.131,-12.1968,-12.1789,-12.1909,-12.2208,-12.2088,-12.2088,-12.2208,-12.2208,-12.1789,-12.119,-12.0472,-11.9814,-11.9096,0.0,0.0,0.0,-11.5026,-11.3709,-11.2513,-11.2513,-11.1794,-11.0717,-11.0597,-11.0538,-11.0538,0.0,0.0,0.0,0.0,0.0,0.0,0.0,0.0,0.0,0.0,0.0,0.0,0.0,0.0,0.0,0.0,0.0,0.0,0.0,0.0,0.0,0.0,0.0,0.0,0.0,0.0,0.0,0.0,0.0,0.0,0.0,0.0,0.0,0.0,0.0,0.0,0.0,0.0,0.0,0.0,0.0,0.0,0.0,0.0,0.0,0.0,0.0,0.0,0.0,0.0,0.0,-6.6599,-7.2402,-7.9355,-8.5471,-8.6203,0.0,0.0,-9.441,-9.6187,-9.7128,-9.7076,-9.4201,-8.9235,-8.108,0.0,-6.8638,-6.0525,-5.8532,-5.8865,-6.0807,-6.3808,-6.9251,0.0,0.0,-9.0309,0.0,0.0,0.0,-11.8557,0.0,0.0,0.0,0.0,0.0,0.0,0.0,0.0,0.0,-12.0352,-12.0592,-12.131,-12.0712,-12.1011,-12.2208,-12.1609,-12.1609,-12.2208,-12.2208,-12.1789,-12.119,-12.0472,-11.9814,-11.9096,0.0,0.0,0.0,-11.5505,-11.4428,-11.3231,-11.3231,-11.2812,-11.2034,-11.1435,-11.1196,-11.1136,0.0,0.0,0.0,0.0,0.0,0.0,0.0,0.0,0.0,0.0,0.0,0.0,0.0,0.0,0.0,0.0,0.0,0.0,0.0,0.0,0.0,0.0,0.0,0.0,0.0,0.0,0.0,0.0,0.0,0.0,0.0,0.0,0.0,0.0,0.0,0.0,0.0,0.0,0.0,0.0,0.0,0.0,0.0,0.0,0.0,0.0,0.0,0.0,0.0,0.0,0.0,0.0,-6.4038,-6.8993,0.0,0.0,-8.6307,-8.9339,-9.4201,-9.6867,-9.8122,-9.739,-9.3364,-8.7719,-8.0348,0.0,-6.6076,-5.9385,-5.765,-5.786,-5.9486,-6.1948,-6.606,0.0,0.0,0.0,-9.2583,0.0,0.0,0.0,0.0,0.0,0.0,0.0,0.0,0.0,0.0,0.0,0.0,0.0,-12.119,-12.0592,-12.1071,-12.131,-12.1011,-12.1549,-12.1669,-12.1609,-12.1968,-12.1609,-12.0592,-12.0352,-11.9634,-11.8497,0.0,0.0,0.0,-11.5565,-11.4487,-11.3291,-11.3291,-11.2872,-11.2273,-11.1974,-11.1615,-11.1316,0.0,0.0,0.0,0.0,0.0,0.0,0.0,0.0,0.0,0.0,0.0,0.0,0.0,0.0,0.0,0.0,0.0,0.0,0.0,0.0,0.0,0.0,0.0,0.0,0.0,0.0,0.0,0.0,0.0,0.0,0.0,0.0,0.0,0.0,0.0,0.0,0.0,0.0,0.0,0.0,0.0,0.0,0.0,0.0,0.0,0.0,0.0,0.0,0.0,0.0,0.0,0.0,0.0,0.0,0.0,0.0,-8.2491,-8.6411,-9.2423,-9.6344,-9.854,-9.7703,-9.2998,-8.6778,0.0,0.0,-6.4769,-5.9378,-5.7678,-5.7606,-5.9313,-6.1163,-6.3895,0.0,0.0,-7.5347,-8.4803,-8.9591,-9.5576,0.0,0.0,0.0,0.0,0.0,0.0,0.0,0.0,0.0,0.0,0.0,-12.2088,-12.0532,-12.143,-12.1549,-12.0831,-12.1669,-12.1968,-12.149,-12.1968,-12.1669,-12.0831,-12.0412,-11.9754,-11.8737,0.0,0.0,0.0,-11.5565,-11.4607,-11.359,-11.359,-11.3171,-11.2572,-11.2393,-11.1854,-11.1316,0.0,0.0,0.0,0.0,0.0,0.0,0.0,0.0,0.0,0.0,0.0,0.0,0.0,0.0,0.0,0.0,0.0,0.0,0.0,0.0,0.0,0.0,0.0,0.0,0.0,0.0,0.0,0.0,0.0,0.0,0.0,0.0,0.0,0.0,0.0,0.0,0.0,0.0,0.0,0.0,0.0,0.0,0.0,0.0,0.0,0.0,0.0,0.0,0.0,0.0,0.0,0.0,0.0,0.0,0.0,0.0,-7.6242,-8.2663,-8.8869,-9.4201,-9.8122,-9.8122,-9.3364,-8.6778,0.0,0.0,-6.5081,-6.0639,-5.834,-5.7988,-6.0595,-6.1077,-6.2432,-6.6306,-6.8645,-7.3432,-8.3367,-8.7077,0.0,0.0,0.0,0.0,0.0,0.0,0.0,0.0,0.0,0.0,0.0,0.0,-12.3225,-12.125,-12.119,-12.1549,-12.2208,-12.2208,-12.2208,-12.2208,-12.2208,-12.2208,-12.2088,-12.0831,-12.0233,0.0,0.0,0.0,0.0,-11.5565,-11.4906,-11.4308,-11.4308,-11.3889,-11.3231,-11.2513,-11.1854,-11.1196,0.0,0.0,0.0,0.0,0.0,0.0,0.0,0.0,0.0,0.0,0.0,0.0,0.0,0.0,0.0,0.0,0.0,0.0,0.0,0.0,0.0,0.0,0.0,0.0,0.0,0.0,0.0,0.0,0.0,0.0,0.0,0.0,0.0,0.0,0.0,0.0,0.0,0.0,0.0,0.0,0.0,0.0,0.0,0.0,0.0,0.0,0.0,0.0,0.0,0.0,0.0,0.0,0.0,0.0,0.0,0.0,0.0,0.0,-8.0674,-8.5366,-8.8398,-8.7248,-8.3178,-7.8241,-7.3715,0.0,-6.1854,-5.8062,-5.6528,-5.6574,-5.9189,-5.9683,-6.1804,-6.7969,-6.9901,-7.2654,-7.8519,0.0,0.0,0.0,0.0,0.0,0.0,0.0,0.0,0.0,0.0,0.0,0.0,0.0,-12.2327,-11.9874,-12.113,-12.131,-12.0173,-12.149,-12.1968,-12.1549,-12.1968,-12.1669,-12.0831,-12.0412,0.0,0.0,0.0,0.0,0.0,-11.6103,-11.5325,-11.4248,-11.3829,-11.353,-11.3231,-11.2513,-11.2153,-11.1914,0.0,0.0,0.0,0.0,0.0,0.0,0.0,0.0,0.0,0.0,0.0,0.0,0.0,0.0,0.0,0.0,0.0,0.0,0.0,0.0,0.0,0.0,0.0,0.0,0.0,0.0,0.0,0.0,0.0,0.0,0.0,0.0,0.0,0.0,0.0,0.0,0.0,0.0,0.0,0.0,0.0,0.0,0.0,0.0,0.0,0.0,0.0,0.0,0.0,0.0,0.0,0.0,0.0,0.0,0.0,0.0,0.0,0.0,0.0,-7.8605,-8.1882,-8.1466,-7.7961,0.0,0.0,0.0,0.0,0.0,0.0,-5.7221,-5.9436,-6.0295,-6.2186,-6.6962,-6.8465,-7.0859,-7.6066,0.0,0.0,0.0,0.0,0.0,0.0,0.0,0.0,0.0,0.0,0.0,0.0,0.0,-12.2208,-11.9993,-12.143,-12.1609,-12.0352,-12.1609,-12.1849,-12.119,-12.1609,-12.125,-12.0233,-11.9934,0.0,0.0,0.0,0.0,0.0,-11.5385,-11.4727,-11.3889,-11.3171,-11.2931,-11.2812,-11.2153,-11.1914,-11.1794,0.0,0.0,0.0,0.0,0.0,0.0,0.0,0.0,0.0,0.0,0.0,0.0,0.0,0.0,0.0,0.0,0.0,0.0,0.0,0.0,0.0,0.0,0.0,0.0,0.0,0.0,0.0,0.0,-5.8434,-5.7758,-5.6963,0.0,0.0,0.0,0.0,0.0,0.0,0.0,0.0,0.0,0.0,0.0,0.0,0.0,0.0,0.0,0.0,0.0,0.0,0.0,0.0,0.0,0.0,0.0,0.0,0.0,0.0,0.0,0.0,0.0,0.0,0.0,0.0,0.0,0.0,0.0,0.0,0.0,0.0,-5.9245,-6.0831,-6.2027,-6.3086,-6.4216,-6.5473,-6.8764,-7.5886,0.0,0.0,0.0,0.0,0.0,0.0,0.0,0.0,0.0,0.0,0.0,0.0,0.0,0.0,-12.131,-12.1849,-12.2208,-12.2088,-12.2208,-12.1849,-12.119,-12.119,-12.0831,-12.0113,-11.9395,0.0,0.0,0.0,0.0,0.0,-11.3889,-11.335,-11.3231,-11.2572,-11.2273,-11.2213,-11.1615,-11.1375,-11.1316,0.0,0.0,0.0,0.0,0.0,0.0,0.0,0.0,0.0,0.0,0.0,0.0,0.0,0.0,0.0,0.0,0.0,0.0,0.0,0.0,0.0,0.0,0.0,0.0,0.0,0.0,0.0,-5.6114,-5.7461,-5.7256,-5.5578,-5.7221,0.0,0.0,0.0,0.0,0.0,0.0,0.0,0.0,0.0,0.0,0.0,0.0,0.0,0.0,-5.4279,0.0,0.0,0.0,0.0,0.0,0.0,0.0,0.0,0.0,-5.5972,0.0,0.0,0.0,0.0,0.0,0.0,0.0,0.0,0.0,0.0,0.0,0.0,-5.7104,-6.0428,-6.0432,-6.1697,-6.7021,-6.8525,-7.1038,-7.6784,0.0,0.0,0.0,0.0,0.0,0.0,0.0,0.0,0.0,0.0,0.0,0.0,0.0,0.0,-12.1968,-12.2088,-12.1968,-12.143,-12.1909,-12.1849,-12.119,-12.119,-12.0592,-11.9395,-11.8737,0.0,0.0,0.0,0.0,-11.5206,-11.4428,-11.3769,-11.3231,-11.2572,-11.2273,-11.2273,-11.2094,-11.2094,-11.1974,0.0,0.0,0.0,0.0,0.0,0.0,0.0,0.0,0.0,0.0,0.0,0.0,0.0,0.0,0.0,0.0,0.0,0.0,0.0,0.0,0.0,0.0,0.0,0.0,0.0,0.0,0.0,0.0,0.0,-5.8993,0.0,0.0,0.0,0.0,0.0,0.0,0.0,0.0,0.0,0.0,0.0,0.0,0.0,0.0,0.0,0.0,-5.39,-5.4176,0.0,-5.5336,-5.5969,-5.6367,0.0,0.0,0.0,0.0,-5.5998,0.0,0.0,0.0,0.0,0.0,0.0,0.0,0.0,0.0,0.0,0.0,0.0,0.0,-5.8886,0.0,0.0,-6.6021,-6.9103,0.0,0.0,0.0,0.0,0.0,0.0,0.0,0.0,0.0,0.0,0.0,0.0,0.0,0.0,0.0,0.0,0.0,-12.1669,-12.1609,-12.119,-12.1609,-12.1071,-11.9814,-11.9814,-11.9096,-11.7899,-11.7779,0.0,0.0,0.0,0.0,-11.4787,-11.3769,-11.3171,-11.2692,-11.1794,-11.1615,-11.1794,-11.1495,-11.1615,-11.1735,0.0,0.0,0.0,0.0,0.0,0.0,0.0,0.0,0.0,0.0,0.0,0.0,0.0,0.0,0.0,0.0,0.0,0.0,0.0,0.0,0.0,0.0,0.0,0.0,0.0,0.0,0.0,0.0,0.0,0.0,0.0,0.0,0.0,0.0,0.0,0.0,0.0,0.0,0.0,0.0,0.0,0.0,0.0,0.0,0.0,0.0,0.0,0.0,0.0,-5.4262,-5.4787,-5.5472,-5.6704,0.0,0.0,0.0,0.0,0.0,0.0,0.0,0.0,0.0,0.0,0.0,0.0,0.0,0.0,0.0,0.0,0.0,0.0,0.0,0.0,0.0,0.0,0.0,0.0,0.0,0.0,0.0,0.0,0.0,0.0,0.0,0.0,0.0,0.0,0.0,0.0,0.0,0.0,0.0,-12.1011,-12.1011,-12.0891,-12.1071,-12.0233,-11.8198,-11.8198,-11.754,-11.6283,-11.6642,-11.6223,0.0,0.0,0.0,-11.4009,-11.2692,-11.2094,-11.2034,-11.0897,-11.0837,-11.1196,-11.0777,-11.0897,-11.1196,0.0,0.0,0.0,0.0,0.0,0.0,0.0,0.0,0.0,0.0,0.0,0.0,0.0,0.0,0.0,0.0,0.0,0.0,0.0,0.0,0.0,0.0,0.0,0.0,0.0,0.0,0.0,0.0,0.0,0.0,-5.571,-5.7092,-5.7478,0.0,0.0,0.0,0.0,-5.887,-5.8003,-5.6394,0.0,0.0,0.0,0.0,0.0,0.0,0.0,0.0,0.0,-5.5371,-5.5969,-5.6131,-5.6929,0.0,0.0,0.0,0.0,0.0,-5.6876,0.0,0.0,0.0,0.0,0.0,0.0,0.0,0.0,0.0,0.0,0.0,0.0,0.0,0.0,0.0,0.0,0.0,0.0,0.0,0.0,0.0,0.0,0.0,0.0,0.0,0.0,0.0,0.0,0.0,0.0,0.0,0.0,0.0,0.0,-12.0113,-11.9515,-12.0592,-12.0233,-11.8198,-11.8198,-11.748,-11.6223,-11.5206,-11.4906,0.0,0.0,-11.3111,-11.335,-11.2034,-11.1495,-11.1435,-11.1196,-11.1196,-11.1375,-11.1794,-11.1675,-11.1196,0.0,0.0,0.0,0.0,0.0,0.0,0.0,0.0,0.0,0.0,0.0,0.0,0.0,0.0,0.0,0.0,0.0,0.0,0.0,0.0,0.0,0.0,0.0,0.0,0.0,0.0,0.0,0.0,0.0,-5.865,-5.7144,-5.7064,-5.6718,-5.6531,0.0,0.0,-5.868,-5.9799,-5.9211,-5.771,0.0,0.0,0.0,0.0,0.0,0.0,0.0,0.0,0.0,0.0,-5.472,-5.4826,-5.5282,0.0,0.0,0.0,0.0,0.0,-5.6662,0.0,0.0,0.0,0.0,0.0,0.0,0.0,0.0,0.0,0.0,0.0,0.0,0.0,0.0,0.0,0.0,0.0,0.0,0.0,0.0,0.0,0.0,0.0,0.0,0.0,0.0,0.0,0.0,0.0,0.0,0.0,0.0,0.0,0.0,-11.9275,-11.8677,-11.8916,-11.8198,-11.6582,-11.6582,-11.5924,-11.4667,-11.4428,-11.4308,-11.4188,0.0,-11.2812,-11.2692,-11.1735,-11.1316,-11.1316,-11.0897,-11.0777,-11.0837,-11.1136,-11.1016,-11.0717,0.0,0.0,0.0,0.0,0.0,0.0,0.0,0.0,0.0,0.0,0.0,0.0,0.0,0.0,0.0,0.0,0.0,0.0,0.0,0.0,0.0,0.0,0.0,0.0,0.0,0.0,0.0,-5.7121,-5.97,-6.0469,-5.9562,-5.7826,-5.6667,0.0,0.0,0.0,0.0,-5.9801,-5.9615,-5.8174,0.0,0.0,0.0,0.0,0.0,0.0,0.0,0.0,0.0,0.0,0.0,0.0,0.0,0.0,0.0,0.0,-5.5525,-5.6551,-5.6452,-5.7091,0.0,0.0,0.0,0.0,0.0,0.0,0.0,0.0,0.0,0.0,0.0,0.0,0.0,0.0,0.0,0.0,0.0,0.0,0.0,0.0,0.0,0.0,0.0,0.0,0.0,0.0,0.0,0.0,0.0,0.0,0.0,0.0,0.0,0.0,-11.7779,-11.6822,-11.5984,-11.5265,-11.5086,-11.4428,-11.3291,-11.3709,-11.359,-11.3291,-11.2812,-11.2393,-11.1974,-11.1196,-11.0897,-11.1016,-11.0358,-11.0238,-11.0298,-11.0119,-11.0119,-10.9999,0.0,0.0,0.0,0.0,0.0,0.0,0.0,0.0,0.0,0.0,0.0,0.0,0.0,0.0,0.0,0.0,0.0,0.0,0.0,0.0,0.0,0.0,0.0,0.0,0.0,-5.3345,-5.5022,-5.6836,-5.977,-6.1511,-6.1804,-5.899,-5.7294,-5.6667,0.0,0.0,-5.6423,-5.8332,-5.8755,-5.8174,-5.9414,0.0,0.0,0.0,0.0,0.0,0.0,0.0,0.0,0.0,0.0,0.0,0.0,0.0,0.0,0.0,-5.4779,-5.5599,-5.6756,-5.8459,0.0,0.0,0.0,0.0,0.0,0.0,0.0,0.0,0.0,0.0,0.0,0.0,0.0,0.0,0.0,0.0,0.0,0.0,0.0,0.0,0.0,0.0,0.0,0.0,0.0,0.0,0.0,0.0,0.0,0.0,0.0,0.0,0.0,-11.5864,-11.6403,-11.4487,-11.4188,-11.5265,-11.4667,-11.4009,-11.3291,-11.2692,-11.2752,-11.3231,-11.1316,-11.0837,-11.1316,-10.9999,-10.9879,-11.0298,-10.97,-10.9819,-11.0238,-10.97,-10.946,-10.94,0.0,0.0,0.0,0.0,0.0,0.0,0.0,0.0,0.0,0.0,0.0,0.0,0.0,0.0,0.0,0.0,0.0,0.0,0.0,0.0,0.0,0.0,0.0,-5.008,-5.1544,-5.4001,-5.6092,-5.7869,-6.0539,-6.194,-6.1953,-5.9462,0.0,0.0,0.0,0.0,0.0,-5.793,-5.8513,-5.8755,-5.8805,-5.9007,0.0,0.0,0.0,0.0,0.0,0.0,0.0,0.0,0.0,0.0,0.0,0.0,0.0,0.0,-5.4376,-5.4935,-5.5559,-5.7904,0.0,0.0,0.0,0.0,0.0,0.0,0.0,0.0,0.0,0.0,0.0,0.0,0.0,0.0,0.0,0.0,0.0,0.0,0.0,0.0,0.0,0.0,0.0,0.0,0.0,0.0,0.0,0.0,0.0,0.0,0.0,0.0,0.0,-11.5385,-11.5684,-11.3709,-11.2931,-11.341,-11.359,-11.3291,-11.2692,-11.2393,-11.2393,-11.2572,-11.0597,-11.0119,-11.0597,-10.9281,-10.94,-11.0238,-10.964,-10.9819,-11.0238,-10.964,-10.94,-10.9281,0.0,0.0,0.0,0.0,0.0,0.0,0.0,0.0,0.0,0.0,0.0,0.0,0.0,0.0,0.0,0.0,0.0,0.0,0.0,0.0,0.0,0.0,0.0,-5.0112,-5.2165,-5.4892,-5.7242,-5.9333,-6.2208,-6.3097,-6.2208,0.0,0.0,0.0,0.0,0.0,0.0,0.0,-5.7517,-5.7916,-5.7876,-5.8176,0.0,0.0,0.0,0.0,0.0,0.0,0.0,0.0,0.0,0.0,0.0,0.0,0.0,0.0,-5.4634,-5.5434,-5.5164,-5.6842,0.0,0.0,0.0,0.0,0.0,0.0,0.0,0.0,0.0,0.0,0.0,0.0,0.0,0.0,0.0,0.0,0.0,0.0,0.0,0.0,0.0,0.0,0.0,0.0,0.0,0.0,0.0,0.0,0.0,0.0,0.0,0.0,0.0,0.0,-11.4368,-11.2752,-11.1974,-11.1974,-11.2453,-11.2393,-11.1974,-11.2213,-11.2094,-11.1615,-11.0059,-10.952,-10.964,-10.8503,-10.8563,-10.94,-10.94,-10.952,-10.97,-10.9221,-10.8982,-10.8682,0.0,0.0,0.0,0.0,0.0,0.0,0.0,0.0,0.0,0.0,0.0,0.0,0.0,0.0,0.0,0.0,0.0,0.0,0.0,0.0,0.0,0.0,0.0,-5.0419,-5.3335,-5.5657,-5.8235,-6.1163,-6.5083,-6.5606,-6.2783,-6.1282,0.0,0.0,0.0,0.0,0.0,0.0,-5.5478,-5.5606,-5.662,-5.7499,-5.8176,0.0,0.0,0.0,0.0,0.0,0.0,0.0,0.0,0.0,0.0,0.0,0.0,-5.4158,-5.5423,-5.7267,-5.5523,0.0,0.0,0.0,0.0,0.0,0.0,0.0,0.0,0.0,0.0,0.0,0.0,0.0,0.0,0.0,0.0,0.0,0.0,0.0,0.0,0.0,0.0,0.0,0.0,0.0,0.0,0.0,0.0,0.0,0.0,0.0,0.0,0.0,0.0,0.0,-11.2273,-11.1615,-11.1316,-11.1316,-11.1316,-11.1316,-11.1316,-11.1974,-11.1495,-11.0298,-10.964,-10.8982,-10.8263,-10.7665,-10.7366,-10.7485,-10.8862,-10.8982,-10.8383,-10.8383,-10.7964,-10.7306,0.0,0.0,0.0,0.0,0.0,0.0,0.0,0.0,0.0,0.0,0.0,0.0,0.0,0.0,0.0,0.0,0.0,0.0,0.0,0.0,0.0,0.0,0.0,0.0,0.0,0.0,-5.8601,-6.2313,-6.3933,-6.2992,0.0,0.0,0.0,-5.5883,0.0,0.0,0.0,0.0,-5.5128,-5.5478,-5.5606,-5.6624,-5.8172,0.0,0.0,0.0,0.0,0.0,0.0,0.0,0.0,0.0,0.0,0.0,0.0,-5.3853,-5.4398,-5.4996,-5.3948,0.0,0.0,0.0,0.0,0.0,0.0,0.0,0.0,0.0,0.0,0.0,0.0,0.0,0.0,0.0,0.0,0.0,0.0,0.0,0.0,0.0,0.0,0.0,0.0,0.0,0.0,0.0,0.0,0.0,0.0,0.0,0.0,0.0,0.0,0.0,-11.0897,-11.0298,-10.97,-10.9281,-10.97,-11.0418,-11.1316,-11.0597,-10.9999,-10.958,-10.8503,-10.8084,-10.8383,-10.8144,-10.7785,-10.7426,-10.7785,-10.8144,-10.8263,-10.7844,-10.7605,-10.7366,0.0,0.0,0.0,0.0,0.0,0.0,0.0,0.0,0.0,0.0,0.0,0.0,0.0,0.0,0.0,0.0,0.0,0.0,0.0,0.0,0.0,0.0,0.0,0.0,0.0,-5.4524,-5.7294,0.0,0.0,0.0,0.0,0.0,0.0,-5.6562,0.0,-5.7862,0.0,0.0,-5.5579,-5.505,-5.4652,-5.5542,-5.7148,0.0,0.0,0.0,0.0,0.0,0.0,0.0,0.0,0.0,0.0,0.0,0.0,-5.4808,-5.4723,-5.474,0.0,0.0,0.0,0.0,0.0,0.0,0.0,0.0,0.0,0.0,0.0,0.0,0.0,0.0,0.0,0.0,0.0,0.0,0.0,0.0,0.0,0.0,0.0,0.0,0.0,0.0,0.0,0.0,0.0,0.0,0.0,0.0,0.0,0.0,0.0,0.0,-10.9939,-10.958,-10.9221,-10.8802,-10.8922,-10.94,-11.0119,-10.964,-10.9101,-10.8503,-10.7485,-10.7186,-10.7605,-10.7605,-10.7186,-10.6707,-10.7186,-10.7306,-10.7186,-10.7366,-10.7186,-10.7007,0.0,0.0,0.0,0.0,0.0,0.0,0.0,0.0,0.0,0.0,0.0,0.0,0.0,0.0,0.0,0.0,0.0,0.0,0.0,0.0,0.0,0.0,0.0,0.0,0.0,0.0,0.0,0.0,0.0,0.0,0.0,0.0,-5.9385,-5.8563,0.0,-6.0173,0.0,-5.7918,-5.6494,-5.4239,-5.3772,-5.4517,-5.5683,-5.4892,0.0,0.0,0.0,0.0,0.0,0.0,0.0,0.0,0.0,0.0,-5.5181,-5.6311,-5.6018,0.0,0.0,0.0,0.0,0.0,0.0,0.0,0.0,0.0,0.0,0.0,0.0,0.0,0.0,0.0,0.0,0.0,0.0,0.0,0.0,0.0,0.0,0.0,0.0,0.0,0.0,0.0,0.0,0.0,0.0,0.0,0.0,0.0,0.0,0.0,0.0,0.0,-10.9221,-10.9221,-10.9161,0.0,-10.8383,-10.8084,-10.8084,-10.8802,-10.8503,-10.7306,-10.6588,-10.6288,-10.6288,-10.6229,-10.5929,-10.5451,-10.6707,-10.6408,-10.557,-10.6767,-10.6887,-10.6408,0.0,0.0,0.0,0.0,0.0,0.0,0.0,0.0,0.0,0.0,0.0,0.0,0.0,0.0,0.0,0.0,0.0,0.0,0.0,0.0,0.0,0.0,0.0,0.0,0.0,0.0,0.0,0.0,0.0,0.0,0.0,0.0,0.0,-5.8652,0.0,-5.9096,-5.802,-5.5586,-5.4225,-5.3681,-5.3218,-5.3938,-5.5207,-5.5182,-5.5424,0.0,0.0,0.0,0.0,0.0,0.0,0.0,-5.5221,-5.5573,-5.6176,-5.5077,-5.6584,0.0,0.0,0.0,0.0,0.0,0.0,0.0,0.0,0.0,0.0,0.0,0.0,0.0,0.0,0.0,0.0,0.0,0.0,0.0,0.0,0.0,0.0,0.0,0.0,0.0,0.0,0.0,0.0,0.0,0.0,0.0,0.0,0.0,0.0,0.0,0.0,-10.9041,-10.7785,-10.7785,-10.7306,0.0,-10.6109,-10.581,-10.5271,-10.6528,-10.6887,-10.6588,-10.5929,-10.563,-10.563,-10.5032,-10.4732,-10.4613,-10.4912,-10.5211,-10.5451,-10.575,-10.6109,-10.6408,0.0,0.0,0.0,0.0,0.0,0.0,0.0,0.0,0.0,0.0,0.0,0.0,0.0,0.0,0.0,0.0,0.0,0.0,0.0,0.0,0.0,0.0,0.0,0.0,0.0,0.0,0.0,0.0,0.0,0.0,0.0,0.0,0.0,-5.8766,0.0,-5.9615,-5.8187,-5.6361,-5.4848,-5.3558,-5.3419,-5.3695,-5.433,-5.4293,-5.4419,-5.4741,-5.5355,0.0,0.0,0.0,0.0,0.0,0.0,0.0,-5.4879,-5.5412,-5.5969,0.0,0.0,0.0,0.0,0.0,0.0,0.0,0.0,0.0,0.0,0.0,0.0,0.0,0.0,0.0,0.0,0.0,0.0,0.0,0.0,0.0,0.0,0.0,0.0,0.0,0.0,0.0,0.0,0.0,0.0,0.0,0.0,0.0,0.0,0.0,-10.8143,-10.7605,-10.6887,-10.6288,-10.563,-10.4912,-10.4912,-10.4732,-10.4433,-10.551,-10.575,-10.5451,-10.5451,-10.5211,-10.4912,-10.4493,-10.4194,-10.4014,-10.4313,-10.4613,-10.4972,-10.5331,-10.581,-10.6408,0.0,0.0,0.0,0.0,0.0,0.0,0.0,0.0,0.0,0.0,0.0,0.0,0.0,0.0,0.0,0.0,0.0,0.0,0.0,0.0,0.0,0.0,0.0,0.0,0.0,0.0,0.0,0.0,0.0,0.0,0.0,0.0,0.0,-5.9075,0.0,0.0,-5.8399,-5.7385,-5.572,-5.3582,-5.3582,-5.3582,-5.3532,-5.308,-5.3207,-5.3659,-5.3453,-5.4092,-5.5138,-5.4581,0.0,0.0,0.0,0.0,-5.3308,-5.566,-5.5102,-5.5617,0.0,0.0,0.0,0.0,0.0,0.0,0.0,0.0,0.0,0.0,0.0,0.0,0.0,0.0,0.0,0.0,0.0,0.0,0.0,0.0,0.0,0.0,0.0,0.0,0.0,0.0,0.0,0.0,0.0,0.0,0.0,0.0,-10.6804,-10.687,-10.6495,-10.6288,-10.6109,-10.4972,-10.4313,-10.4194,-10.4134,-10.4074,-10.4074,-10.4792,-10.4792,-10.4433,-10.4912,-10.4732,-10.4194,-10.4134,-10.3715,-10.3296,-10.3895,-10.4134,-10.4313,-10.5032,-10.569,-10.6229,0.0,0.0,0.0,0.0,0.0,0.0,0.0,0.0,0.0,0.0,0.0,0.0,0.0,0.0,0.0,0.0,0.0,0.0,0.0,0.0,0.0,0.0,0.0,0.0,0.0,0.0,0.0,0.0,0.0,0.0,0.0,0.0,0.0,0.0,0.0,0.0,0.0,-5.4879,-5.3331,-5.303,-5.303,-5.303,-5.303,-5.298,-5.2714,-5.2481,-5.3527,-5.3687,-5.3602,-5.4638,-5.4835,0.0,0.0,0.0,0.0,-5.3435,0.0,0.0,0.0,0.0,0.0,0.0,0.0,0.0,0.0,0.0,0.0,0.0,0.0,0.0,0.0,0.0,0.0,0.0,0.0,0.0,0.0,0.0,0.0,0.0,0.0,0.0,0.0,0.0,0.0,0.0,0.0,0.0,0.0,-10.7225,-10.6141,-10.6614,-10.6392,-10.581,-10.4673,-10.4493,-10.4134,-10.3535,-10.2997,-10.2757,-10.2757,-10.3416,-10.3954,-10.4373,-10.3895,-10.3595,-10.3535,-10.2997,-10.2698,-10.2638,-10.2698,-10.3117,-10.3595,-10.4313,-10.4972,-10.563,0.0,0.0,0.0,0.0,0.0,0.0,0.0,0.0,0.0,0.0,0.0,0.0,0.0,0.0,0.0,0.0,0.0,0.0,0.0,0.0,0.0,0.0,0.0,0.0,0.0,0.0,0.0,0.0,0.0,0.0,0.0,-5.6657,-5.804,0.0,0.0,0.0,0.0,0.0,0.0,-5.2929,-5.2929,-5.3482,-5.4185,-5.3281,-5.3331,-5.3973,-5.3513,-5.3273,-5.3017,-5.332,-5.3348,-5.3192,-5.1665,0.0,0.0,0.0,0.0,0.0,0.0,0.0,0.0,0.0,0.0,0.0,0.0,0.0,0.0,0.0,0.0,0.0,0.0,0.0,0.0,0.0,0.0,0.0,0.0,0.0,0.0,0.0,0.0,0.0,0.0,0.0,0.0,0.0,0.0,0.0,-10.6989,-10.5439,-10.4739,-10.4318,-10.5048,0.0,-10.3835,-10.3476,-10.3176,-10.2877,-10.2638,-10.2518,-10.2518,-10.2817,-10.3057,-10.3296,-10.3416,-10.3236,-10.2877,-10.2578,-10.2518,-10.2518,-10.2518,-10.2877,-10.3535,-10.4194,-10.4792,-10.551,0.0,0.0,0.0,0.0,0.0,0.0,0.0,0.0,0.0,0.0,0.0,0.0,0.0,0.0,0.0,0.0,0.0,0.0,0.0,0.0,0.0,0.0,0.0,0.0,0.0,0.0,0.0,0.0,0.0,0.0,-5.7056,-5.7892,-5.9515,0.0,-5.8756,0.0,0.0,0.0,0.0,0.0,-5.3532,-5.4084,-5.5089,-5.4285,-5.4637,-5.544,-5.4034,-5.3482,-5.3231,-5.2528,-5.2327,-5.2126,-5.1172,-5.1478,0.0,0.0,0.0,0.0,0.0,0.0,0.0,0.0,0.0,0.0,0.0,0.0,0.0,0.0,0.0,0.0,0.0,0.0,0.0,0.0,0.0,0.0,0.0,0.0,0.0,0.0,0.0,0.0,0.0,0.0,0.0,0.0,0.0,0.0,-10.5439,-10.4854,-10.4151,-10.3157,-10.3843,-10.3835,-10.3176,-10.2698,-10.2518,-10.2518,-10.2518,-10.2518,-10.2518,-10.2518,-10.2518,-10.2518,-10.2997,-10.2937,-10.2518,-10.2518,-10.2518,-10.2518,-10.2518,-10.2877,-10.3535,-10.4194,-10.4792,-10.551,0.0,0.0,0.0,0.0,0.0,0.0,0.0,0.0,0.0,0.0,0.0,0.0,0.0,0.0,0.0,0.0,0.0,0.0,0.0,0.0,0.0,0.0,0.0,0.0,0.0,0.0,0.0,0.0,0.0,0.0,-5.8349,-5.9562,-6.2169,-6.5634,-6.237,-6.006,-5.8504,0.0,0.0,0.0,0.0,0.0,0.0,0.0,0.0,0.0,0.0,0.0,-5.4336,-5.3231,-5.2879,-5.2779,-5.2176,-5.2026,-5.206,0.0,0.0,0.0,0.0,0.0,0.0,0.0,0.0,0.0,0.0,0.0,0.0,0.0,0.0,0.0,0.0,0.0,0.0,0.0,0.0,0.0,0.0,0.0,0.0,0.0,0.0,0.0,0.0,0.0,0.0,0.0,0.0,0.0,-10.6392,-10.6273,-10.5377,-10.3405,-10.3476,-10.3176,-10.2578,-10.2518,-10.2518,-10.2518,-10.2518,-10.2518,-10.2518,-10.2518,-10.2518,-10.2518,-10.2518,-10.2518,-10.2518,-10.2518,-10.2518,-10.2518,-10.2518,-10.2877,-10.3535,-10.4194,-10.4792,-10.551,0.0,0.0,0.0,0.0,0.0,0.0,0.0,0.0,0.0,0.0,0.0,0.0,0.0,0.0,0.0,0.0,0.0,0.0,0.0,0.0,0.0,0.0,0.0,0.0,0.0,0.0,0.0,0.0,0.0,-5.2699,-5.5937,-5.8706,-6.0713,-6.237,-6.1567,-6.0663,-5.9558,-5.6445,0.0,0.0,0.0,0.0,0.0,0.0,0.0,0.0,0.0,0.0,0.0,-5.4637,-5.4034,-5.3331,-5.2779,-5.2377,-5.2076,-5.1875,-5.3202,-5.5972,0.0,0.0,0.0,0.0,0.0,0.0,0.0,0.0,0.0,0.0,0.0,0.0,0.0,0.0,0.0,0.0,0.0,0.0,0.0,0.0,0.0,0.0,0.0,0.0,0.0,0.0,0.0,0.0,0.0,0.0,-10.581,-10.581,-10.5032,-10.3416,-10.3416,-10.3117,-10.2518,-10.2518,-10.2518,-10.2518,-10.2518,-10.2518,-10.2518,-10.2518,-10.2518,-10.2518,-10.2518,-10.2518,-10.2518,-10.2518,-10.2518,-10.2518,-10.2518,-10.2638,-10.2997,-10.4014,-10.4613,-10.4912,0.0,0.0,0.0,0.0,0.0,0.0,0.0,0.0,0.0,0.0,0.0,0.0,0.0,0.0,0.0,0.0,0.0,0.0,0.0,0.0,0.0,0.0,0.0,0.0,0.0,0.0,0.0,0.0,0.0,0.0,0.0,0.0,-5.9558,-6.0613,-6.0412,0.0,0.0,0.0,0.0,-5.6194,0.0,0.0,-5.7801,0.0,0.0,0.0,0.0,0.0,0.0,0.0,0.0,-5.4737,-5.4185,-5.3532,-5.3067,-5.3427,-5.4227,-5.5735,-5.9448,0.0,0.0,0.0,0.0,0.0,0.0,0.0,0.0,0.0,0.0,0.0,0.0,0.0,0.0,0.0,0.0,0.0,0.0,0.0,0.0,0.0,0.0,0.0,0.0,0.0,0.0,0.0,0.0,0.0,-10.5151,-10.4912,-10.4254,-10.3117,-10.3117,-10.2937,-10.2518,-10.2518,-10.2518,-10.2518,-10.2518,-10.2518,-10.2518,-10.2518,-10.2518,-10.2518,-10.2518,-10.2518,-10.2518,-10.2518,-10.2518,-10.2518,-10.2518,-10.2638,-10.2937,-10.4014,-10.4493,-10.4912,0.0,0.0,0.0,0.0,0.0,0.0,0.0,0.0,0.0,0.0,0.0,0.0,0.0,0.0,0.0,0.0,0.0,0.0,0.0,0.0,0.0,0.0,0.0,0.0,0.0,0.0,0.0,0.0,0.0,0.0,0.0,0.0,-5.8956,0.0,-5.9408,-6.0161,-6.2621,0.0,0.0,-5.9408,0.0,-5.7349,-5.6947,0.0,0.0,0.0,-6.0563,-6.0261,0.0,0.0,0.0,0.0,0.0,-5.544,-5.4819,-5.6116,-5.5611,-5.514,0.0,0.0,0.0,0.0,0.0,0.0,0.0,0.0,0.0,0.0,0.0,0.0,0.0,0.0,0.0,0.0,0.0,0.0,0.0,0.0,0.0,0.0,0.0,0.0,0.0,0.0,0.0,0.0,0.0,-10.5091,-10.4433,-10.3715,-10.3117,-10.2518,-10.2518,-10.2518,-10.2518,-10.2518,-10.2518,-10.2518,-10.2518,-10.2518,-10.2518,-10.2518,-10.2518,-10.2518,-10.2518,-10.2518,-10.2518,-10.2518,-10.2518,-10.2518,-10.2518,-10.2877,-10.3476,-10.4134,-10.4792,-10.5451,0.0,0.0,0.0,0.0,0.0,0.0,0.0,0.0,0.0,0.0,0.0,0.0,0.0,0.0,0.0,0.0,0.0,0.0,0.0,0.0,0.0,0.0,0.0,0.0,0.0,0.0,0.0,0.0,0.0,0.0,0.0,0.0,0.0,0.0,-5.8755,-5.9257,-5.9156,-5.765,0.0,0.0,-5.9458,-6.0663,0.0,0.0,0.0,0.0,0.0,-6.3626,0.0,0.0,-6.1366,-5.7901,0.0,0.0,0.0,-5.5101,-5.4819,-5.4678,-5.5318,0.0,0.0,0.0,0.0,0.0,0.0,0.0,0.0,0.0,0.0,0.0,0.0,0.0,0.0,0.0,0.0,0.0,0.0,0.0,0.0,0.0,0.0,0.0,0.0,0.0,0.0,0.0,-10.454,-10.4433,-10.3715,-10.3117,-10.2698,-10.2518,-10.2518,-10.2518,-10.2518,-10.2518,-10.2518,-10.2518,-10.2518,-10.2518,-10.2518,-10.2518,-10.2518,-10.2518,-10.2518,-10.2518,-10.2518,-10.2518,-10.2518,-10.2518,-10.2518,-10.2578,-10.2817,-10.3416,-10.3835,-10.4134,0.0,0.0,0.0,0.0,0.0,0.0,0.0,0.0,0.0,0.0,0.0,0.0,0.0,0.0,0.0,0.0,0.0,0.0,0.0,0.0,0.0,0.0,0.0,0.0,0.0,0.0,0.0,0.0,0.0,0.0,0.0,0.0,0.0,0.0,0.0,0.0,0.0,0.0,0.0,0.0,-6.0462,0.0,0.0,-6.5986,-6.699,0.0,0.0,0.0,-6.7041,-6.7894,-6.4881,0.0,0.0,0.0,0.0,0.0,-5.544,-5.5239,0.0,0.0,0.0,0.0,0.0,0.0,0.0,-7.4715,0.0,0.0,0.0,0.0,0.0,0.0,0.0,0.0,0.0,0.0,0.0,0.0,0.0,0.0,0.0,0.0,0.0,0.0,0.0,0.0,-10.3441,-10.3525,-10.3057,-10.2698,-10.2518,-10.2518,-10.2518,-10.2518,-10.2518,-10.2518,-10.2518,-10.2518,-10.2518,-10.2518,-10.2518,-10.2518,-10.2518,-10.2518,-10.2518,-10.2518,-10.2518,-10.2518,-10.2518,-10.2518,-10.2518,-10.2518,-10.2578,-10.3176,-10.3416,-10.3595,0.0,0.0,0.0,0.0,0.0,0.0,0.0,0.0,0.0,0.0,0.0,0.0,0.0,0.0,0.0,0.0,0.0,0.0,0.0,0.0,0.0,0.0,0.0,0.0,0.0,0.0,0.0,0.0,0.0,0.0,0.0,0.0,0.0,0.0,0.0,0.0,0.0,0.0,0.0,-5.7549,-6.1316,-6.3174,0.0,0.0,-7.0355,0.0,-7.1761,-7.1912,-7.1008,-7.1058,-6.8095,0.0,0.0,0.0,0.0,0.0,-5.6696,0.0,0.0,0.0,0.0,0.0,0.0,0.0,-7.0754,-7.2024,-7.3792,0.0,0.0,0.0,0.0,0.0,0.0,0.0,0.0,0.0,0.0,0.0,0.0,0.0,0.0,0.0,0.0,0.0,-10.2086,-10.2463,-10.2595,-10.2548,-10.2518,-10.2518,-10.2458,-10.2398,-10.2398,-10.2398,-10.2398,-10.2398,-10.2398,-10.2518,-10.2518,-10.2518,-10.2518,-10.2518,-10.2518,-10.2518,-10.2518,-10.2518,-10.2518,-10.2518,-10.2518,-10.2518,-10.2518,-10.2518,-10.2578,-10.3117,-10.3296,-10.3535,0.0,0.0,0.0,0.0,0.0,0.0,0.0,0.0,0.0,0.0,0.0,0.0,0.0,0.0,0.0,0.0,0.0,0.0,0.0,0.0,0.0,0.0,0.0,0.0,0.0,0.0,0.0,0.0,0.0,0.0,0.0,0.0,0.0,0.0,0.0,0.0,0.0,0.0,0.0,-5.8604,-6.1617,0.0,0.0,-7.2012,-7.4222,-7.5879,-7.6883,-7.6532,-7.5126,0.0,-7.0154,-6.8045,0.0,0.0,0.0,0.0,0.0,0.0,0.0,0.0,0.0,0.0,0.0,0.0,-6.3851,-6.6585,-6.9902,0.0,0.0,0.0,0.0,0.0,0.0,0.0,0.0,0.0,0.0,0.0,0.0,0.0,0.0,0.0,0.0,0.0,-10.105,-10.0793,-10.1311,-10.2072,-10.2518,-10.2518,-10.2279,-10.168,-10.168,-10.168,-10.168,-10.168,-10.1979,-10.2518,-10.2518,-10.2518,-10.2518,-10.2518,-10.2518,-10.2518,-10.2518,-10.2518,-10.2518,-10.2518,-10.2518,-10.2518,-10.2518,-10.2518,-10.2518,-10.2638,-10.2698,-10.2817,0.0,0.0,0.0,0.0,0.0,0.0,0.0,0.0,0.0,0.0,0.0,0.0,0.0,0.0,0.0,0.0,0.0,0.0,0.0,0.0,0.0,0.0,0.0,0.0,0.0,0.0,0.0,0.0,0.0,0.0,0.0,0.0,0.0,0.0,0.0,0.0,0.0,0.0,-5.5691,-5.7901,-6.3174,0.0,-7.151,-7.5427,-7.7737,-7.9043,-7.9595,-7.9394,-7.8289,-7.382,-7.161,0.0,0.0,-6.3525,-6.2421,0.0,-5.9508,-5.9106,0.0,0.0,0.0,-5.7881,0.0,0.0,0.0,-6.3529,-6.5916,0.0,0.0,0.0,0.0,0.0,0.0,0.0,0.0,0.0,0.0,0.0,0.0,0.0,0.0,0.0,0.0,0.0,-10.0271,-10.0558,-10.1324,-10.1893,-10.2518,-10.2518,-10.2159,-10.1501,-10.1441,-10.1261,-10.0962,-10.0962,-10.1321,-10.1979,-10.1979,-10.2159,-10.2518,-10.2518,-10.2518,-10.2518,-10.2518,-10.2279,-10.1979,-10.2398,-10.2279,-10.1979,-10.2398,-10.2518,-10.2518,-10.2518,-10.2518,-10.2578,0.0,0.0,0.0,0.0,0.0,0.0,0.0,0.0,0.0,0.0,0.0,0.0,0.0,0.0,0.0,0.0,0.0,0.0,0.0,0.0,0.0,0.0,0.0,-5.2829,0.0,0.0,0.0,0.0,0.0,0.0,0.0,0.0,0.0,0.0,0.0,0.0,0.0,0.0,0.0,-5.8102,0.0,-6.8949,-7.1108,-7.6783,-7.9193,-7.9746,-8.0901,-8.1353,-8.0599,-7.5829,0.0,-7.1309,-6.7894,-6.5936,0.0,0.0,0.0,0.0,0.0,0.0,0.0,0.0,0.0,-6.0013,0.0,0.0,0.0,-6.7296,0.0,0.0,0.0,0.0,0.0,0.0,0.0,0.0,0.0,0.0,0.0,0.0,0.0,0.0,0.0,0.0,-9.8928,-10.047,-10.0377,-10.0941,-10.2219,-10.2279,-10.1979,-10.1261,-10.1142,-10.0842,-10.0304,-10.0304,-10.0603,-10.1261,-10.1261,-10.168,-10.2279,-10.2279,-10.2279,-10.2279,-10.2279,-10.192,-10.1381,-10.1979,-10.1979,-10.1561,-10.2219,-10.2518,-10.2518,-10.2518,-10.2518,-10.2578,0.0,0.0,0.0,0.0,0.0,0.0,0.0,0.0,0.0,0.0,0.0,0.0,0.0,0.0,0.0,0.0,0.0,0.0,-5.5591,0.0,0.0,0.0,0.0,0.0,-5.2929,0.0,0.0,0.0,0.0,0.0,0.0,0.0,0.0,0.0,-5.3632,0.0,0.0,0.0,-5.7901,0.0,-6.6789,-6.7241,0.0,-7.2062,-7.5578,-7.7737,-8.1252,-8.2508,-8.1855,0.0,-7.5728,-7.377,0.0,-6.7744,-6.8447,0.0,0.0,0.0,0.0,0.0,0.0,0.0,-6.1198,0.0,0.0,0.0,-6.4211,-6.3673,0.0,0.0,0.0,0.0,0.0,0.0,0.0,0.0,0.0,0.0,0.0,0.0,0.0,0.0,0.0,0.0,0.0,-9.8996,-9.6703,-9.6949,-10.1381,-10.1561,-10.1261,-10.0603,-10.0004,-9.9705,-9.9586,-9.9586,-9.9945,-10.0603,-10.0603,-10.0962,-10.1561,-10.1561,-10.1561,-10.1561,-10.1561,-10.1201,-10.0663,-10.1261,-10.1561,-10.1561,-10.2219,-10.2518,-10.2518,-10.2518,-10.2518,-10.2518,0.0,0.0,0.0,0.0,0.0,0.0,0.0,0.0,0.0,0.0,0.0,0.0,0.0,0.0,0.0,0.0,0.0,0.0,0.0,0.0,0.0,0.0,0.0,0.0,0.0,0.0,0.0,0.0,-5.2377,0.0,0.0,0.0,0.0,0.0,-5.4034,0.0,-5.6545,0.0,0.0,0.0,0.0,0.0,0.0,-7.5176,-7.9846,-8.1403,-8.306,-8.3612,-8.301,0.0,-7.6682,0.0,0.0,0.0,0.0,0.0,0.0,0.0,0.0,0.0,0.0,0.0,0.0,0.0,0.0,0.0,-6.0527,0.0,0.0,0.0,0.0,0.0,0.0,0.0,0.0,0.0,0.0,0.0,0.0,0.0,0.0,0.0,0.0,0.0,0.0,0.0,0.0,-9.606,-9.9586,-10.0124,-10.0184,-9.9945,-9.9645,-9.9346,-9.8927,-9.8927,-9.9286,-9.9945,-9.9945,-10.0304,-10.0902,-10.0902,-10.0902,-10.0902,-10.0902,-10.0782,-10.0543,-10.1201,-10.1441,-10.1561,-10.2219,-10.2518,-10.2518,-10.2518,-10.2518,-10.2518,0.0,0.0,0.0,0.0,0.0,0.0,0.0,0.0,0.0,0.0,0.0,0.0,-5.996,-6.1115,0.0,0.0,0.0,-6.1617,0.0,0.0,-5.6445,0.0,0.0,0.0,0.0,0.0,0.0,0.0,0.0,0.0,0.0,0.0,0.0,0.0,0.0,-5.6495,-5.8654,0.0,0.0,-6.3023,-6.7141,-6.9049,-7.0305,-7.8289,-8.2558,-8.4315,-8.4315,-8.4416,-8.3964,-8.0047,-7.7687,0.0,-7.623,0.0,0.0,0.0,0.0,0.0,-6.4228,0.0,0.0,0.0,0.0,0.0,0.0,0.0,0.0,0.0,0.0,0.0,0.0,0.0,0.0,0.0,0.0,0.0,0.0,0.0,0.0,0.0,0.0,0.0,0.0,0.0,0.0,0.0,-9.2798,-9.3328,-9.7252,-9.791,-9.8568,-9.9466,-9.9346,-9.9107,-9.8808,-9.8628,-9.8748,-9.9226,-9.9226,-9.9586,-10.0184,-10.0184,-10.0184,-10.0184,-10.0423,-10.0364,-10.0304,-10.1082,-10.1441,-10.1561,-10.2219,-10.2518,-10.2518,-10.2518,-10.2518,-10.2518,-4.0058,-4.1419,0.0,0.0,0.0,0.0,0.0,0.0,0.0,0.0,0.0,0.0,0.0,0.0,0.0,0.0,0.0,-6.7292,-6.6689,0.0,-5.8152,0.0,0.0,0.0,0.0,0.0,0.0,0.0,0.0,0.0,0.0,0.0,0.0,0.0,0.0,-5.8202,-6.0362,-6.2621,-6.6338,-7.0857,-7.2665,-7.6883,-8.1754,0.0,-8.0549,-8.4315,-8.4315,0.0,0.0,-8.065,-7.9294,0.0,0.0,0.0,0.0,0.0,0.0,0.0,0.0,0.0,0.0,-6.3375,0.0,0.0,0.0,0.0,-6.2266,0.0,0.0,0.0,0.0,0.0,0.0,0.0,0.0,0.0,0.0,0.0,0.0,0.0,0.0,0.0,0.0,0.0,0.0,-8.8324,-8.5612,-8.7105,-9.4379,-9.4738,-9.6234,-9.9406,-9.8867,-9.8867,-9.9466,-9.8867,-9.8508,-9.8568,-9.8568,-9.8927,-9.9526,-9.9526,-9.9526,-9.9586,-10.0184,-10.0124,-9.9645,-10.0962,-10.1441,-10.1561,-10.2219,-10.2518,-10.2518,-10.2518,-10.2518,-10.2518,0.0,0.0,0.0,0.0,0.0,0.0,0.0,-5.077,0.0,0.0,0.0,0.0,0.0,0.0,-7.3016,0.0,0.0,-7.1861,-6.9803,-6.6589,0.0,0.0,0.0,-5.7449,0.0,0.0,0.0,0.0,0.0,0.0,0.0,0.0,0.0,0.0,0.0,-5.8554,0.0,0.0,0.0,0.0,0.0,-7.8088,-8.1604,0.0,0.0,-8.4918,-8.532,-8.5571,0.0,-8.3763,-8.1754,-7.9997,-8.0298,-7.8038,-7.5327,-7.5879,-7.5527,0.0,0.0,0.0,-7.4322,-6.8396,0.0,0.0,0.0,0.0,0.0,0.0,0.0,0.0,0.0,0.0,0.0,0.0,0.0,0.0,0.0,0.0,0.0,0.0,0.0,0.0,0.0,0.0,0.0,-8.3825,-8.2326,-8.3823,0.0,-9.11,-9.3062,-9.5516,-9.6653,-9.7311,-9.7551,-9.773,-9.785,-9.785,-9.785,-9.8209,-9.8867,-9.8389,-9.8448,-9.8867,-9.9526,-9.9945,-10.0184,-10.1082,-10.174,-10.2159,-10.2398,-10.2518,-10.2518,-10.2518,-10.2518,-10.2518,-4.0505,0.0,0.0,0.0,0.0,0.0,0.0,0.0,0.0,0.0,-6.463,0.0,-7.4372,0.0,-7.6883,0.0,-7.8289,-7.6632,-7.2263,-7.1209,0.0,-6.5785,-6.3576,0.0,0.0,0.0,0.0,0.0,0.0,-5.3532,0.0,0.0,0.0,0.0,0.0,0.0,0.0,0.0,-7.0204,0.0,0.0,-8.0499,0.0,0.0,-8.4466,0.0,0.0,-8.6023,-8.5922,-8.532,-8.3713,-8.2156,-8.316,-8.065,-7.7536,-7.8591,-7.7988,-7.6833,-7.5829,-7.7185,0.0,-7.2514,-7.1761,0.0,-6.4128,0.0,0.0,0.0,0.0,0.0,0.0,0.0,0.0,0.0,0.0,0.0,0.0,0.0,0.0,0.0,0.0,0.0,0.0,0.0,-7.6858,-7.895,-7.8656,-8.0139,0.0,0.0,-9.013,-9.2823,-9.5037,-9.6414,-9.6892,-9.7072,-9.7192,-9.7192,-9.7192,-9.7491,-9.8149,-9.767,-9.785,-9.8568,-9.9466,-10.0064,-10.0603,-10.1501,-10.2099,-10.2518,-10.2518,-10.2398,-10.2159,-10.2398,-10.2518,-10.2518,0.0,0.0,0.0,0.0,-4.4593,0.0,0.0,0.0,-5.8152,0.0,-6.689,-7.0958,-7.603,-7.8942,-8.0549,-8.0599,-8.296,0.0,-7.4674,-7.5527,0.0,0.0,-6.8296,-6.7643,-6.6538,0.0,0.0,0.0,0.0,0.0,0.0,0.0,0.0,0.0,-5.6545,0.0,-6.4731,-6.8597,-7.3519,-7.8992,-8.2759,-8.3914,-8.3562,-8.4717,0.0,-8.301,-8.5169,-8.6023,-8.5922,-8.537,-8.5169,-8.4918,-8.3914,-8.316,-8.2508,-8.1453,-8.1503,-8.1353,-7.8741,-7.8792,-7.8842,-7.5578,0.0,0.0,0.0,0.0,-6.9501,0.0,0.0,0.0,0.0,0.0,0.0,0.0,0.0,0.0,0.0,0.0,0.0,0.0,0.0,0.0,0.0,-7.0831,-7.1575,-7.4092,-7.4351,-7.5816,0.0,0.0,-8.7257,-9.1207,-9.402,-9.6055,-9.7252,-9.6773,-9.6533,-9.6473,-9.6533,-9.6833,-9.7431,-9.7431,-9.785,-9.8568,-9.9885,-10.0483,-10.0603,-10.192,-10.2458,-10.2458,-10.2458,-10.2039,-10.1561,-10.2219,-10.2458,-10.2518,-3.8581,0.0,-4.0033,0.0,0.0,-4.667,0.0,0.0,0.0,0.0,-7.11,-7.6531,-8.2709,-8.4096,-8.4797,-8.5549,-8.5999,0.0,0.0,0.0,0.0,-7.8289,-7.5075,-7.3016,-7.2313,-6.7141,0.0,-6.222,0.0,0.0,-5.6344,0.0,0.0,0.0,0.0,0.0,-6.468,-6.8196,-7.4021,-8.1102,-8.2508,-8.301,0.0,0.0,-8.4366,-8.3512,-8.532,-8.6023,-8.5973,-8.5822,-8.5219,-8.4567,-8.4667,-8.4064,-8.3211,-8.296,-8.3261,-8.3512,-8.2809,-8.2809,-8.2457,-7.9947,-7.839,-7.6582,0.0,0.0,0.0,0.0,0.0,0.0,0.0,0.0,0.0,0.0,0.0,0.0,0.0,0.0,0.0,0.0,0.0,0.0,-6.6593,-6.7405,-6.8178,-6.8835,-6.8958,-7.0829,0.0,0.0,0.0,-8.7137,-9.1686,-9.402,-9.384,-9.5157,-9.5576,-9.5097,-9.5636,-9.6174,-9.6833,-9.6833,-9.7132,-9.785,-9.9167,-10.0004,-10.0543,-10.1381,-10.174,-10.174,-10.174,-10.168,-10.1501,-10.168,-10.2099,-10.2518,-3.9539,0.0,0.0,0.0,0.0,0.0,-5.2361,0.0,0.0,-6.6632,-7.2063,0.0,-8.1926,-8.4529,-8.6169,-8.6651,-8.6832,0.0,0.0,0.0,0.0,-8.1553,-8.0039,-7.8536,-7.6984,-7.1725,0.0,-6.5132,0.0,0.0,-5.6646,0.0,0.0,0.0,0.0,-5.8956,0.0,-6.93,-7.5176,-8.0901,-8.2407,0.0,0.0,-8.4968,-8.4968,-8.4416,-8.5571,-8.6023,-8.5973,-8.5722,-8.5219,-8.4717,-8.4717,-8.4315,-8.3864,-8.3864,-8.4215,-8.4667,-8.4667,-8.4868,-8.4767,-8.3512,-8.2508,-8.0951,-7.7687,-7.7687,-7.7737,0.0,0.0,0.0,0.0,0.0,0.0,0.0,0.0,0.0,0.0,0.0,0.0,0.0,-6.4909,0.0,-6.4619,-6.5954,-6.6781,-6.6329,-6.7419,-6.8867,0.0,0.0,0.0,-8.3487,-8.8993,-9.2105,-9.2583,-9.402,-9.4379,-9.3721,-9.408,-9.4917,-9.6114,-9.5875,-9.6533,-9.797,-9.8748,-9.9586,-10.0543,-10.1201,-10.168,-10.186,-10.1561,-10.168,-10.186,-10.1561,-10.186,-10.2518,0.0,0.0,0.0,0.0,0.0,0.0,0.0,-5.7996,0.0,-6.7224,0.0,-7.6369,-7.8468,-8.2991,-8.5991,0.0,0.0,-8.6222,-8.2647,-8.6139,-8.6218,-8.1892,-8.3187,-8.2938,-8.059,-7.5882,0.0,0.0,0.0,0.0,0.0,0.0,0.0,0.0,0.0,0.0,0.0,-7.0857,-7.618,0.0,-8.2206,-8.3713,-8.4567,-8.5521,-8.5671,-8.532,-8.5822,-8.6023,-8.5922,-8.532,-8.5069,-8.4968,-8.4567,-8.4416,-8.4315,-8.4416,-8.4818,-8.5219,-8.5169,-8.5571,-8.6023,-8.6023,-8.6023,-8.5119,-8.1754,-8.0951,-8.065,-7.9595,-7.7486,-7.6783,0.0,0.0,0.0,0.0,0.0,0.0,0.0,0.0,0.0,0.0,0.0,0.0,0.0,-6.5489,-6.6083,-6.5056,-6.7113,-6.7783,0.0,0.0,0.0,-8.0734,-8.6419,0.0,-9.2464,0.0,-9.3182,-9.2583,-9.2583,-9.3541,-9.5336,-9.4858,-9.5935,-9.8269,-9.8329,-9.9167,-10.0483,-10.1082,-10.174,-10.2279,-10.168,-10.186,-10.2279,-10.18,-10.1979,-10.2518,0.0,0.0,0.0,0.0,0.0,0.0,0.0,-6.3993,-6.79,-7.2308,-7.8174,0.0,-8.3538,-8.5366,-8.6739,-8.7586,-8.8357,0.0,0.0,0.0,0.0,-8.499,-8.4497,-8.356,-8.2032,-7.7003,-7.2616,0.0,0.0,0.0,0.0,0.0,0.0,0.0,0.0,0.0,-6.5082,-7.0656,0.0,-7.8892,-8.1202,-8.3261,-8.5019,-8.5219,-8.5521,-8.5872,-8.5973,-8.6023,-8.5922,-8.532,-8.4818,-8.4567,-8.4868,-8.4667,-8.4416,-8.4868,-8.542,-8.5722,-8.532,-8.5571,-8.6023,-8.6023,-8.6023,-8.5822,-8.5169,-8.4968,-8.4818,-8.4115,-8.3612,-8.2106,-7.8289,0.0,0.0,0.0,0.0,0.0,0.0,0.0,0.0,0.0,0.0,0.0,0.0,0.0,0.0,0.0,0.0,0.0,0.0,0.0,0.0,0.0,0.0,0.0,0.0,0.0,-9.2703,-9.2583,-9.2583,-9.3062,-9.396,-9.4379,-9.5456,-9.6952,-9.7431,-9.8748,-10.0483,-10.0603,-10.1082,-10.168,-10.1501,-10.1561,-10.168,-10.2159,-10.2398,-10.2518,0.0,0.0,0.0,0.0,0.0,0.0,0.0,-6.5399,0.0,-7.2988,-7.7019,-7.9735,-8.0579,-8.3566,-8.604,-8.7447,-8.7834,-8.8027,-8.8027,-8.8073,-8.7671,-8.6236,-8.5464,0.0,-8.2991,-7.8583,-7.4187,-6.9684,0.0,0.0,0.0,0.0,0.0,0.0,0.0,-5.991,0.0,0.0,0.0,-7.7084,-8.0147,-8.2759,-8.4818,-8.537,-8.5772,-8.5973,-8.5671,-8.5571,-8.5521,-8.5219,-8.4818,-8.4416,-8.4968,-8.4968,-8.4868,-8.542,-8.5772,-8.5922,-8.5671,-8.5822,-8.6023,-8.6023,-8.6023,-8.6023,-8.6023,-8.6023,-8.5822,-8.5219,-8.5119,-8.3462,-7.7888,-7.2163,0.0,0.0,0.0,0.0,0.0,0.0,0.0,0.0,0.0,0.0,0.0,0.0,0.0,0.0,0.0,0.0,0.0,0.0,0.0,0.0,0.0,0.0,0.0,0.0,0.0,-9.3318,-9.2909,-9.3122,-9.4139,-9.408,-9.5157,-9.7072,-9.7012,-9.8149,-10.0004,-10.0364,-10.0902,-10.1441,-10.1441,-10.168,-10.2039,-10.2398,-10.2518,-10.2518,0.0,-4.5321,0.0,0.0,-5.2308,0.0,0.0,-6.5682,-7.0036,-7.3393,-7.5618,-7.7126,-7.8208,-8.2248,-8.5519,-8.7106,-8.7251,-8.7494,-8.798,-8.798,-8.7444,-8.6162,-8.5547,-8.4574,-8.3081,-8.01,-7.5735,0.0,0.0,0.0,0.0,0.0,0.0,0.0,0.0,0.0,0.0,0.0,-7.2213,-7.608,-7.9846,-8.2558,-8.4416,-8.542,-8.5822,-8.5722,-8.5169,-8.4918,-8.4818,-8.5069,-8.4818,-8.4416,-8.4968,-8.5119,-8.5219,-8.5671,-8.5922,-8.5973,-8.5822,-8.5922,-8.6023,-8.6023,-8.6023,-8.6023,-8.6023,-8.6023,-8.5922,-8.542,-8.5219,-8.3512,-7.8189,-7.4322,0.0,0.0,0.0,0.0,0.0,0.0,0.0,0.0,0.0,0.0,-6.4897,0.0,0.0,0.0,0.0,-6.4988,-6.5624,-6.743,0.0,0.0,0.0,-8.6823,-9.0646,0.0,-9.4684,0.0,-9.4055,-9.4304,-9.5517,-9.4464,-9.5316,-9.7543,-9.689,-9.767,-9.9526,-10.0184,-10.0902,-10.1441,-10.1441,-10.186,-10.2518,-10.2518,-10.2518,-10.2518,0.0,0.0,0.0,0.0,0.0,0.0,0.0,-6.6595,-7.1228,-7.65,-7.8718,-8.068,-8.2978,-8.4605,-8.6096,-8.7683,-8.7828,-8.7828,-8.778,-8.7828,-8.7108,-8.5034,-8.4455,-8.3451,-8.2526,-8.0132,-7.6758,0.0,0.0,-6.1983,-5.7081,-5.4419,0.0,0.0,0.0,0.0,0.0,-7.0003,-7.392,-7.7787,-8.1152,-8.3261,-8.4416,-8.4968,-8.5219,-8.5169,-8.4567,-8.4064,-8.3813,-8.4818,-8.4818,-8.4416,-8.4968,-8.5119,-8.5169,-8.5219,-8.5571,-8.5922,-8.537,-8.5571,-8.6023,-8.6023,-8.6023,-8.6023,-8.6023,-8.6023,-8.5973,-8.5922,-8.547,-8.3763,-7.9193,-7.9243,-7.7787,0.0,0.0,0.0,0.0,0.0,-7.3954,-7.3062,0.0,0.0,0.0,0.0,0.0,0.0,0.0,-6.4114,-6.4268,-6.6961,-6.9796,-7.2654,0.0,-8.274,-8.789,-9.1748,0.0,-9.7369,-9.7214,-9.7655,-9.8254,-9.659,-9.6569,-9.8042,-9.6995,-9.767,-9.9526,-10.0184,-10.0902,-10.1441,-10.1441,-10.186,-10.2518,-10.2518,-10.2518,-10.2518,0.0,0.0,0.0,0.0,0.0,0.0,0.0,-6.5789,-6.9108,-7.3406,-7.7209,-8.0626,-8.3601,-8.4894,-8.6144,-8.7732,-8.7876,-8.8068,-8.8357,-8.7732,-8.6866,-8.5711,-8.4846,-8.3884,-8.2826,-8.1334,-7.8089,0.0,0.0,-6.3224,-5.8692,-5.5411,0.0,0.0,0.0,-6.4279,-6.8346,-7.2263,-7.5778,-7.8992,-8.1955,-8.3813,-8.4818,-8.5069,-8.5119,-8.5069,-8.4165,-8.3914,-8.4064,-8.4466,-8.4466,-8.4466,-8.542,-8.5671,-8.5671,-8.5671,-8.5822,-8.5922,-8.5722,-8.5822,-8.6023,-8.6023,-8.6023,-8.6023,-8.6023,-8.6023,-8.6023,-8.6023,-8.5822,-8.5019,-8.2909,-8.085,-7.8992,0.0,0.0,0.0,0.0,0.0,0.0,-7.1837,0.0,-6.8572,0.0,0.0,0.0,0.0,0.0,-6.5571,-6.5022,-6.7888,-7.0408,-7.2208,0.0,-8.3944,-8.7768,-9.2906,-9.6181,-9.7587,-9.8409,-9.8725,-9.8662,-9.8849,-9.8816,-9.8809,-9.7653,-9.7551,-9.8329,-9.8568,-9.9526,-10.0902,-10.0902,-10.1561,-10.2518,-10.2518,-10.2518,-10.2518,-5.3945,0.0,-5.6042,0.0,-6.0429,-6.2125,-6.4422,-6.5586,-6.7447,-7.0835,-7.4497,-7.8485,-8.2613,-8.4467,-8.6241,-8.7972,-8.7972,-8.8213,-8.8838,-8.8068,-8.7202,-8.6337,-8.5471,0.0,-8.3595,-8.2441,-7.968,-7.5113,-7.047,0.0,-6.1885,0.0,0.0,0.0,-6.4512,-6.7693,-7.1359,-7.4774,-7.7637,-8.0097,-8.2508,-8.3964,-8.4667,-8.4667,-8.4667,-8.4567,-8.3763,-8.3763,-8.4165,-8.4466,-8.4567,-8.4717,-8.5671,-8.6023,-8.6023,-8.6023,-8.6023,-8.6023,-8.6023,-8.6123,-8.6174,-8.6023,-8.6123,-8.6174,-8.6023,-8.6023,-8.6023,-8.6023,-8.6023,-8.5922,-8.547,-8.2708,-8.07,-8.1453,0.0,0.0,0.0,0.0,0.0,-7.075,-6.8354,-6.6146,-6.3569,0.0,0.0,0.0,0.0,0.0,-6.6704,-6.8986,0.0,0.0,0.0,0.0,0.0,-9.3124,-9.6588,-9.7587,-9.8978,-9.9671,-9.9756,-10.0903,-10.0455,-9.887,-9.8236,-9.7844,-9.7491,-9.7491,-9.8568,-10.0184,-10.0423,-10.1201,-10.2219,-10.2398,-10.2518,-10.2518,-5.7226,-5.8515,-6.0039,-6.3047,-6.4297,-6.5,-6.5469,-6.5937,-6.7328,-7.0423,-7.1125,-7.3986,-8.0152,-8.346,-8.6385,-8.8501,-8.8213,-8.8357,-8.9415,-8.8982,-8.7972,0.0,0.0,-8.523,-8.4701,-8.3114,-8.1238,-7.9074,0.0,0.0,-6.7097,0.0,-6.4506,-6.7037,-6.927,-7.2012,-7.5327,-7.7536,-7.9444,-8.1152,-8.2809,-8.3512,-8.3512,-8.3512,-8.3512,-8.3512,-8.3512,-8.3512,-8.3663,-8.4717,-8.5119,-8.5219,-8.5822,-8.6023,-8.6023,-8.6023,-8.6023,-8.6023,-8.6023,-8.6374,-8.6625,-8.6123,-8.6374,-8.6625,-8.6123,-8.6023,-8.6023,-8.6023,-8.6023,-8.6023,-8.6023,-8.547,-8.4215,-8.1503,0.0,0.0,0.0,0.0,0.0,-7.1426,-6.9265,-6.7348,-6.606,0.0,0.0,0.0,0.0,0.0,0.0,0.0,0.0,-7.1815,-7.6237,0.0,-8.5648,-9.1564,-9.5538,-9.7587,-9.8978,-10.0549,-10.2205,-10.2917,-10.1383,-9.8193,-9.887,-9.8521,-9.7491,-9.7491,-9.8269,-9.9586,-10.0184,-10.0902,-10.1561,-10.2279,-10.2518,-10.2518,-6.1094,-6.1601,-6.2226,-6.3476,-6.4375,-6.5078,-6.5547,-6.6211,-6.7049,-6.8453,-7.0333,-7.2496,-7.4968,-7.9402,-8.369,0.0,-8.7443,-8.7635,0.0,-8.7924,-8.7202,-8.6337,-8.6144,-8.5615,-8.4701,-8.4605,-8.3307,-8.0805,0.0,0.0,0.0,-6.824,-6.9578,-7.2123,-7.3596,-7.5833,-7.8741,-8.0147,-8.1302,-8.2257,-8.3562,-8.4064,-8.4014,-8.3612,-8.3512,-8.3512,-8.3512,-8.3713,-8.4165,-8.4918,-8.5671,-8.6274,-8.6425,-8.6274,-8.6023,-8.6023,-8.6023,-8.6023,-8.6023,-8.6123,-8.6174,-8.6023,-8.6123,-8.6174,-8.6023,-8.6023,-8.6023,-8.6023,-8.6023,-8.6023,-8.6023,-8.5822,-8.532,-8.4064,-8.2909,0.0,0.0,0.0,-7.23,-6.9663,-6.684,-6.4205,0.0,-6.4498,0.0,0.0,0.0,0.0,0.0,0.0,0.0,0.0,-7.904,0.0,-8.7335,-9.2084,-9.5137,-9.6603,-9.8254,-10.0421,-10.3068,-10.1012,-10.0839,-10.2177,-9.95,-9.8533,-9.846,-9.7362,-9.791,-9.9526,-9.9705,-10.0483,-10.1501,-10.168,-10.2099,-10.2518,-6.3164,-6.3555,-6.3828,-6.4101,-6.4844,-6.5508,-6.5781,-6.6406,-6.6992,-6.7226,-6.8705,-7.0537,-7.245,-7.5546,0.0,-8.5158,-8.6428,-8.7106,-8.7828,-8.7395,-8.6866,-8.6337,-8.6337,-8.5904,-8.499,0.0,0.0,-8.2441,-7.9218,-7.6188,-7.3254,-7.3034,-7.4272,-7.6393,-7.716,-7.8823,-8.0729,-8.1604,-8.2156,-8.2708,-8.3412,-8.3713,-8.3663,-8.3311,-8.3311,-8.3512,-8.3713,-8.4165,-8.4717,-8.527,-8.6073,-8.6776,-8.6776,-8.6676,-8.6575,-8.6374,-8.6174,-8.6023,-8.6023,-8.6174,-8.6274,-8.6073,-8.6174,-8.6274,-8.6073,-8.6023,-8.6023,-8.6023,-8.6023,-8.6023,-8.6023,-8.6023,-8.5772,-8.4968,-8.3612,-8.1704,-7.8842,0.0,-7.0907,-6.7744,0.0,0.0,0.0,-6.4332,0.0,0.0,0.0,0.0,0.0,0.0,0.0,-7.677,-8.1379,0.0,-8.8666,-9.2399,-9.4456,-9.4804,-9.7038,-9.9167,-10.103,-10.0676,-10.1242,-10.2513,-10.0748,-9.9478,-9.864,-9.7923,-9.808,-9.8808,-9.9286,-10.0004,-10.0782,-10.1261,-10.174,-10.2159,-6.375,-6.4414,0.0,0.0,-6.5703,0.0,-6.6211,-6.6562,-6.6875,-6.6875,-6.6875,-6.8161,-7.1532,-7.216,-7.5054,-8.1707,0.0,0.0,0.0,-8.7347,-8.6866,-8.6385,-8.6337,0.0,-8.5663,-8.5134,-8.4605,-8.4076,-8.0998,-7.9507,-7.9459,-7.8402,-7.8641,-7.9516,-8.006,-8.0786,-8.1895,-8.1942,-8.2206,-8.2658,-8.2708,-8.2708,-8.2658,-8.2759,-8.306,-8.3562,-8.4165,-8.4717,-8.5219,-8.5822,-8.6374,-8.6826,-8.6776,-8.7178,-8.7529,-8.6927,-8.6425,-8.6073,-8.6023,-8.6374,-8.6625,-8.6123,-8.6425,-8.6625,-8.6123,-8.6023,-8.6023,-8.6196,-8.6023,-8.6023,-8.6196,-8.5973,-8.5571,-8.4466,-8.3311,-8.1152,-7.7285,-7.3569,-6.9752,0.0,0.0,0.0,0.0,-6.6323,-6.8045,0.0,0.0,0.0,0.0,0.0,-7.545,-7.9867,-8.3429,-8.6716,-8.983,-9.2344,-9.3242,-9.2583,-9.5475,-9.6858,-9.725,-10.1094,-10.1781,-10.0115,-10.2218,-10.1383,-9.8589,-9.9039,-9.8693,-9.7789,-9.9108,-9.9648,-9.9645,-10.0962,-10.1441,-10.1561,0.0,0.0,-6.5039,-6.5351,-6.5859,-6.6211,-6.6211,-6.6562,-6.6875,-6.6875,-6.6875,-6.7441,-6.9073,-7.0896,-7.308,-7.5484,-8.0685,-8.476,-8.7007,-8.7202,-8.7058,-8.6962,-8.6529,-8.6481,-8.6721,-8.6625,-8.6241,-8.576,-8.3739,-8.2826,-8.2729,-8.2188,-8.1981,-8.2337,-8.1978,-8.2352,-8.2988,-8.2659,-8.2477,-8.2708,-8.311,-8.306,-8.2759,-8.3612,-8.3763,-8.3612,-8.4567,-8.5069,-8.5219,-8.5822,-8.6625,-8.7329,-8.6927,-8.7178,-8.7529,-8.6927,-8.6676,-8.6525,-8.6123,-8.6073,-8.6174,-8.6023,-8.6425,-8.6625,-8.6123,-8.6324,-8.6924,-8.8355,-8.7255,-8.6419,-8.8303,-8.6847,-8.5119,-8.4416,-8.2357,-7.9595,-7.613,-7.372,-7.1058,0.0,-6.7744,-6.7693,-6.6739,-6.7439,-6.7928,0.0,0.0,0.0,0.0,-7.3647,-7.6914,-8.2428,-8.5742,-8.874,-9.1865,-9.3002,-9.3242,-9.2583,-9.3932,-9.5079,-9.651,-9.7845,-10.0272,-10.3144,-10.1761,-10.1731,-10.2778,-10.1696,-10.0557,-9.9599,-10.0455,-10.0244,-9.9586,-10.0423,-10.1082,-10.1561,-6.6712,-6.7845,-6.8412,-6.7719,-6.7914,-6.7946,-6.6774,-6.668,-6.6875,-6.6875,-6.6875,-6.7226,-6.8086,-6.9408,-7.1262,-7.3402,-7.8987,-8.3122,-8.4348,-8.5612,-8.6481,-8.6721,-8.6481,-8.6481,-8.6721,-8.6721,-8.6481,-8.5952,-8.5086,-8.4509,-8.422,-8.3739,-8.3442,-8.3142,-8.2839,-8.2935,-8.329,-8.2719,-8.2877,-8.306,-8.311,-8.296,-8.2759,-8.3612,-8.3914,-8.3964,-8.4818,-8.532,-8.5621,-8.6174,-8.6927,-8.758,-8.7529,-8.778,-8.7881,-8.7329,-8.6776,-8.6374,-8.6073,-8.6174,-8.6425,-8.6676,-8.6776,-8.6676,-8.6425,-8.7219,-8.8173,-8.9175,-8.9122,-8.9122,-8.9339,-8.7787,-8.5929,-8.3578,-8.0449,-7.7134,-7.382,-7.1711,0.0,-6.7643,-6.9049,-6.9853,-6.8999,-7.0305,-7.0569,-6.8795,0.0,0.0,-7.3481,-7.6503,-7.9877,-8.3431,-8.6646,-8.9288,-9.1686,-9.2344,-9.2823,-9.3062,-9.3421,-9.4354,-9.5916,-9.7121,-9.9127,-10.1857,-10.1317,-10.1606,-10.2586,-10.189,-10.1298,-10.0911,-10.1596,-10.1772,-10.1477,-10.1633,-10.188,-10.2365,-6.9345,-7.1399,-7.2246,-7.1024,-7.0708,-7.001,-6.7923,-6.7206,-6.6992,-6.7031,-6.7031,-6.7383,-6.8203,-6.8281,-6.9588,-7.2632,-7.7457,-8.0773,-8.1647,-8.4173,-8.5904,-8.6385,-8.6385,-8.6337,-8.6433,-8.6385,-8.6144,-8.576,-8.5615,-8.5279,-8.4846,-8.4268,-8.3691,-8.3114,-8.3094,-8.3245,-8.3013,-8.2795,-8.2958,-8.3245,-8.306,-8.2859,-8.2859,-8.3512,-8.4064,-8.4516,-8.5069,-8.5571,-8.6073,-8.6625,-8.7128,-8.768,-8.8182,-8.8383,-8.8333,-8.768,-8.6826,-8.6073,-8.6023,-8.6374,-8.6877,-8.7379,-8.7178,-8.6877,-8.6676,-8.7834,-8.9009,-8.9771,-9.1004,-9.1641,-9.0149,-8.8927,-8.682,-8.2229,-7.8289,-7.4573,-7.1108,0.0,-6.8045,-6.7442,-7.0003,-7.1661,-7.1309,-7.3669,-7.392,-7.0807,-7.4073,-7.5951,0.0,-7.9846,-8.2623,-8.3978,-8.7027,-8.9418,-9.0908,-9.1506,-9.2344,-9.3421,-9.3661,-9.4259,-9.5277,-9.7132,-9.8348,-9.9117,-10.0681,-10.112,-10.0811,-10.1603,-10.1857,-10.1759,-10.2778,-10.3376,-10.3806,-10.3494,-10.3294,-10.3011,-6.9394,-7.0412,-7.1309,-7.3433,-7.2102,-7.0629,-7.0751,-6.8865,-6.7539,-6.7969,-6.7969,-6.8203,-6.8633,-6.8711,-6.9206,-6.9898,-7.3012,-7.692,-8.1859,-8.4694,-8.6433,-8.6962,-8.6577,-8.6529,-8.6962,-8.6529,-8.6481,-8.6866,-8.6,-8.5471,-8.5375,-8.4846,-8.4076,-8.3114,-8.3018,-8.29,-8.266,-8.2915,-8.2993,-8.2859,-8.3695,-8.3763,-8.3462,-8.4466,-8.4968,-8.5069,-8.5671,-8.5922,-8.6073,-8.6625,-8.7128,-8.763,-8.768,-8.8032,-8.8283,-8.7178,-8.6776,-8.6525,-8.6123,-8.6374,-8.6776,-8.6877,-8.7178,-8.7278,-8.6324,-8.6599,-8.826,-9.1536,-9.1004,-9.0363,-9.1852,-8.9305,-8.5522,-8.0614,-7.6883,-7.3167,-6.8899,0.0,-7.0204,-6.92,-7.2715,-7.5427,-7.5829,-7.5477,-7.5377,-7.5678,-7.5309,-7.6343,-7.9163,-8.0791,-8.2965,-8.6071,-8.8686,-9.0782,-9.2284,-9.2404,-9.2524,-9.2763,-9.39,-9.4259,-9.396,-9.6525,-9.8123,-9.9178,-9.9902,-10.0786,-10.173,-10.3283,-10.297,-10.192,-10.4118,-10.4442,-10.3908,-10.5027,-10.4571,-10.3188,-7.2304,-7.3545,-7.481,-7.6805,-7.6219,-7.4324,-7.1871,-7.066,-6.9678,-6.8382,-6.8203,-6.8359,-6.875,-6.8828,-6.8984,-6.9375,-7.1939,-7.4592,-7.7346,-8.1384,-8.4599,-8.6673,-8.6721,-8.6866,-8.7106,-8.6866,-8.6577,-8.6241,-8.6337,-8.6096,-8.5519,-8.5279,-8.4749,-8.398,-8.398,-8.4013,-8.4157,-8.357,-8.3708,-8.4376,-8.3976,-8.3745,-8.3612,-8.4717,-8.4968,-8.4818,-8.5671,-8.6023,-8.6174,-8.7278,-8.763,-8.778,-8.8684,-8.8735,-8.8383,-8.7881,-8.7278,-8.6776,-8.6826,-8.7278,-8.768,-8.768,-8.763,-8.7429,-8.6625,-8.7696,-8.9414,-9.2171,-9.3174,-9.3702,-9.441,-9.1228,-8.7342,-8.3191,-7.6665,0.0,0.0,-7.132,-7.1956,-7.4591,-7.6908,-7.8667,-7.9849,-7.8238,-7.7333,-7.8419,-7.7894,-7.8724,-8.1704,-8.2542,-8.4104,-8.6846,-8.8922,-9.0536,-9.123,-9.1398,-9.1925,-9.2583,-9.3601,-9.4439,-9.5217,-9.6773,-9.7844,-9.8244,-9.8911,-9.9404,-9.9954,-10.1361,-10.1913,-10.192,-10.4432,-10.5298,-10.5434,-10.6844,-10.6764,-10.5888,-7.4611,-7.6342,-7.7732,-7.9786,-7.9688,-7.7779,-7.3237,-7.2455,-7.1354,-6.8735,-6.8476,-6.8892,-7.0064,-6.9544,-6.9402,-7.0318,-7.1801,-7.2713,-7.3361,-7.7163,-8.1201,-8.5131,-8.6287,-8.6818,-8.6962,-8.6962,-8.6577,-8.5904,-8.6577,-8.6577,-8.5904,-8.5615,-8.523,-8.4701,-8.4701,-8.4883,-8.5233,-8.4075,-8.427,-8.5475,-8.4204,-8.3776,-8.3964,-8.4818,-8.4968,-8.4818,-8.5671,-8.6073,-8.6425,-8.778,-8.8032,-8.8032,-8.9438,-8.9337,-8.8634,-8.8484,-8.7881,-8.7278,-8.768,-8.8132,-8.8484,-8.8484,-8.8032,-8.7656,-8.7552,-8.8857,-9.0729,-9.3011,-9.5154,-9.6605,-9.6099,-9.3267,-8.9639,-8.5698,0.0,0.0,0.0,-7.3769,-7.4138,-7.9467,-8.0723,-8.1598,-8.3129,-8.1274,-8.0454,-8.093,-8.1456,-8.2466,-8.3895,-8.4998,-8.6162,-8.761,-8.9157,-9.0011,-9.0179,-9.0813,-9.1757,-9.3062,-9.39,-9.5097,-9.6593,-9.7371,-9.767,-9.7551,-9.803,-9.796,-9.7826,-9.9316,-10.0576,-10.1524,-10.3802,-10.5205,-10.617,-10.7939,-10.8231,-10.7777,-7.4209,-7.5121,-7.6626,-8.1806,-8.0916,-7.8395,-7.5884,-7.3919,-7.1884,-6.9558,-6.9336,-7.054,-7.3546,-7.1141,-7.0579,-7.3546,-7.1482,-7.0522,-7.2609,-7.3492,-7.6538,-8.1555,-8.4367,-8.5856,-8.6385,-8.6385,-8.6577,-8.701,-8.6577,-8.6577,-8.6962,-8.6,-8.523,-8.4701,-8.4701,-8.4413,-8.4118,-8.4003,-8.3977,-8.4122,-8.4206,-8.4576,-8.5069,-8.5119,-8.547,-8.5922,-8.5973,-8.6324,-8.6826,-8.7429,-8.8032,-8.8534,-8.9136,-8.9287,-8.9136,-8.8634,-8.8383,-8.8383,-8.8383,-8.8433,-8.8484,-8.8484,-8.8032,-8.8109,-8.9674,-8.954,-9.063,-9.497,-9.584,-9.6043,-9.5987,-9.4469,-9.1274,-8.5861,0.0,0.0,-7.7172,-7.6565,-7.7585,-8.0808,-8.3087,-8.4578,-8.5336,-8.5142,-8.4872,-8.4362,-8.6068,-8.6907,-8.6602,-8.8463,-8.9407,-8.9584,-8.9642,-9.004,-9.0833,-9.208,-9.3377,-9.4499,-9.5755,-9.6414,-9.6593,-9.785,-9.8089,-9.7491,-9.7551,-9.7309,-9.6826,-9.8559,-9.9548,-10.0442,-10.2216,-10.3693,-10.5187,-10.7748,-10.752,-10.6392,-7.2078,-7.4166,-7.6441,-8.058,-8.1903,-8.1184,-7.699,-7.5891,-7.4298,-6.9938,-6.9687,-7.0936,-7.3888,-7.3246,-7.2946,-7.4147,-7.2741,-7.1519,-7.0343,-7.1966,-7.5818,-8.1676,-8.4221,-8.576,-8.6337,-8.6337,-8.6385,-8.6625,-8.6721,-8.6914,-8.7106,-8.6385,-8.6096,-8.6192,-8.5519,-8.5516,-8.5991,-8.5215,-8.5233,-8.5613,-8.5473,-8.5101,-8.5169,-8.5571,-8.5571,-8.5521,-8.5922,-8.6123,-8.6425,-8.7278,-8.778,-8.8082,-8.9036,-8.9287,-8.9287,-8.9438,-8.9488,-8.9488,-8.9488,-8.9237,-8.8785,-8.8132,-8.778,-8.8058,-8.9426,-8.9757,-9.1002,-9.523,-9.6324,-9.6898,-9.796,-9.5856,-9.3402,-9.1162,0.0,-8.2199,-8.2762,-8.2795,-8.3565,-8.611,-8.7164,-8.8107,-8.9106,-8.734,-8.6435,-8.6975,-8.7672,-8.8391,-8.875,-8.9462,-8.9816,-8.9816,-9.0167,-9.0811,-9.1623,-9.2442,-9.362,-9.5217,-9.5755,-9.6174,-9.6593,-9.7072,-9.6952,-9.6354,-9.6773,-9.6354,-9.5456,-9.7297,-9.8251,-9.8729,-10.1369,-10.2983,-10.4087,-10.6582,-10.717,-10.6689,-7.1203,-7.3074,-7.529,-7.8393,-8.1463,-8.1982,-7.7254,-7.7195,-7.5822,-7.1402,-7.041,-7.1214,-7.4259,-7.4437,-7.4614,-7.5648,-7.5226,-7.37,-7.0343,-7.168,-7.5433,-8.1493,-8.3213,-8.4801,-8.6048,-8.6385,-8.6577,-8.6577,-8.7106,-8.7347,-8.7347,-8.6625,-8.6625,-8.7058,-8.6,-8.6047,-8.7152,-8.6131,-8.62,-8.6864,-8.6218,-8.5699,-8.5671,-8.5922,-8.5772,-8.547,-8.6023,-8.6374,-8.6676,-8.7529,-8.8032,-8.8283,-8.9036,-8.9287,-8.9387,-8.994,-9.009,-9.0141,-9.0342,-8.994,-8.9287,-8.8132,-8.778,-8.8008,-8.9207,-9.0408,-9.1911,-9.523,-9.6987,-9.8018,-9.9258,-9.7298,-9.5598,-9.5005,-9.0489,-8.7394,-8.8636,-8.8494,-8.89,-9.12,-9.1427,-9.1768,-9.2619,-9.0377,-8.9291,-9.0048,-9.0178,-9.0333,-9.0624,-9.0745,-9.0629,-9.0454,-9.0861,-9.1803,-9.31,-9.3453,-9.4454,-9.5935,-9.6294,-9.6533,-9.6593,-9.6773,-9.6533,-9.5935,-9.6174,-9.5755,-9.5037,-9.6773,-9.7611,-9.8149,-10.0604,-10.205,-10.2901,-10.5209,-10.6088,-10.6041,-7.2025,-7.2036,-7.2454,-7.6087,-7.9022,-7.9756,-7.705,-7.7238,-7.6667,-7.4364,-7.1883,-7.1412,-7.5126,-7.5058,-7.6111,-7.8687,-7.8462,-7.684,-7.3118,-7.2367,-7.479,-8.0486,-8.0774,-8.2262,-8.5471,-8.6577,-8.7106,-8.7106,-8.7635,-8.7876,-8.7876,-8.6818,-8.6625,-8.7058,-8.6,-8.6047,-8.7152,-8.6131,-8.6347,-8.7411,-8.6318,-8.6374,-8.6726,-8.6174,-8.6023,-8.6073,-8.6625,-8.7128,-8.768,-8.8283,-8.8785,-8.9287,-8.9287,-8.9287,-8.9387,-8.994,-9.009,-9.0241,-9.0794,-9.0542,-8.9839,-8.8735,-8.8032,-8.8109,-8.9894,-9.143,-9.332,-9.5581,-9.7704,-9.9395,-9.9395,-9.8873,-9.8002,-9.6725,-9.439,-9.3131,-9.432,-9.2886,-9.2733,-9.5318,-9.5622,-9.5622,-9.5622,-9.4983,-9.4344,-9.3706,-9.3648,-9.3415,-9.2777,-9.2719,-9.2428,-9.179,-9.179,-9.2913,-9.5046,-9.5046,-9.5644,-9.6593,-9.791,-9.785,-9.6593,-9.7192,-9.7132,-9.6533,-9.5875,-9.5576,-9.5695,-9.6952,-9.791,-9.8628,-10.0004,-10.0902,-10.1626,-10.3512,-10.4226,-10.4466,-6.9224,-7.2079,-7.5029,-7.6422,-7.9337,-8.1035,-8.0255,-8.019,-7.8794,-7.4164,-7.3164,-7.3492,-7.4561,-7.6502,-7.8174,-7.8942,-8.0229,-7.881,-7.3118,-7.2367,-7.304,-7.5011,-7.8777,-8.149,-8.2775,-8.5179,-8.6577,-8.6577,-8.7443,-8.7876,-8.7876,-8.7202,-8.7154,-8.7587,-8.576,-8.523,-8.5951,-8.6171,-8.6384,-8.6453,-8.6795,-8.6901,-8.6726,-8.6174,-8.6224,-8.6575,-8.6726,-8.7128,-8.763,-8.778,-8.8232,-8.8785,-8.9187,-8.9538,-8.994,-9.0542,-9.0693,-9.0693,-9.0844,-9.0542,-8.994,-8.9237,-8.8283,-8.8109,-8.9894,-9.0191,-9.1429,-9.5174,-9.6648,-9.7505,-9.92,-9.9221,-9.8815,-9.8002,-9.7269,-9.6093,-9.4688,-9.5212,-9.5519,-9.4859,-9.3926,-9.3528,-9.3788,-9.3074,-9.2336,-9.1975,-9.3542,-9.4054,-9.3415,-9.3822,-9.3764,-9.3125,-9.3125,-9.384,-9.5207,-9.4689,-9.5644,-9.791,-9.7431,-9.6952,-9.6533,-9.6294,-9.5815,-9.5217,-9.4977,-9.4917,-9.5037,-9.6773,-9.791,-9.8688,-10.0483,-10.1561,-10.2406,-10.2903,-10.3028,-10.3088,-7.0093,-7.3291,-7.6205,-7.5727,-7.882,-8.131,-8.0259,-8.0864,-8.0416,-7.7476,-7.6377,-7.5563,-7.4904,-7.8261,-8.048,-7.946,-8.1116,-8.0552,-7.6347,-7.3794,-7.245,-7.2533,-7.5925,-7.9001,-8.1509,-8.3532,-8.5274,-8.6337,-8.7202,-8.7587,-8.7587,-8.701,-8.6962,-8.7202,-8.5711,-8.5324,-8.5657,-8.6455,-8.6666,-8.6255,-8.7123,-8.7429,-8.7027,-8.6525,-8.6625,-8.7128,-8.7379,-8.768,-8.7981,-8.8182,-8.8534,-8.8885,-8.9187,-8.9538,-8.994,-9.0693,-9.0944,-9.1045,-9.1446,-9.1045,-9.0342,-9.004,-8.8785,-8.7883,-8.8619,-8.9103,-9.0149,-9.2848,-9.4765,-9.6447,-9.7903,-9.875,-9.9279,-9.8873,-9.8815,-9.8252,-9.6618,-9.7401,-9.7847,-9.6365,-9.4895,-9.3964,-9.4301,-9.2667,-9.1689,-9.2027,-9.3152,-9.4003,-9.446,-9.5041,-9.4925,-9.4054,-9.4054,-9.4529,-9.5726,-9.4802,-9.5403,-9.7789,-9.7432,-9.7072,-9.6593,-9.6414,-9.5995,-9.5396,-9.5396,-9.5396,-9.5516,-9.7491,-9.8508,-9.9107,-10.1082,-10.2099,-10.2518,-10.2518,-10.2518,-10.2518,-7.3154,-7.531,-7.6184,-7.4382,-7.8251,-8.0955,-7.9075,-8.0597,-8.2122,-8.2749,-8.0184,-7.7742,-7.579,-8.058,-8.2659,-8.0156,-8.1683,-8.2214,-8.1109,-7.6391,-7.3458,-7.2705,-7.2869,-7.5476,-8.0928,-8.1968,-8.352,-8.5758,-8.6818,-8.7106,-8.701,-8.6529,-8.6337,-8.6289,-8.5663,-8.5372,-8.5644,-8.6602,-8.6912,-8.6715,-8.7223,-8.768,-8.763,-8.7027,-8.7178,-8.778,-8.8283,-8.8484,-8.8634,-8.9136,-8.9287,-8.9287,-8.9287,-8.9287,-8.9538,-9.0593,-9.0894,-9.1145,-9.2099,-9.1647,-9.0844,-9.0794,-8.9187,-8.7529,-8.7027,-8.8158,-8.9175,-8.9391,-9.2748,-9.5637,-9.5987,-9.7704,-9.92,-9.9395,-9.9395,-9.9395,-9.9395,-9.9395,-9.9395,-9.9395,-9.7448,-9.593,-9.5987,-9.3392,-9.2158,-9.2921,-9.2756,-9.3392,-9.5361,-9.6129,-9.6086,-9.4809,-9.4751,-9.5228,-9.6369,-9.5199,-9.5513,-9.707,-9.7908,-9.791,-9.6773,-9.7371,-9.7252,-9.6593,-9.6653,-9.6653,-9.6833,-9.8688,-9.9526,-9.9765,-10.174,-10.2518,-10.2518,-10.2518,-10.2518,-10.2458,-7.274,-7.4845,-7.7429,-7.9404,-8.1092,-8.2506,-8.3737,-8.4699,-8.4309,-8.2122,-8.1247,-7.9852,-7.7953,-8.0928,-8.305,-8.2912,-8.5369,-8.5111,-8.1708,-8.0708,-7.8794,-7.5925,-7.3753,-7.4342,-7.7677,-8.0799,-8.2352,-8.2671,-8.5607,-8.6866,-8.6481,-8.6385,-8.6337,-8.6241,-8.4846,-8.4172,-8.4311,-8.5158,-8.5526,-8.6074,-8.7162,-8.7823,-8.8232,-8.763,-8.778,-8.8283,-8.8383,-8.8735,-8.9136,-8.9287,-8.9287,-8.9287,-8.9287,-8.9588,-8.994,-9.0191,-9.0593,-9.0844,-9.0693,-9.0442,-9.0191,-8.9789,-8.8935,-8.8232,-8.8132,-8.7782,-8.7867,-8.9582,-9.0835,-9.239,-9.549,-9.639,-9.7249,-9.92,-9.9395,-9.9395,-9.9395,-9.9395,-9.9395,-9.9395,-9.7049,-9.5481,-9.593,-9.3392,-9.1869,-9.2008,-9.358,-9.4499,-9.4442,-9.6631,-9.7421,-9.6144,-9.6086,-9.6144,-9.6507,-9.6592,-9.7514,-9.909,-9.8382,-9.8027,-9.8149,-9.8748,-9.8149,-9.6593,-9.7072,-9.7311,-9.7431,-9.8867,-9.9825,-10.0423,-10.192,-10.2518,-10.2518,-10.2518,-10.2518,-10.2646,-7.2988,-7.5395,-7.7693,-7.9201,-8.1001,-8.1968,-8.2398,-8.3334,-8.3532,-8.2445,-8.2014,-8.1567,-8.0569,-8.332,-8.5523,-8.5805,-8.6899,-8.6667,-8.4301,-8.2798,-8.1064,-7.8777,-7.6055,-7.459,-7.4122,-7.7766,-8.028,-8.1509,-8.3812,-8.5174,-8.5952,-8.6241,-8.5904,-8.5134,-8.4557,-8.3836,-8.321,-8.473,-8.5429,-8.5401,-8.6684,-8.7773,-8.8383,-8.7831,-8.8132,-8.8885,-8.8885,-8.9036,-8.9287,-8.9287,-8.9287,-8.9287,-8.9287,-8.9488,-8.9789,-9.004,-9.0291,-9.0542,-9.0542,-9.0291,-9.004,-8.9789,-8.9036,-8.8383,-8.8132,-8.7379,-8.7227,-8.8294,-8.935,-9.0724,-9.2971,-9.4174,-9.5508,-9.7505,-9.7704,-9.8101,-9.92,-9.9395,-9.9395,-9.9395,-9.722,-9.5246,-9.4505,-9.1942,-9.0519,-9.1563,-9.2582,-9.3267,-9.399,-9.6552,-9.7538,-9.6551,-9.6492,-9.6667,-9.6957,-9.6856,-9.7891,-9.9881,-9.9142,-9.8917,-9.9101,-9.9642,-9.9406,-9.8448,-9.8808,-9.8927,-9.8987,-10.0004,-10.0663,-10.1082,-10.2099,-10.2518,-10.2518,-10.2518,-10.2518,-10.2892,-7.3402,-7.523,-7.6998,-7.75,-7.9425,-8.0439,-7.8847,-7.9916,-8.1274,-8.1911,-8.1638,-8.184,-8.2933,-8.6112,-8.7972,-8.7924,-8.7587,-8.7251,-8.701,-8.4207,-8.2195,-8.15,-7.8687,-7.5826,-7.3158,-7.479,-7.7385,-8.0637,-8.163,-8.3438,-8.5519,-8.6,-8.5471,-8.422,-8.4461,-8.3836,-8.2912,-8.4633,-8.538,-8.5236,-8.6287,-8.7423,-8.8283,-8.7881,-8.8333,-8.9136,-8.9287,-8.9287,-8.9287,-8.9187,-8.9187,-8.9287,-8.9187,-8.9187,-8.9387,-8.9839,-9.004,-9.0191,-9.0542,-9.0392,-9.004,-8.989,-8.9187,-8.8383,-8.763,-8.7178,-8.6877,-8.6776,-8.8294,-8.9738,-9.0071,-9.1535,-9.3446,-9.5693,-9.5987,-9.6849,-9.92,-9.9395,-9.9395,-9.9395,-9.7704,-9.5784,-9.3527,-9.1158,-9.0258,-9.1726,-9.1803,-9.2495,-9.4158,-9.6322,-9.7189,-9.6551,-9.6609,-9.6957,-9.7479,-9.7073,-9.7903,-10.0173,-9.9822,-9.9795,-9.9676,-10.0413,-10.0538,-10.0299,-10.0603,-10.0663,-10.0663,-10.1261,-10.1561,-10.168,-10.2279,-10.2518,-10.2518,-10.2518,-10.2398,-10.2712,-7.293,-7.3741,-7.4721,-7.6998,-7.8408,-7.9012,-7.7806,-7.8496,-7.9012,-7.8309,-7.8133,-7.9488,-8.2638,-8.6443,-8.8357,-8.7972,-8.8213,-8.7876,-8.6481,-8.6431,-8.571,-8.4228,-8.1323,-7.9499,-7.9574,-7.5039,-7.4169,-7.7385,-8.0346,-8.2868,-8.5519,-8.5615,-8.5519,-8.5279,-8.4365,-8.4166,-8.4391,-8.438,-8.4876,-8.592,-8.6516,-8.7173,-8.778,-8.8182,-8.8433,-8.8634,-8.9136,-8.9287,-8.9187,-8.8735,-8.8885,-8.9187,-8.8735,-8.8885,-8.9287,-8.9387,-8.9739,-9.004,-8.9639,-8.9789,-8.989,-8.8935,-8.8935,-8.8785,-8.7278,-8.7178,-8.7379,-8.6877,-8.7002,-8.7696,-8.9113,-8.966,-9.127,-9.5378,-9.5987,-9.6849,-9.92,-9.9395,-9.9395,-9.9395,-9.92,-9.8101,-9.5784,-9.5322,-9.4189,-9.2794,-9.3691,-9.4574,-9.4975,-9.6552,-9.7189,-9.6551,-9.7073,-9.7421,-9.7479,-9.7944,-9.8583,-9.959,-9.9997,-9.9971,-9.9822,-10.0981,-10.0813,-9.9929,-10.0896,-10.1381,-10.1381,-10.1441,-10.18,-10.2398,-10.2458,-10.2518,-10.2518,-10.2518,-10.2099,-10.2052,-7.0942,-7.1202,-7.1939,-7.4721,-7.5823,-7.6078,-7.5696,-7.6205,-7.6375,-7.5739,-7.6078,-7.7489,-8.0423,-8.4149,-8.6213,-8.5979,-8.7472,-8.7972,-8.7251,-8.6866,-8.6241,-8.523,-8.3657,-8.1755,-7.9948,-7.7727,-7.6392,-7.6365,-7.8616,-8.1001,-8.326,-8.5087,-8.5615,-8.5038,-8.5077,-8.4876,-8.4866,-8.4855,-8.5401,-8.6367,-8.6318,-8.6874,-8.763,-8.7881,-8.8182,-8.8534,-8.9086,-8.9287,-8.9187,-8.8634,-8.8634,-8.8785,-8.8534,-8.8634,-8.8885,-8.9187,-8.9438,-8.9588,-8.9337,-8.9438,-8.9438,-8.8634,-8.8634,-8.8892,-8.8601,-8.8893,-8.855,-8.7052,-8.7848,-8.8805,-8.9644,-9.0839,-9.2652,-9.5434,-9.5987,-9.6849,-9.92,-9.9395,-9.9395,-9.9395,-9.9395,-9.8946,-9.7903,-9.6849,-9.5581,-9.456,-9.4484,-9.4582,-9.4582,-9.5749,-9.6318,-9.6028,-9.6609,-9.6957,-9.6957,-9.7596,-9.8234,-9.8815,-9.9009,-9.9453,-10.0147,-10.1015,-10.0969,-10.0436,-10.1358,-10.1665,-10.1605,-10.1852,-10.2219,-10.2518,-10.2518,-10.2518,-10.2518,-10.2518,-10.2279,-10.2226]}]]